<?xml version="1.0" encoding="UTF-8" standalone="no" ?>
<gpx xmlns="http://www.topografix.com/GPX/1/1" xmlns:xsi="http://www.w3.org/2001/XMLSchema-instance" xsi:schemaLocation="http://www.topografix.com/GPX/1/1 http://www.topografix.com/GPX/1/1/gpx.xsd" version="1.1" creator="VisuGPX - https://www.visugpx.com">
  <metadata>
    <name>20180528-barnabe</name>
    <desc><![CDATA[De Castellane, nous empruntons la route avec une montée forte mais régulière jusqu’au col de saint Barnabé. Un arrêt à Demandolx puis au col avant la descente par le GR4 et le chemin forestier la piste forestière avant d’atteindre la route avant Chaudanne puis Castellane.]]></desc>
  </metadata>
  <trk>
    <name><![CDATA[20180528-093832-111141-x-MNT-F]]></name>
    <trkseg>
      <trkpt lat="43.83775" lon="6.49504">
        <ele>716</ele>
        <time>2018-05-28T07:38:33Z</time>
      </trkpt>
      <trkpt lat="43.83776" lon="6.49497">
        <ele>716</ele>
        <time>2018-05-28T07:38:37Z</time>
      </trkpt>
      <trkpt lat="43.83787" lon="6.49474">
        <ele>715</ele>
        <time>2018-05-28T07:38:49Z</time>
      </trkpt>
      <trkpt lat="43.83788" lon="6.49473">
        <ele>715</ele>
        <time>2018-05-28T07:38:50Z</time>
      </trkpt>
      <trkpt lat="43.8379" lon="6.49472">
        <ele>715</ele>
        <time>2018-05-28T07:38:51Z</time>
      </trkpt>
      <trkpt lat="43.83793" lon="6.4947">
        <ele>715</ele>
        <time>2018-05-28T07:38:52Z</time>
      </trkpt>
      <trkpt lat="43.83795" lon="6.49469">
        <ele>715</ele>
        <time>2018-05-28T07:38:53Z</time>
      </trkpt>
      <trkpt lat="43.83797" lon="6.49468">
        <ele>715</ele>
        <time>2018-05-28T07:38:54Z</time>
      </trkpt>
      <trkpt lat="43.83835" lon="6.49456">
        <ele>716</ele>
        <time>2018-05-28T07:39:09Z</time>
      </trkpt>
      <trkpt lat="43.83876" lon="6.49455">
        <ele>717</ele>
        <time>2018-05-28T07:39:26Z</time>
      </trkpt>
      <trkpt lat="43.83922" lon="6.49456">
        <ele>717</ele>
        <time>2018-05-28T07:39:43Z</time>
      </trkpt>
      <trkpt lat="43.83948" lon="6.49465">
        <ele>717</ele>
        <time>2018-05-28T07:39:56Z</time>
      </trkpt>
      <trkpt lat="43.83949" lon="6.49466">
        <ele>717</ele>
        <time>2018-05-28T07:39:57Z</time>
      </trkpt>
      <trkpt lat="43.83949" lon="6.49468">
        <ele>717</ele>
        <time>2018-05-28T07:39:58Z</time>
      </trkpt>
      <trkpt lat="43.83949" lon="6.4947">
        <ele>717</ele>
        <time>2018-05-28T07:39:59Z</time>
      </trkpt>
      <trkpt lat="43.8395" lon="6.49472">
        <ele>717</ele>
        <time>2018-05-28T07:40:00Z</time>
      </trkpt>
      <trkpt lat="43.83958" lon="6.49525">
        <ele>718</ele>
        <time>2018-05-28T07:40:12Z</time>
      </trkpt>
      <trkpt lat="43.83975" lon="6.49556">
        <ele>718</ele>
        <time>2018-05-28T07:40:23Z</time>
      </trkpt>
      <trkpt lat="43.83971" lon="6.49559">
        <ele>718</ele>
        <time>2018-05-28T07:40:26Z</time>
      </trkpt>
      <trkpt lat="43.83968" lon="6.49561">
        <ele>718</ele>
        <time>2018-05-28T07:40:28Z</time>
      </trkpt>
      <trkpt lat="43.83972" lon="6.49578">
        <ele>719</ele>
        <time>2018-05-28T07:40:33Z</time>
      </trkpt>
      <trkpt lat="43.83993" lon="6.49627">
        <ele>719</ele>
        <time>2018-05-28T07:40:46Z</time>
      </trkpt>
      <trkpt lat="43.83994" lon="6.49632">
        <ele>719</ele>
        <time>2018-05-28T07:40:47Z</time>
      </trkpt>
      <trkpt lat="43.83995" lon="6.49636">
        <ele>719</ele>
        <time>2018-05-28T07:40:48Z</time>
      </trkpt>
      <trkpt lat="43.83997" lon="6.49641">
        <ele>719</ele>
        <time>2018-05-28T07:40:49Z</time>
      </trkpt>
      <trkpt lat="43.83999" lon="6.49645">
        <ele>719</ele>
        <time>2018-05-28T07:40:50Z</time>
      </trkpt>
      <trkpt lat="43.84001" lon="6.4965">
        <ele>719</ele>
        <time>2018-05-28T07:40:51Z</time>
      </trkpt>
      <trkpt lat="43.84031" lon="6.4972">
        <ele>719</ele>
        <time>2018-05-28T07:41:07Z</time>
      </trkpt>
      <trkpt lat="43.84048" lon="6.49762">
        <ele>719</ele>
        <time>2018-05-28T07:41:21Z</time>
      </trkpt>
      <trkpt lat="43.84048" lon="6.49761">
        <ele>719</ele>
        <time>2018-05-28T07:41:40Z</time>
      </trkpt>
      <trkpt lat="43.84062" lon="6.49794">
        <ele>719</ele>
        <time>2018-05-28T07:41:51Z</time>
      </trkpt>
      <trkpt lat="43.84091" lon="6.49863">
        <ele>720</ele>
        <time>2018-05-28T07:42:08Z</time>
      </trkpt>
      <trkpt lat="43.84117" lon="6.49923">
        <ele>719</ele>
        <time>2018-05-28T07:42:22Z</time>
      </trkpt>
      <trkpt lat="43.84143" lon="6.49983">
        <ele>719</ele>
        <time>2018-05-28T07:42:36Z</time>
      </trkpt>
      <trkpt lat="43.84168" lon="6.50043">
        <ele>719</ele>
        <time>2018-05-28T07:42:49Z</time>
      </trkpt>
      <trkpt lat="43.84199" lon="6.50114">
        <ele>719</ele>
        <time>2018-05-28T07:43:04Z</time>
      </trkpt>
      <trkpt lat="43.84224" lon="6.50174">
        <ele>719</ele>
        <time>2018-05-28T07:43:18Z</time>
      </trkpt>
      <trkpt lat="43.84251" lon="6.50237">
        <ele>719</ele>
        <time>2018-05-28T07:43:33Z</time>
      </trkpt>
      <trkpt lat="43.84281" lon="6.50309">
        <ele>719</ele>
        <time>2018-05-28T07:43:49Z</time>
      </trkpt>
      <trkpt lat="43.84307" lon="6.50368">
        <ele>719</ele>
        <time>2018-05-28T07:44:04Z</time>
      </trkpt>
      <trkpt lat="43.84322" lon="6.50416">
        <ele>719</ele>
        <time>2018-05-28T07:44:17Z</time>
      </trkpt>
      <trkpt lat="43.84343" lon="6.50496">
        <ele>719</ele>
        <time>2018-05-28T07:44:32Z</time>
      </trkpt>
      <trkpt lat="43.84357" lon="6.50546">
        <ele>719</ele>
        <time>2018-05-28T07:44:41Z</time>
      </trkpt>
      <trkpt lat="43.8438" lon="6.50636">
        <ele>719</ele>
        <time>2018-05-28T07:44:58Z</time>
      </trkpt>
      <trkpt lat="43.84397" lon="6.50708">
        <ele>720</ele>
        <time>2018-05-28T07:45:12Z</time>
      </trkpt>
      <trkpt lat="43.84422" lon="6.50803">
        <ele>722</ele>
        <time>2018-05-28T07:45:30Z</time>
      </trkpt>
      <trkpt lat="43.8444" lon="6.50877">
        <ele>722</ele>
        <time>2018-05-28T07:45:45Z</time>
      </trkpt>
      <trkpt lat="43.84462" lon="6.50962">
        <ele>722</ele>
        <time>2018-05-28T07:46:01Z</time>
      </trkpt>
      <trkpt lat="43.84479" lon="6.51032">
        <ele>722</ele>
        <time>2018-05-28T07:46:14Z</time>
      </trkpt>
      <trkpt lat="43.84492" lon="6.51086">
        <ele>722</ele>
        <time>2018-05-28T07:46:24Z</time>
      </trkpt>
      <trkpt lat="43.84509" lon="6.51169">
        <ele>721</ele>
        <time>2018-05-28T07:46:40Z</time>
      </trkpt>
      <trkpt lat="43.84525" lon="6.51248">
        <ele>721</ele>
        <time>2018-05-28T07:46:55Z</time>
      </trkpt>
      <trkpt lat="43.84547" lon="6.51312">
        <ele>721</ele>
        <time>2018-05-28T07:47:09Z</time>
      </trkpt>
      <trkpt lat="43.84568" lon="6.51369">
        <ele>721</ele>
        <time>2018-05-28T07:47:25Z</time>
      </trkpt>
      <trkpt lat="43.84571" lon="6.51401">
        <ele>721</ele>
        <time>2018-05-28T07:47:37Z</time>
      </trkpt>
      <trkpt lat="43.84571" lon="6.51401">
        <ele>721</ele>
        <time>2018-05-28T07:47:57Z</time>
      </trkpt>
      <trkpt lat="43.8457" lon="6.51404">
        <ele>721</ele>
        <time>2018-05-28T07:48:02Z</time>
      </trkpt>
      <trkpt lat="43.8457" lon="6.51406">
        <ele>721</ele>
        <time>2018-05-28T07:48:03Z</time>
      </trkpt>
      <trkpt lat="43.84569" lon="6.51407">
        <ele>721</ele>
        <time>2018-05-28T07:48:04Z</time>
      </trkpt>
      <trkpt lat="43.84568" lon="6.51409">
        <ele>721</ele>
        <time>2018-05-28T07:48:05Z</time>
      </trkpt>
      <trkpt lat="43.84567" lon="6.51411">
        <ele>721</ele>
        <time>2018-05-28T07:48:06Z</time>
      </trkpt>
      <trkpt lat="43.84566" lon="6.51412">
        <ele>721</ele>
        <time>2018-05-28T07:48:07Z</time>
      </trkpt>
      <trkpt lat="43.84564" lon="6.51414">
        <ele>721</ele>
        <time>2018-05-28T07:48:08Z</time>
      </trkpt>
      <trkpt lat="43.84535" lon="6.51449">
        <ele>724</ele>
        <time>2018-05-28T07:48:26Z</time>
      </trkpt>
      <trkpt lat="43.84533" lon="6.51451">
        <ele>725</ele>
        <time>2018-05-28T07:48:27Z</time>
      </trkpt>
      <trkpt lat="43.84531" lon="6.51454">
        <ele>725</ele>
        <time>2018-05-28T07:48:28Z</time>
      </trkpt>
      <trkpt lat="43.84529" lon="6.51456">
        <ele>725</ele>
        <time>2018-05-28T07:48:29Z</time>
      </trkpt>
      <trkpt lat="43.84527" lon="6.5146">
        <ele>726</ele>
        <time>2018-05-28T07:48:30Z</time>
      </trkpt>
      <trkpt lat="43.84525" lon="6.51463">
        <ele>727</ele>
        <time>2018-05-28T07:48:31Z</time>
      </trkpt>
      <trkpt lat="43.84523" lon="6.51467">
        <ele>727</ele>
        <time>2018-05-28T07:48:32Z</time>
      </trkpt>
      <trkpt lat="43.8452" lon="6.51471">
        <ele>728</ele>
        <time>2018-05-28T07:48:33Z</time>
      </trkpt>
      <trkpt lat="43.84519" lon="6.51475">
        <ele>729</ele>
        <time>2018-05-28T07:48:34Z</time>
      </trkpt>
      <trkpt lat="43.8451" lon="6.51516">
        <ele>734</ele>
        <time>2018-05-28T07:48:48Z</time>
      </trkpt>
      <trkpt lat="43.8451" lon="6.51533">
        <ele>734</ele>
        <time>2018-05-28T07:48:55Z</time>
      </trkpt>
      <trkpt lat="43.8451" lon="6.51543">
        <ele>735</ele>
        <time>2018-05-28T07:48:59Z</time>
      </trkpt>
      <trkpt lat="43.84513" lon="6.51585">
        <ele>735</ele>
        <time>2018-05-28T07:49:15Z</time>
      </trkpt>
      <trkpt lat="43.84512" lon="6.5164">
        <ele>736</ele>
        <time>2018-05-28T07:49:33Z</time>
      </trkpt>
      <trkpt lat="43.84507" lon="6.51713">
        <ele>736</ele>
        <time>2018-05-28T07:49:48Z</time>
      </trkpt>
      <trkpt lat="43.8449" lon="6.51779">
        <ele>738</ele>
        <time>2018-05-28T07:50:02Z</time>
      </trkpt>
      <trkpt lat="43.84476" lon="6.51835">
        <ele>737</ele>
        <time>2018-05-28T07:50:15Z</time>
      </trkpt>
      <trkpt lat="43.84453" lon="6.51925">
        <ele>739</ele>
        <time>2018-05-28T07:50:33Z</time>
      </trkpt>
      <trkpt lat="43.84432" lon="6.51999">
        <ele>736</ele>
        <time>2018-05-28T07:50:47Z</time>
      </trkpt>
      <trkpt lat="43.84406" lon="6.52077">
        <ele>740</ele>
        <time>2018-05-28T07:51:02Z</time>
      </trkpt>
      <trkpt lat="43.84384" lon="6.52123">
        <ele>740</ele>
        <time>2018-05-28T07:51:13Z</time>
      </trkpt>
      <trkpt lat="43.8435" lon="6.5218">
        <ele>742</ele>
        <time>2018-05-28T07:51:27Z</time>
      </trkpt>
      <trkpt lat="43.8433" lon="6.5224">
        <ele>742</ele>
        <time>2018-05-28T07:51:39Z</time>
      </trkpt>
      <trkpt lat="43.84319" lon="6.52273">
        <ele>741</ele>
        <time>2018-05-28T07:51:45Z</time>
      </trkpt>
      <trkpt lat="43.84311" lon="6.52304">
        <ele>739</ele>
        <time>2018-05-28T07:51:50Z</time>
      </trkpt>
      <trkpt lat="43.84307" lon="6.52315">
        <ele>740</ele>
        <time>2018-05-28T07:51:52Z</time>
      </trkpt>
      <trkpt lat="43.84283" lon="6.52401">
        <ele>743</ele>
        <time>2018-05-28T07:52:08Z</time>
      </trkpt>
      <trkpt lat="43.84269" lon="6.52465">
        <ele>740</ele>
        <time>2018-05-28T07:52:20Z</time>
      </trkpt>
      <trkpt lat="43.84267" lon="6.52471">
        <ele>740</ele>
        <time>2018-05-28T07:52:21Z</time>
      </trkpt>
      <trkpt lat="43.84265" lon="6.52476">
        <ele>740</ele>
        <time>2018-05-28T07:52:22Z</time>
      </trkpt>
      <trkpt lat="43.84263" lon="6.52481">
        <ele>739</ele>
        <time>2018-05-28T07:52:23Z</time>
      </trkpt>
      <trkpt lat="43.84261" lon="6.52486">
        <ele>740</ele>
        <time>2018-05-28T07:52:24Z</time>
      </trkpt>
      <trkpt lat="43.84259" lon="6.52491">
        <ele>740</ele>
        <time>2018-05-28T07:52:25Z</time>
      </trkpt>
      <trkpt lat="43.84229" lon="6.52559">
        <ele>740</ele>
        <time>2018-05-28T07:52:39Z</time>
      </trkpt>
      <trkpt lat="43.84204" lon="6.52643">
        <ele>737</ele>
        <time>2018-05-28T07:52:55Z</time>
      </trkpt>
      <trkpt lat="43.84207" lon="6.5271">
        <ele>737</ele>
        <time>2018-05-28T07:53:09Z</time>
      </trkpt>
      <trkpt lat="43.84226" lon="6.52788">
        <ele>738</ele>
        <time>2018-05-28T07:53:26Z</time>
      </trkpt>
      <trkpt lat="43.84247" lon="6.52877">
        <ele>738</ele>
        <time>2018-05-28T07:53:45Z</time>
      </trkpt>
      <trkpt lat="43.84266" lon="6.52953">
        <ele>738</ele>
        <time>2018-05-28T07:54:02Z</time>
      </trkpt>
      <trkpt lat="43.8428" lon="6.53015">
        <ele>739</ele>
        <time>2018-05-28T07:54:16Z</time>
      </trkpt>
      <trkpt lat="43.84295" lon="6.53079">
        <ele>739</ele>
        <time>2018-05-28T07:54:33Z</time>
      </trkpt>
      <trkpt lat="43.84307" lon="6.53127">
        <ele>739</ele>
        <time>2018-05-28T07:54:47Z</time>
      </trkpt>
      <trkpt lat="43.84324" lon="6.53198">
        <ele>740</ele>
        <time>2018-05-28T07:55:06Z</time>
      </trkpt>
      <trkpt lat="43.84337" lon="6.53254">
        <ele>740</ele>
        <time>2018-05-28T07:55:24Z</time>
      </trkpt>
      <trkpt lat="43.84337" lon="6.53256">
        <ele>740</ele>
        <time>2018-05-28T07:55:25Z</time>
      </trkpt>
      <trkpt lat="43.84336" lon="6.53258">
        <ele>740</ele>
        <time>2018-05-28T07:55:26Z</time>
      </trkpt>
      <trkpt lat="43.84336" lon="6.53263">
        <ele>740</ele>
        <time>2018-05-28T07:55:28Z</time>
      </trkpt>
      <trkpt lat="43.84336" lon="6.53265">
        <ele>740</ele>
        <time>2018-05-28T07:55:41Z</time>
      </trkpt>
      <trkpt lat="43.84335" lon="6.53264">
        <ele>740</ele>
        <time>2018-05-28T07:56:06Z</time>
      </trkpt>
      <trkpt lat="43.84337" lon="6.53262">
        <ele>740</ele>
        <time>2018-05-28T07:56:40Z</time>
      </trkpt>
      <trkpt lat="43.84337" lon="6.53262">
        <ele>740</ele>
        <time>2018-05-28T07:57:12Z</time>
      </trkpt>
      <trkpt lat="43.84337" lon="6.53264">
        <ele>740</ele>
        <time>2018-05-28T07:57:33Z</time>
      </trkpt>
      <trkpt lat="43.84338" lon="6.53267">
        <ele>740</ele>
        <time>2018-05-28T07:57:59Z</time>
      </trkpt>
      <trkpt lat="43.84338" lon="6.53264">
        <ele>740</ele>
        <time>2018-05-28T07:58:20Z</time>
      </trkpt>
      <trkpt lat="43.84341" lon="6.53269">
        <ele>740</ele>
        <time>2018-05-28T07:58:37Z</time>
      </trkpt>
      <trkpt lat="43.84352" lon="6.53309">
        <ele>740</ele>
        <time>2018-05-28T07:58:50Z</time>
      </trkpt>
      <trkpt lat="43.84368" lon="6.53368">
        <ele>740</ele>
        <time>2018-05-28T07:59:04Z</time>
      </trkpt>
      <trkpt lat="43.84373" lon="6.53415">
        <ele>741</ele>
        <time>2018-05-28T07:59:16Z</time>
      </trkpt>
      <trkpt lat="43.84353" lon="6.53457">
        <ele>745</ele>
        <time>2018-05-28T07:59:31Z</time>
      </trkpt>
      <trkpt lat="43.84346" lon="6.53465">
        <ele>746</ele>
        <time>2018-05-28T07:59:35Z</time>
      </trkpt>
      <trkpt lat="43.84345" lon="6.53467">
        <ele>746</ele>
        <time>2018-05-28T07:59:36Z</time>
      </trkpt>
      <trkpt lat="43.84322" lon="6.53499">
        <ele>749</ele>
        <time>2018-05-28T07:59:51Z</time>
      </trkpt>
      <trkpt lat="43.843" lon="6.53529">
        <ele>754</ele>
        <time>2018-05-28T08:00:07Z</time>
      </trkpt>
      <trkpt lat="43.84276" lon="6.53561">
        <ele>754</ele>
        <time>2018-05-28T08:00:24Z</time>
      </trkpt>
      <trkpt lat="43.84256" lon="6.53594">
        <ele>755</ele>
        <time>2018-05-28T08:00:40Z</time>
      </trkpt>
      <trkpt lat="43.84244" lon="6.53633">
        <ele>758</ele>
        <time>2018-05-28T08:00:56Z</time>
      </trkpt>
      <trkpt lat="43.84233" lon="6.53673">
        <ele>762</ele>
        <time>2018-05-28T08:01:13Z</time>
      </trkpt>
      <trkpt lat="43.84223" lon="6.53711">
        <ele>765</ele>
        <time>2018-05-28T08:01:27Z</time>
      </trkpt>
      <trkpt lat="43.84217" lon="6.53734">
        <ele>766</ele>
        <time>2018-05-28T08:01:38Z</time>
      </trkpt>
      <trkpt lat="43.84209" lon="6.53765">
        <ele>767</ele>
        <time>2018-05-28T08:01:52Z</time>
      </trkpt>
      <trkpt lat="43.84203" lon="6.53797">
        <ele>769</ele>
        <time>2018-05-28T08:02:06Z</time>
      </trkpt>
      <trkpt lat="43.84201" lon="6.53817">
        <ele>770</ele>
        <time>2018-05-28T08:02:14Z</time>
      </trkpt>
      <trkpt lat="43.84202" lon="6.53819">
        <ele>770</ele>
        <time>2018-05-28T08:02:15Z</time>
      </trkpt>
      <trkpt lat="43.84201" lon="6.53822">
        <ele>770</ele>
        <time>2018-05-28T08:02:16Z</time>
      </trkpt>
      <trkpt lat="43.84201" lon="6.53824">
        <ele>771</ele>
        <time>2018-05-28T08:02:17Z</time>
      </trkpt>
      <trkpt lat="43.84201" lon="6.53826">
        <ele>771</ele>
        <time>2018-05-28T08:02:18Z</time>
      </trkpt>
      <trkpt lat="43.84201" lon="6.53829">
        <ele>771</ele>
        <time>2018-05-28T08:02:19Z</time>
      </trkpt>
      <trkpt lat="43.84201" lon="6.53831">
        <ele>771</ele>
        <time>2018-05-28T08:02:20Z</time>
      </trkpt>
      <trkpt lat="43.84203" lon="6.53871">
        <ele>772</ele>
        <time>2018-05-28T08:02:36Z</time>
      </trkpt>
      <trkpt lat="43.84206" lon="6.53907">
        <ele>771</ele>
        <time>2018-05-28T08:02:47Z</time>
      </trkpt>
      <trkpt lat="43.84216" lon="6.53944">
        <ele>768</ele>
        <time>2018-05-28T08:03:03Z</time>
      </trkpt>
      <trkpt lat="43.84237" lon="6.5395">
        <ele>771</ele>
        <time>2018-05-28T08:03:18Z</time>
      </trkpt>
      <trkpt lat="43.8426" lon="6.53923">
        <ele>777</ele>
        <time>2018-05-28T08:03:34Z</time>
      </trkpt>
      <trkpt lat="43.8429" lon="6.53907">
        <ele>780</ele>
        <time>2018-05-28T08:03:52Z</time>
      </trkpt>
      <trkpt lat="43.84325" lon="6.5392">
        <ele>783</ele>
        <time>2018-05-28T08:04:05Z</time>
      </trkpt>
      <trkpt lat="43.84362" lon="6.5395">
        <ele>785</ele>
        <time>2018-05-28T08:04:19Z</time>
      </trkpt>
      <trkpt lat="43.84364" lon="6.5395">
        <ele>786</ele>
        <time>2018-05-28T08:04:20Z</time>
      </trkpt>
      <trkpt lat="43.84366" lon="6.5395">
        <ele>786</ele>
        <time>2018-05-28T08:04:21Z</time>
      </trkpt>
      <trkpt lat="43.84368" lon="6.53951">
        <ele>786</ele>
        <time>2018-05-28T08:04:22Z</time>
      </trkpt>
      <trkpt lat="43.8437" lon="6.53952">
        <ele>786</ele>
        <time>2018-05-28T08:04:23Z</time>
      </trkpt>
      <trkpt lat="43.84372" lon="6.53952">
        <ele>787</ele>
        <time>2018-05-28T08:04:24Z</time>
      </trkpt>
      <trkpt lat="43.84373" lon="6.53952">
        <ele>787</ele>
        <time>2018-05-28T08:04:25Z</time>
      </trkpt>
      <trkpt lat="43.84375" lon="6.53951">
        <ele>787</ele>
        <time>2018-05-28T08:04:26Z</time>
      </trkpt>
      <trkpt lat="43.84377" lon="6.5395">
        <ele>787</ele>
        <time>2018-05-28T08:04:27Z</time>
      </trkpt>
      <trkpt lat="43.84378" lon="6.53949">
        <ele>787</ele>
        <time>2018-05-28T08:04:28Z</time>
      </trkpt>
      <trkpt lat="43.8438" lon="6.53948">
        <ele>788</ele>
        <time>2018-05-28T08:04:29Z</time>
      </trkpt>
      <trkpt lat="43.84382" lon="6.53948">
        <ele>788</ele>
        <time>2018-05-28T08:04:30Z</time>
      </trkpt>
      <trkpt lat="43.84384" lon="6.53949">
        <ele>788</ele>
        <time>2018-05-28T08:04:31Z</time>
      </trkpt>
      <trkpt lat="43.84385" lon="6.53949">
        <ele>788</ele>
        <time>2018-05-28T08:04:32Z</time>
      </trkpt>
      <trkpt lat="43.84394" lon="6.53948">
        <ele>788</ele>
        <time>2018-05-28T08:04:37Z</time>
      </trkpt>
      <trkpt lat="43.84395" lon="6.53947">
        <ele>788</ele>
        <time>2018-05-28T08:04:38Z</time>
      </trkpt>
      <trkpt lat="43.84398" lon="6.53947">
        <ele>788</ele>
        <time>2018-05-28T08:04:39Z</time>
      </trkpt>
      <trkpt lat="43.84409" lon="6.53953">
        <ele>788</ele>
        <time>2018-05-28T08:04:46Z</time>
      </trkpt>
      <trkpt lat="43.8441" lon="6.53954">
        <ele>788</ele>
        <time>2018-05-28T08:04:47Z</time>
      </trkpt>
      <trkpt lat="43.84411" lon="6.53956">
        <ele>789</ele>
        <time>2018-05-28T08:04:48Z</time>
      </trkpt>
      <trkpt lat="43.84412" lon="6.53957">
        <ele>789</ele>
        <time>2018-05-28T08:04:49Z</time>
      </trkpt>
      <trkpt lat="43.84413" lon="6.53958">
        <ele>789</ele>
        <time>2018-05-28T08:04:50Z</time>
      </trkpt>
      <trkpt lat="43.84415" lon="6.53959">
        <ele>789</ele>
        <time>2018-05-28T08:04:51Z</time>
      </trkpt>
      <trkpt lat="43.84416" lon="6.5396">
        <ele>789</ele>
        <time>2018-05-28T08:04:52Z</time>
      </trkpt>
      <trkpt lat="43.84417" lon="6.53961">
        <ele>789</ele>
        <time>2018-05-28T08:04:53Z</time>
      </trkpt>
      <trkpt lat="43.84418" lon="6.53963">
        <ele>790</ele>
        <time>2018-05-28T08:04:54Z</time>
      </trkpt>
      <trkpt lat="43.8442" lon="6.53964">
        <ele>790</ele>
        <time>2018-05-28T08:04:55Z</time>
      </trkpt>
      <trkpt lat="43.84423" lon="6.53967">
        <ele>790</ele>
        <time>2018-05-28T08:04:57Z</time>
      </trkpt>
      <trkpt lat="43.84424" lon="6.53968">
        <ele>790</ele>
        <time>2018-05-28T08:04:59Z</time>
      </trkpt>
      <trkpt lat="43.84426" lon="6.53969">
        <ele>791</ele>
        <time>2018-05-28T08:05:01Z</time>
      </trkpt>
      <trkpt lat="43.84426" lon="6.53972">
        <ele>791</ele>
        <time>2018-05-28T08:05:03Z</time>
      </trkpt>
      <trkpt lat="43.84427" lon="6.53974">
        <ele>791</ele>
        <time>2018-05-28T08:05:04Z</time>
      </trkpt>
      <trkpt lat="43.84428" lon="6.53975">
        <ele>791</ele>
        <time>2018-05-28T08:05:05Z</time>
      </trkpt>
      <trkpt lat="43.84431" lon="6.53978">
        <ele>791</ele>
        <time>2018-05-28T08:05:07Z</time>
      </trkpt>
      <trkpt lat="43.84432" lon="6.5398">
        <ele>791</ele>
        <time>2018-05-28T08:05:08Z</time>
      </trkpt>
      <trkpt lat="43.84433" lon="6.53982">
        <ele>791</ele>
        <time>2018-05-28T08:05:09Z</time>
      </trkpt>
      <trkpt lat="43.8445" lon="6.54002">
        <ele>792</ele>
        <time>2018-05-28T08:05:20Z</time>
      </trkpt>
      <trkpt lat="43.84451" lon="6.54004">
        <ele>792</ele>
        <time>2018-05-28T08:05:21Z</time>
      </trkpt>
      <trkpt lat="43.84453" lon="6.54005">
        <ele>792</ele>
        <time>2018-05-28T08:05:22Z</time>
      </trkpt>
      <trkpt lat="43.84454" lon="6.54007">
        <ele>792</ele>
        <time>2018-05-28T08:05:23Z</time>
      </trkpt>
      <trkpt lat="43.84456" lon="6.54008">
        <ele>792</ele>
        <time>2018-05-28T08:05:24Z</time>
      </trkpt>
      <trkpt lat="43.84459" lon="6.54012">
        <ele>792</ele>
        <time>2018-05-28T08:05:26Z</time>
      </trkpt>
      <trkpt lat="43.84462" lon="6.54013">
        <ele>792</ele>
        <time>2018-05-28T08:05:27Z</time>
      </trkpt>
      <trkpt lat="43.84494" lon="6.54024">
        <ele>794</ele>
        <time>2018-05-28T08:05:40Z</time>
      </trkpt>
      <trkpt lat="43.84537" lon="6.54028">
        <ele>795</ele>
        <time>2018-05-28T08:05:56Z</time>
      </trkpt>
      <trkpt lat="43.84572" lon="6.54042">
        <ele>790</ele>
        <time>2018-05-28T08:06:09Z</time>
      </trkpt>
      <trkpt lat="43.84589" lon="6.54085">
        <ele>799</ele>
        <time>2018-05-28T08:06:22Z</time>
      </trkpt>
      <trkpt lat="43.84599" lon="6.54121">
        <ele>817</ele>
        <time>2018-05-28T08:06:35Z</time>
      </trkpt>
      <trkpt lat="43.84609" lon="6.54189">
        <ele>803</ele>
        <time>2018-05-28T08:06:53Z</time>
      </trkpt>
      <trkpt lat="43.84604" lon="6.54245">
        <ele>802</ele>
        <time>2018-05-28T08:07:07Z</time>
      </trkpt>
      <trkpt lat="43.84611" lon="6.54289">
        <ele>803</ele>
        <time>2018-05-28T08:07:20Z</time>
      </trkpt>
      <trkpt lat="43.84625" lon="6.54333">
        <ele>799</ele>
        <time>2018-05-28T08:07:34Z</time>
      </trkpt>
      <trkpt lat="43.84643" lon="6.54376">
        <ele>798</ele>
        <time>2018-05-28T08:07:48Z</time>
      </trkpt>
      <trkpt lat="43.84662" lon="6.54422">
        <ele>796</ele>
        <time>2018-05-28T08:08:03Z</time>
      </trkpt>
      <trkpt lat="43.84675" lon="6.54455">
        <ele>800</ele>
        <time>2018-05-28T08:08:15Z</time>
      </trkpt>
      <trkpt lat="43.84699" lon="6.545">
        <ele>809</ele>
        <time>2018-05-28T08:08:29Z</time>
      </trkpt>
      <trkpt lat="43.84732" lon="6.54526">
        <ele>804</ele>
        <time>2018-05-28T08:08:41Z</time>
      </trkpt>
      <trkpt lat="43.84767" lon="6.54555">
        <ele>808</ele>
        <time>2018-05-28T08:08:54Z</time>
      </trkpt>
      <trkpt lat="43.84803" lon="6.54563">
        <ele>819</ele>
        <time>2018-05-28T08:09:05Z</time>
      </trkpt>
      <trkpt lat="43.84806" lon="6.54564">
        <ele>820</ele>
        <time>2018-05-28T08:09:06Z</time>
      </trkpt>
      <trkpt lat="43.84881" lon="6.54587">
        <ele>824</ele>
        <time>2018-05-28T08:09:28Z</time>
      </trkpt>
      <trkpt lat="43.84903" lon="6.54615">
        <ele>819</ele>
        <time>2018-05-28T08:09:38Z</time>
      </trkpt>
      <trkpt lat="43.84922" lon="6.54654">
        <ele>827</ele>
        <time>2018-05-28T08:09:48Z</time>
      </trkpt>
      <trkpt lat="43.84943" lon="6.54667">
        <ele>823</ele>
        <time>2018-05-28T08:09:54Z</time>
      </trkpt>
      <trkpt lat="43.84979" lon="6.54676">
        <ele>808</ele>
        <time>2018-05-28T08:10:03Z</time>
      </trkpt>
      <trkpt lat="43.84983" lon="6.54678">
        <ele>807</ele>
        <time>2018-05-28T08:10:04Z</time>
      </trkpt>
      <trkpt lat="43.84986" lon="6.54681">
        <ele>807</ele>
        <time>2018-05-28T08:10:05Z</time>
      </trkpt>
      <trkpt lat="43.84989" lon="6.54685">
        <ele>807</ele>
        <time>2018-05-28T08:10:06Z</time>
      </trkpt>
      <trkpt lat="43.84992" lon="6.5469">
        <ele>808</ele>
        <time>2018-05-28T08:10:07Z</time>
      </trkpt>
      <trkpt lat="43.84994" lon="6.54695">
        <ele>809</ele>
        <time>2018-05-28T08:10:08Z</time>
      </trkpt>
      <trkpt lat="43.85009" lon="6.54724">
        <ele>811</ele>
        <time>2018-05-28T08:10:14Z</time>
      </trkpt>
      <trkpt lat="43.85012" lon="6.54728">
        <ele>811</ele>
        <time>2018-05-28T08:10:15Z</time>
      </trkpt>
      <trkpt lat="43.85025" lon="6.54741">
        <ele>808</ele>
        <time>2018-05-28T08:10:19Z</time>
      </trkpt>
      <trkpt lat="43.85029" lon="6.54744">
        <ele>807</ele>
        <time>2018-05-28T08:10:20Z</time>
      </trkpt>
      <trkpt lat="43.85104" lon="6.548">
        <ele>803</ele>
        <time>2018-05-28T08:10:40Z</time>
      </trkpt>
      <trkpt lat="43.85107" lon="6.54804">
        <ele>803</ele>
        <time>2018-05-28T08:10:41Z</time>
      </trkpt>
      <trkpt lat="43.85151" lon="6.54838">
        <ele>802</ele>
        <time>2018-05-28T08:10:53Z</time>
      </trkpt>
      <trkpt lat="43.85155" lon="6.5484">
        <ele>802</ele>
        <time>2018-05-28T08:10:54Z</time>
      </trkpt>
      <trkpt lat="43.85222" lon="6.54883">
        <ele>801</ele>
        <time>2018-05-28T08:11:12Z</time>
      </trkpt>
      <trkpt lat="43.85236" lon="6.54894">
        <ele>801</ele>
        <time>2018-05-28T08:11:16Z</time>
      </trkpt>
      <trkpt lat="43.85246" lon="6.54904">
        <ele>801</ele>
        <time>2018-05-28T08:11:19Z</time>
      </trkpt>
      <trkpt lat="43.8526" lon="6.54915">
        <ele>803</ele>
        <time>2018-05-28T08:11:23Z</time>
      </trkpt>
      <trkpt lat="43.85264" lon="6.54917">
        <ele>803</ele>
        <time>2018-05-28T08:11:24Z</time>
      </trkpt>
      <trkpt lat="43.85274" lon="6.5492">
        <ele>803</ele>
        <time>2018-05-28T08:11:26Z</time>
      </trkpt>
      <trkpt lat="43.85277" lon="6.5492">
        <ele>802</ele>
        <time>2018-05-28T08:11:27Z</time>
      </trkpt>
      <trkpt lat="43.85281" lon="6.5492">
        <ele>802</ele>
        <time>2018-05-28T08:11:28Z</time>
      </trkpt>
      <trkpt lat="43.85286" lon="6.5492">
        <ele>802</ele>
        <time>2018-05-28T08:11:29Z</time>
      </trkpt>
      <trkpt lat="43.85291" lon="6.54919">
        <ele>801</ele>
        <time>2018-05-28T08:11:30Z</time>
      </trkpt>
      <trkpt lat="43.8532" lon="6.54918">
        <ele>799</ele>
        <time>2018-05-28T08:11:37Z</time>
      </trkpt>
      <trkpt lat="43.85328" lon="6.54922">
        <ele>799</ele>
        <time>2018-05-28T08:11:39Z</time>
      </trkpt>
      <trkpt lat="43.85332" lon="6.54924">
        <ele>800</ele>
        <time>2018-05-28T08:11:40Z</time>
      </trkpt>
      <trkpt lat="43.85336" lon="6.54925">
        <ele>800</ele>
        <time>2018-05-28T08:11:41Z</time>
      </trkpt>
      <trkpt lat="43.85352" lon="6.54934">
        <ele>799</ele>
        <time>2018-05-28T08:11:45Z</time>
      </trkpt>
      <trkpt lat="43.85361" lon="6.5494">
        <ele>798</ele>
        <time>2018-05-28T08:11:47Z</time>
      </trkpt>
      <trkpt lat="43.85364" lon="6.54943">
        <ele>798</ele>
        <time>2018-05-28T08:11:48Z</time>
      </trkpt>
      <trkpt lat="43.8537" lon="6.54952">
        <ele>798</ele>
        <time>2018-05-28T08:11:50Z</time>
      </trkpt>
      <trkpt lat="43.85373" lon="6.54956">
        <ele>799</ele>
        <time>2018-05-28T08:11:51Z</time>
      </trkpt>
      <trkpt lat="43.85374" lon="6.54961">
        <ele>799</ele>
        <time>2018-05-28T08:11:52Z</time>
      </trkpt>
      <trkpt lat="43.85378" lon="6.54971">
        <ele>800</ele>
        <time>2018-05-28T08:11:54Z</time>
      </trkpt>
      <trkpt lat="43.85403" lon="6.55013">
        <ele>811</ele>
        <time>2018-05-28T08:12:05Z</time>
      </trkpt>
      <trkpt lat="43.85415" lon="6.55015">
        <ele>809</ele>
        <time>2018-05-28T08:12:08Z</time>
      </trkpt>
      <trkpt lat="43.8542" lon="6.55014">
        <ele>808</ele>
        <time>2018-05-28T08:12:09Z</time>
      </trkpt>
      <trkpt lat="43.85424" lon="6.55013">
        <ele>807</ele>
        <time>2018-05-28T08:12:10Z</time>
      </trkpt>
      <trkpt lat="43.85428" lon="6.55011">
        <ele>807</ele>
        <time>2018-05-28T08:12:11Z</time>
      </trkpt>
      <trkpt lat="43.85432" lon="6.5501">
        <ele>806</ele>
        <time>2018-05-28T08:12:12Z</time>
      </trkpt>
      <trkpt lat="43.85436" lon="6.55008">
        <ele>806</ele>
        <time>2018-05-28T08:12:13Z</time>
      </trkpt>
      <trkpt lat="43.85454" lon="6.54998">
        <ele>803</ele>
        <time>2018-05-28T08:12:19Z</time>
      </trkpt>
      <trkpt lat="43.8546" lon="6.55001">
        <ele>805</ele>
        <time>2018-05-28T08:12:20Z</time>
      </trkpt>
      <trkpt lat="43.85465" lon="6.55003">
        <ele>806</ele>
        <time>2018-05-28T08:12:21Z</time>
      </trkpt>
      <trkpt lat="43.85474" lon="6.55008">
        <ele>807</ele>
        <time>2018-05-28T08:12:23Z</time>
      </trkpt>
      <trkpt lat="43.85479" lon="6.55011">
        <ele>807</ele>
        <time>2018-05-28T08:12:24Z</time>
      </trkpt>
      <trkpt lat="43.85505" lon="6.55037">
        <ele>806</ele>
        <time>2018-05-28T08:12:31Z</time>
      </trkpt>
      <trkpt lat="43.8551" lon="6.55046">
        <ele>806</ele>
        <time>2018-05-28T08:12:33Z</time>
      </trkpt>
      <trkpt lat="43.85515" lon="6.55057">
        <ele>807</ele>
        <time>2018-05-28T08:12:35Z</time>
      </trkpt>
      <trkpt lat="43.85517" lon="6.55062">
        <ele>807</ele>
        <time>2018-05-28T08:12:36Z</time>
      </trkpt>
      <trkpt lat="43.85518" lon="6.55067">
        <ele>808</ele>
        <time>2018-05-28T08:12:37Z</time>
      </trkpt>
      <trkpt lat="43.85529" lon="6.55097">
        <ele>812</ele>
        <time>2018-05-28T08:12:43Z</time>
      </trkpt>
      <trkpt lat="43.85532" lon="6.55101">
        <ele>811</ele>
        <time>2018-05-28T08:12:44Z</time>
      </trkpt>
      <trkpt lat="43.85572" lon="6.55157">
        <ele>809</ele>
        <time>2018-05-28T08:12:57Z</time>
      </trkpt>
      <trkpt lat="43.85584" lon="6.55179">
        <ele>810</ele>
        <time>2018-05-28T08:13:02Z</time>
      </trkpt>
      <trkpt lat="43.85587" lon="6.55182">
        <ele>809</ele>
        <time>2018-05-28T08:13:03Z</time>
      </trkpt>
      <trkpt lat="43.85591" lon="6.55185">
        <ele>808</ele>
        <time>2018-05-28T08:13:04Z</time>
      </trkpt>
      <trkpt lat="43.85615" lon="6.55199">
        <ele>804</ele>
        <time>2018-05-28T08:13:10Z</time>
      </trkpt>
      <trkpt lat="43.85633" lon="6.55218">
        <ele>806</ele>
        <time>2018-05-28T08:13:15Z</time>
      </trkpt>
      <trkpt lat="43.85681" lon="6.55296">
        <ele>805</ele>
        <time>2018-05-28T08:13:32Z</time>
      </trkpt>
      <trkpt lat="43.85706" lon="6.5535">
        <ele>810</ele>
        <time>2018-05-28T08:13:42Z</time>
      </trkpt>
      <trkpt lat="43.85712" lon="6.5536">
        <ele>810</ele>
        <time>2018-05-28T08:13:44Z</time>
      </trkpt>
      <trkpt lat="43.85745" lon="6.5541">
        <ele>809</ele>
        <time>2018-05-28T08:13:55Z</time>
      </trkpt>
      <trkpt lat="43.85748" lon="6.55413">
        <ele>808</ele>
        <time>2018-05-28T08:13:56Z</time>
      </trkpt>
      <trkpt lat="43.85752" lon="6.55416">
        <ele>808</ele>
        <time>2018-05-28T08:13:57Z</time>
      </trkpt>
      <trkpt lat="43.85755" lon="6.55419">
        <ele>806</ele>
        <time>2018-05-28T08:13:58Z</time>
      </trkpt>
      <trkpt lat="43.85759" lon="6.55421">
        <ele>805</ele>
        <time>2018-05-28T08:13:59Z</time>
      </trkpt>
      <trkpt lat="43.85763" lon="6.55424">
        <ele>804</ele>
        <time>2018-05-28T08:14:00Z</time>
      </trkpt>
      <trkpt lat="43.85766" lon="6.55428">
        <ele>803</ele>
        <time>2018-05-28T08:14:01Z</time>
      </trkpt>
      <trkpt lat="43.8577" lon="6.55433">
        <ele>803</ele>
        <time>2018-05-28T08:14:02Z</time>
      </trkpt>
      <trkpt lat="43.85773" lon="6.55437">
        <ele>803</ele>
        <time>2018-05-28T08:14:03Z</time>
      </trkpt>
      <trkpt lat="43.85776" lon="6.55442">
        <ele>803</ele>
        <time>2018-05-28T08:14:04Z</time>
      </trkpt>
      <trkpt lat="43.85778" lon="6.55448">
        <ele>803</ele>
        <time>2018-05-28T08:14:05Z</time>
      </trkpt>
      <trkpt lat="43.8578" lon="6.55453">
        <ele>803</ele>
        <time>2018-05-28T08:14:06Z</time>
      </trkpt>
      <trkpt lat="43.85789" lon="6.55488">
        <ele>804</ele>
        <time>2018-05-28T08:14:12Z</time>
      </trkpt>
      <trkpt lat="43.85789" lon="6.55493">
        <ele>804</ele>
        <time>2018-05-28T08:14:13Z</time>
      </trkpt>
      <trkpt lat="43.85789" lon="6.55499">
        <ele>805</ele>
        <time>2018-05-28T08:14:14Z</time>
      </trkpt>
      <trkpt lat="43.85789" lon="6.55534">
        <ele>808</ele>
        <time>2018-05-28T08:14:20Z</time>
      </trkpt>
      <trkpt lat="43.85795" lon="6.55561">
        <ele>805</ele>
        <time>2018-05-28T08:14:25Z</time>
      </trkpt>
      <trkpt lat="43.85798" lon="6.55565">
        <ele>803</ele>
        <time>2018-05-28T08:14:26Z</time>
      </trkpt>
      <trkpt lat="43.85801" lon="6.55569">
        <ele>802</ele>
        <time>2018-05-28T08:14:27Z</time>
      </trkpt>
      <trkpt lat="43.85805" lon="6.55572">
        <ele>800</ele>
        <time>2018-05-28T08:14:28Z</time>
      </trkpt>
      <trkpt lat="43.85809" lon="6.55574">
        <ele>801</ele>
        <time>2018-05-28T08:14:29Z</time>
      </trkpt>
      <trkpt lat="43.85813" lon="6.55574">
        <ele>802</ele>
        <time>2018-05-28T08:14:30Z</time>
      </trkpt>
      <trkpt lat="43.85818" lon="6.55574">
        <ele>803</ele>
        <time>2018-05-28T08:14:31Z</time>
      </trkpt>
      <trkpt lat="43.85822" lon="6.55573">
        <ele>804</ele>
        <time>2018-05-28T08:14:32Z</time>
      </trkpt>
      <trkpt lat="43.85826" lon="6.55572">
        <ele>804</ele>
        <time>2018-05-28T08:14:33Z</time>
      </trkpt>
      <trkpt lat="43.85881" lon="6.55556">
        <ele>802</ele>
        <time>2018-05-28T08:14:47Z</time>
      </trkpt>
      <trkpt lat="43.85885" lon="6.55557">
        <ele>802</ele>
        <time>2018-05-28T08:14:48Z</time>
      </trkpt>
      <trkpt lat="43.85897" lon="6.55559">
        <ele>802</ele>
        <time>2018-05-28T08:14:51Z</time>
      </trkpt>
      <trkpt lat="43.85913" lon="6.55566">
        <ele>801</ele>
        <time>2018-05-28T08:14:55Z</time>
      </trkpt>
      <trkpt lat="43.85956" lon="6.55583">
        <ele>798</ele>
        <time>2018-05-28T08:15:05Z</time>
      </trkpt>
      <trkpt lat="43.85982" lon="6.55611">
        <ele>799</ele>
        <time>2018-05-28T08:15:12Z</time>
      </trkpt>
      <trkpt lat="43.85985" lon="6.55616">
        <ele>799</ele>
        <time>2018-05-28T08:15:13Z</time>
      </trkpt>
      <trkpt lat="43.85994" lon="6.55631">
        <ele>801</ele>
        <time>2018-05-28T08:15:16Z</time>
      </trkpt>
      <trkpt lat="43.85996" lon="6.55636">
        <ele>801</ele>
        <time>2018-05-28T08:15:17Z</time>
      </trkpt>
      <trkpt lat="43.85999" lon="6.55642">
        <ele>802</ele>
        <time>2018-05-28T08:15:18Z</time>
      </trkpt>
      <trkpt lat="43.86004" lon="6.55651">
        <ele>801</ele>
        <time>2018-05-28T08:15:20Z</time>
      </trkpt>
      <trkpt lat="43.86007" lon="6.55657">
        <ele>801</ele>
        <time>2018-05-28T08:15:21Z</time>
      </trkpt>
      <trkpt lat="43.8601" lon="6.55661">
        <ele>801</ele>
        <time>2018-05-28T08:15:22Z</time>
      </trkpt>
      <trkpt lat="43.86024" lon="6.55682">
        <ele>801</ele>
        <time>2018-05-28T08:15:27Z</time>
      </trkpt>
      <trkpt lat="43.86046" lon="6.55698">
        <ele>800</ele>
        <time>2018-05-28T08:15:33Z</time>
      </trkpt>
      <trkpt lat="43.86051" lon="6.55699">
        <ele>800</ele>
        <time>2018-05-28T08:15:34Z</time>
      </trkpt>
      <trkpt lat="43.86068" lon="6.55704">
        <ele>797</ele>
        <time>2018-05-28T08:15:38Z</time>
      </trkpt>
      <trkpt lat="43.86073" lon="6.55707">
        <ele>797</ele>
        <time>2018-05-28T08:15:39Z</time>
      </trkpt>
      <trkpt lat="43.86076" lon="6.55711">
        <ele>797</ele>
        <time>2018-05-28T08:15:40Z</time>
      </trkpt>
      <trkpt lat="43.86079" lon="6.55716">
        <ele>797</ele>
        <time>2018-05-28T08:15:41Z</time>
      </trkpt>
      <trkpt lat="43.86082" lon="6.55721">
        <ele>797</ele>
        <time>2018-05-28T08:15:42Z</time>
      </trkpt>
      <trkpt lat="43.86085" lon="6.55726">
        <ele>798</ele>
        <time>2018-05-28T08:15:43Z</time>
      </trkpt>
      <trkpt lat="43.86093" lon="6.55741">
        <ele>800</ele>
        <time>2018-05-28T08:15:46Z</time>
      </trkpt>
      <trkpt lat="43.86096" lon="6.55746">
        <ele>800</ele>
        <time>2018-05-28T08:15:47Z</time>
      </trkpt>
      <trkpt lat="43.86101" lon="6.55749">
        <ele>800</ele>
        <time>2018-05-28T08:15:48Z</time>
      </trkpt>
      <trkpt lat="43.86105" lon="6.55751">
        <ele>800</ele>
        <time>2018-05-28T08:15:49Z</time>
      </trkpt>
      <trkpt lat="43.8611" lon="6.55753">
        <ele>799</ele>
        <time>2018-05-28T08:15:50Z</time>
      </trkpt>
      <trkpt lat="43.86114" lon="6.55754">
        <ele>799</ele>
        <time>2018-05-28T08:15:51Z</time>
      </trkpt>
      <trkpt lat="43.86119" lon="6.55753">
        <ele>799</ele>
        <time>2018-05-28T08:15:52Z</time>
      </trkpt>
      <trkpt lat="43.86124" lon="6.55751">
        <ele>799</ele>
        <time>2018-05-28T08:15:53Z</time>
      </trkpt>
      <trkpt lat="43.86128" lon="6.55749">
        <ele>799</ele>
        <time>2018-05-28T08:15:54Z</time>
      </trkpt>
      <trkpt lat="43.86166" lon="6.55729">
        <ele>798</ele>
        <time>2018-05-28T08:16:03Z</time>
      </trkpt>
      <trkpt lat="43.86171" lon="6.55728">
        <ele>798</ele>
        <time>2018-05-28T08:16:04Z</time>
      </trkpt>
      <trkpt lat="43.86246" lon="6.5574">
        <ele>799</ele>
        <time>2018-05-28T08:16:22Z</time>
      </trkpt>
      <trkpt lat="43.86297" lon="6.55739">
        <ele>797</ele>
        <time>2018-05-28T08:16:35Z</time>
      </trkpt>
      <trkpt lat="43.86322" lon="6.55768">
        <ele>797</ele>
        <time>2018-05-28T08:16:47Z</time>
      </trkpt>
      <trkpt lat="43.86324" lon="6.55779">
        <ele>798</ele>
        <time>2018-05-28T08:16:51Z</time>
      </trkpt>
      <trkpt lat="43.86326" lon="6.55808">
        <ele>801</ele>
        <time>2018-05-28T08:17:02Z</time>
      </trkpt>
      <trkpt lat="43.86326" lon="6.5581">
        <ele>801</ele>
        <time>2018-05-28T08:17:03Z</time>
      </trkpt>
      <trkpt lat="43.86325" lon="6.55811">
        <ele>801</ele>
        <time>2018-05-28T08:17:04Z</time>
      </trkpt>
      <trkpt lat="43.86325" lon="6.55813">
        <ele>802</ele>
        <time>2018-05-28T08:17:05Z</time>
      </trkpt>
      <trkpt lat="43.86325" lon="6.55816">
        <ele>802</ele>
        <time>2018-05-28T08:17:06Z</time>
      </trkpt>
      <trkpt lat="43.86325" lon="6.55818">
        <ele>802</ele>
        <time>2018-05-28T08:17:07Z</time>
      </trkpt>
      <trkpt lat="43.86324" lon="6.5582">
        <ele>803</ele>
        <time>2018-05-28T08:17:08Z</time>
      </trkpt>
      <trkpt lat="43.86324" lon="6.55822">
        <ele>803</ele>
        <time>2018-05-28T08:17:09Z</time>
      </trkpt>
      <trkpt lat="43.86324" lon="6.55824">
        <ele>804</ele>
        <time>2018-05-28T08:17:10Z</time>
      </trkpt>
      <trkpt lat="43.86324" lon="6.55826">
        <ele>804</ele>
        <time>2018-05-28T08:17:11Z</time>
      </trkpt>
      <trkpt lat="43.86323" lon="6.55863">
        <ele>809</ele>
        <time>2018-05-28T08:17:28Z</time>
      </trkpt>
      <trkpt lat="43.86324" lon="6.55892">
        <ele>810</ele>
        <time>2018-05-28T08:17:43Z</time>
      </trkpt>
      <trkpt lat="43.86326" lon="6.55918">
        <ele>808</ele>
        <time>2018-05-28T08:17:56Z</time>
      </trkpt>
      <trkpt lat="43.86328" lon="6.55961">
        <ele>808</ele>
        <time>2018-05-28T08:18:16Z</time>
      </trkpt>
      <trkpt lat="43.86325" lon="6.55991">
        <ele>810</ele>
        <time>2018-05-28T08:18:30Z</time>
      </trkpt>
      <trkpt lat="43.86322" lon="6.56027">
        <ele>815</ele>
        <time>2018-05-28T08:18:47Z</time>
      </trkpt>
      <trkpt lat="43.86323" lon="6.56064">
        <ele>817</ele>
        <time>2018-05-28T08:19:04Z</time>
      </trkpt>
      <trkpt lat="43.86324" lon="6.56096">
        <ele>821</ele>
        <time>2018-05-28T08:19:18Z</time>
      </trkpt>
      <trkpt lat="43.86329" lon="6.56147">
        <ele>825</ele>
        <time>2018-05-28T08:19:39Z</time>
      </trkpt>
      <trkpt lat="43.86333" lon="6.56184">
        <ele>826</ele>
        <time>2018-05-28T08:19:54Z</time>
      </trkpt>
      <trkpt lat="43.86342" lon="6.56227">
        <ele>822</ele>
        <time>2018-05-28T08:20:12Z</time>
      </trkpt>
      <trkpt lat="43.86357" lon="6.56273">
        <ele>816</ele>
        <time>2018-05-28T08:20:31Z</time>
      </trkpt>
      <trkpt lat="43.86363" lon="6.56315">
        <ele>817</ele>
        <time>2018-05-28T08:20:48Z</time>
      </trkpt>
      <trkpt lat="43.8637" lon="6.56355">
        <ele>820</ele>
        <time>2018-05-28T08:21:06Z</time>
      </trkpt>
      <trkpt lat="43.86368" lon="6.56363">
        <ele>821</ele>
        <time>2018-05-28T08:21:10Z</time>
      </trkpt>
      <trkpt lat="43.86348" lon="6.56392">
        <ele>828</ele>
        <time>2018-05-28T08:21:27Z</time>
      </trkpt>
      <trkpt lat="43.86337" lon="6.56422">
        <ele>835</ele>
        <time>2018-05-28T08:21:42Z</time>
      </trkpt>
      <trkpt lat="43.86336" lon="6.56462">
        <ele>837</ele>
        <time>2018-05-28T08:21:59Z</time>
      </trkpt>
      <trkpt lat="43.86338" lon="6.56499">
        <ele>836</ele>
        <time>2018-05-28T08:22:14Z</time>
      </trkpt>
      <trkpt lat="43.86334" lon="6.56532">
        <ele>839</ele>
        <time>2018-05-28T08:22:28Z</time>
      </trkpt>
      <trkpt lat="43.86318" lon="6.56568">
        <ele>844</ele>
        <time>2018-05-28T08:22:44Z</time>
      </trkpt>
      <trkpt lat="43.86315" lon="6.56575">
        <ele>844</ele>
        <time>2018-05-28T08:22:47Z</time>
      </trkpt>
      <trkpt lat="43.86315" lon="6.56577">
        <ele>844</ele>
        <time>2018-05-28T08:22:48Z</time>
      </trkpt>
      <trkpt lat="43.86315" lon="6.5658">
        <ele>844</ele>
        <time>2018-05-28T08:22:49Z</time>
      </trkpt>
      <trkpt lat="43.86314" lon="6.56582">
        <ele>844</ele>
        <time>2018-05-28T08:22:50Z</time>
      </trkpt>
      <trkpt lat="43.86314" lon="6.56584">
        <ele>844</ele>
        <time>2018-05-28T08:22:51Z</time>
      </trkpt>
      <trkpt lat="43.86315" lon="6.56586">
        <ele>844</ele>
        <time>2018-05-28T08:22:52Z</time>
      </trkpt>
      <trkpt lat="43.86315" lon="6.56589">
        <ele>843</ele>
        <time>2018-05-28T08:22:53Z</time>
      </trkpt>
      <trkpt lat="43.86316" lon="6.56591">
        <ele>843</ele>
        <time>2018-05-28T08:22:54Z</time>
      </trkpt>
      <trkpt lat="43.86317" lon="6.56592">
        <ele>843</ele>
        <time>2018-05-28T08:22:55Z</time>
      </trkpt>
      <trkpt lat="43.86318" lon="6.56594">
        <ele>843</ele>
        <time>2018-05-28T08:22:56Z</time>
      </trkpt>
      <trkpt lat="43.8632" lon="6.56596">
        <ele>842</ele>
        <time>2018-05-28T08:22:57Z</time>
      </trkpt>
      <trkpt lat="43.86321" lon="6.56597">
        <ele>842</ele>
        <time>2018-05-28T08:22:58Z</time>
      </trkpt>
      <trkpt lat="43.86323" lon="6.56599">
        <ele>842</ele>
        <time>2018-05-28T08:22:59Z</time>
      </trkpt>
      <trkpt lat="43.86324" lon="6.566">
        <ele>842</ele>
        <time>2018-05-28T08:23:00Z</time>
      </trkpt>
      <trkpt lat="43.86326" lon="6.56602">
        <ele>842</ele>
        <time>2018-05-28T08:23:01Z</time>
      </trkpt>
      <trkpt lat="43.86327" lon="6.56603">
        <ele>841</ele>
        <time>2018-05-28T08:23:02Z</time>
      </trkpt>
      <trkpt lat="43.86348" lon="6.56621">
        <ele>842</ele>
        <time>2018-05-28T08:23:15Z</time>
      </trkpt>
      <trkpt lat="43.86369" lon="6.56625">
        <ele>846</ele>
        <time>2018-05-28T08:23:29Z</time>
      </trkpt>
      <trkpt lat="43.86375" lon="6.56624">
        <ele>847</ele>
        <time>2018-05-28T08:23:33Z</time>
      </trkpt>
      <trkpt lat="43.86377" lon="6.56623">
        <ele>847</ele>
        <time>2018-05-28T08:23:34Z</time>
      </trkpt>
      <trkpt lat="43.86379" lon="6.56622">
        <ele>847</ele>
        <time>2018-05-28T08:23:35Z</time>
      </trkpt>
      <trkpt lat="43.86383" lon="6.56617">
        <ele>848</ele>
        <time>2018-05-28T08:23:38Z</time>
      </trkpt>
      <trkpt lat="43.86384" lon="6.56615">
        <ele>847</ele>
        <time>2018-05-28T08:23:39Z</time>
      </trkpt>
      <trkpt lat="43.86384" lon="6.56613">
        <ele>847</ele>
        <time>2018-05-28T08:23:40Z</time>
      </trkpt>
      <trkpt lat="43.86385" lon="6.56611">
        <ele>847</ele>
        <time>2018-05-28T08:23:41Z</time>
      </trkpt>
      <trkpt lat="43.86386" lon="6.56609">
        <ele>847</ele>
        <time>2018-05-28T08:23:42Z</time>
      </trkpt>
      <trkpt lat="43.864" lon="6.56581">
        <ele>847</ele>
        <time>2018-05-28T08:23:57Z</time>
      </trkpt>
      <trkpt lat="43.86418" lon="6.56558">
        <ele>850</ele>
        <time>2018-05-28T08:24:12Z</time>
      </trkpt>
      <trkpt lat="43.86435" lon="6.56543">
        <ele>856</ele>
        <time>2018-05-28T08:24:25Z</time>
      </trkpt>
      <trkpt lat="43.86444" lon="6.56525">
        <ele>859</ele>
        <time>2018-05-28T08:24:36Z</time>
      </trkpt>
      <trkpt lat="43.86444" lon="6.56523">
        <ele>859</ele>
        <time>2018-05-28T08:24:37Z</time>
      </trkpt>
      <trkpt lat="43.86443" lon="6.56521">
        <ele>859</ele>
        <time>2018-05-28T08:24:38Z</time>
      </trkpt>
      <trkpt lat="43.86442" lon="6.56519">
        <ele>858</ele>
        <time>2018-05-28T08:24:39Z</time>
      </trkpt>
      <trkpt lat="43.86442" lon="6.56517">
        <ele>858</ele>
        <time>2018-05-28T08:24:40Z</time>
      </trkpt>
      <trkpt lat="43.86442" lon="6.56514">
        <ele>858</ele>
        <time>2018-05-28T08:24:41Z</time>
      </trkpt>
      <trkpt lat="43.8644" lon="6.56473">
        <ele>853</ele>
        <time>2018-05-28T08:24:59Z</time>
      </trkpt>
      <trkpt lat="43.8645" lon="6.56454">
        <ele>856</ele>
        <time>2018-05-28T08:25:09Z</time>
      </trkpt>
      <trkpt lat="43.86452" lon="6.56453">
        <ele>856</ele>
        <time>2018-05-28T08:25:10Z</time>
      </trkpt>
      <trkpt lat="43.86454" lon="6.56453">
        <ele>858</ele>
        <time>2018-05-28T08:25:11Z</time>
      </trkpt>
      <trkpt lat="43.86455" lon="6.56452">
        <ele>859</ele>
        <time>2018-05-28T08:25:12Z</time>
      </trkpt>
      <trkpt lat="43.86457" lon="6.56452">
        <ele>860</ele>
        <time>2018-05-28T08:25:13Z</time>
      </trkpt>
      <trkpt lat="43.86459" lon="6.56451">
        <ele>861</ele>
        <time>2018-05-28T08:25:14Z</time>
      </trkpt>
      <trkpt lat="43.8648" lon="6.56432">
        <ele>872</ele>
        <time>2018-05-28T08:25:30Z</time>
      </trkpt>
      <trkpt lat="43.86492" lon="6.56403">
        <ele>872</ele>
        <time>2018-05-28T08:25:45Z</time>
      </trkpt>
      <trkpt lat="43.865" lon="6.56371">
        <ele>870</ele>
        <time>2018-05-28T08:25:59Z</time>
      </trkpt>
      <trkpt lat="43.86501" lon="6.56337">
        <ele>867</ele>
        <time>2018-05-28T08:26:13Z</time>
      </trkpt>
      <trkpt lat="43.86502" lon="6.56305">
        <ele>865</ele>
        <time>2018-05-28T08:26:25Z</time>
      </trkpt>
      <trkpt lat="43.86503" lon="6.56303">
        <ele>866</ele>
        <time>2018-05-28T08:26:26Z</time>
      </trkpt>
      <trkpt lat="43.86505" lon="6.56301">
        <ele>866</ele>
        <time>2018-05-28T08:26:27Z</time>
      </trkpt>
      <trkpt lat="43.86506" lon="6.56298">
        <ele>867</ele>
        <time>2018-05-28T08:26:28Z</time>
      </trkpt>
      <trkpt lat="43.86507" lon="6.56295">
        <ele>867</ele>
        <time>2018-05-28T08:26:29Z</time>
      </trkpt>
      <trkpt lat="43.86508" lon="6.56293">
        <ele>868</ele>
        <time>2018-05-28T08:26:30Z</time>
      </trkpt>
      <trkpt lat="43.86509" lon="6.56292">
        <ele>869</ele>
        <time>2018-05-28T08:26:31Z</time>
      </trkpt>
      <trkpt lat="43.86519" lon="6.56257">
        <ele>872</ele>
        <time>2018-05-28T08:26:46Z</time>
      </trkpt>
      <trkpt lat="43.86518" lon="6.56254">
        <ele>872</ele>
        <time>2018-05-28T08:26:47Z</time>
      </trkpt>
      <trkpt lat="43.86517" lon="6.56247">
        <ele>871</ele>
        <time>2018-05-28T08:26:50Z</time>
      </trkpt>
      <trkpt lat="43.86517" lon="6.56245">
        <ele>871</ele>
        <time>2018-05-28T08:26:51Z</time>
      </trkpt>
      <trkpt lat="43.86517" lon="6.56242">
        <ele>871</ele>
        <time>2018-05-28T08:26:52Z</time>
      </trkpt>
      <trkpt lat="43.86517" lon="6.56239">
        <ele>871</ele>
        <time>2018-05-28T08:26:53Z</time>
      </trkpt>
      <trkpt lat="43.86517" lon="6.56236">
        <ele>871</ele>
        <time>2018-05-28T08:26:54Z</time>
      </trkpt>
      <trkpt lat="43.86515" lon="6.56195">
        <ele>871</ele>
        <time>2018-05-28T08:27:08Z</time>
      </trkpt>
      <trkpt lat="43.86532" lon="6.56161">
        <ele>874</ele>
        <time>2018-05-28T08:27:23Z</time>
      </trkpt>
      <trkpt lat="43.86554" lon="6.56142">
        <ele>876</ele>
        <time>2018-05-28T08:27:37Z</time>
      </trkpt>
      <trkpt lat="43.86582" lon="6.56144">
        <ele>878</ele>
        <time>2018-05-28T08:27:54Z</time>
      </trkpt>
      <trkpt lat="43.86608" lon="6.56152">
        <ele>881</ele>
        <time>2018-05-28T08:28:10Z</time>
      </trkpt>
      <trkpt lat="43.86629" lon="6.56156">
        <ele>884</ele>
        <time>2018-05-28T08:28:23Z</time>
      </trkpt>
      <trkpt lat="43.86639" lon="6.56128">
        <ele>882</ele>
        <time>2018-05-28T08:28:36Z</time>
      </trkpt>
      <trkpt lat="43.86638" lon="6.5612">
        <ele>882</ele>
        <time>2018-05-28T08:28:40Z</time>
      </trkpt>
      <trkpt lat="43.86638" lon="6.56118">
        <ele>882</ele>
        <time>2018-05-28T08:28:41Z</time>
      </trkpt>
      <trkpt lat="43.86638" lon="6.56116">
        <ele>882</ele>
        <time>2018-05-28T08:28:42Z</time>
      </trkpt>
      <trkpt lat="43.86638" lon="6.56114">
        <ele>882</ele>
        <time>2018-05-28T08:28:43Z</time>
      </trkpt>
      <trkpt lat="43.86638" lon="6.56111">
        <ele>883</ele>
        <time>2018-05-28T08:28:44Z</time>
      </trkpt>
      <trkpt lat="43.86649" lon="6.56077">
        <ele>886</ele>
        <time>2018-05-28T08:29:00Z</time>
      </trkpt>
      <trkpt lat="43.86671" lon="6.56057">
        <ele>889</ele>
        <time>2018-05-28T08:29:15Z</time>
      </trkpt>
      <trkpt lat="43.86695" lon="6.56036">
        <ele>892</ele>
        <time>2018-05-28T08:29:31Z</time>
      </trkpt>
      <trkpt lat="43.86718" lon="6.56028">
        <ele>896</ele>
        <time>2018-05-28T08:29:45Z</time>
      </trkpt>
      <trkpt lat="43.86741" lon="6.56013">
        <ele>899</ele>
        <time>2018-05-28T08:29:59Z</time>
      </trkpt>
      <trkpt lat="43.86753" lon="6.55975">
        <ele>897</ele>
        <time>2018-05-28T08:30:16Z</time>
      </trkpt>
      <trkpt lat="43.86761" lon="6.55948">
        <ele>895</ele>
        <time>2018-05-28T08:30:27Z</time>
      </trkpt>
      <trkpt lat="43.86762" lon="6.55947">
        <ele>895</ele>
        <time>2018-05-28T08:30:28Z</time>
      </trkpt>
      <trkpt lat="43.86788" lon="6.55928">
        <ele>899</ele>
        <time>2018-05-28T08:30:46Z</time>
      </trkpt>
      <trkpt lat="43.86816" lon="6.55914">
        <ele>902</ele>
        <time>2018-05-28T08:31:03Z</time>
      </trkpt>
      <trkpt lat="43.86834" lon="6.5589">
        <ele>902</ele>
        <time>2018-05-28T08:31:17Z</time>
      </trkpt>
      <trkpt lat="43.86855" lon="6.55867">
        <ele>902</ele>
        <time>2018-05-28T08:31:32Z</time>
      </trkpt>
      <trkpt lat="43.86883" lon="6.55857">
        <ele>902</ele>
        <time>2018-05-28T08:31:49Z</time>
      </trkpt>
      <trkpt lat="43.86884" lon="6.55858">
        <ele>902</ele>
        <time>2018-05-28T08:31:50Z</time>
      </trkpt>
      <trkpt lat="43.86885" lon="6.55862">
        <ele>903</ele>
        <time>2018-05-28T08:31:52Z</time>
      </trkpt>
      <trkpt lat="43.86885" lon="6.55864">
        <ele>903</ele>
        <time>2018-05-28T08:31:53Z</time>
      </trkpt>
      <trkpt lat="43.86884" lon="6.55865">
        <ele>903</ele>
        <time>2018-05-28T08:31:54Z</time>
      </trkpt>
      <trkpt lat="43.86883" lon="6.55866">
        <ele>904</ele>
        <time>2018-05-28T08:31:55Z</time>
      </trkpt>
      <trkpt lat="43.86882" lon="6.55867">
        <ele>904</ele>
        <time>2018-05-28T08:31:56Z</time>
      </trkpt>
      <trkpt lat="43.8688" lon="6.55868">
        <ele>904</ele>
        <time>2018-05-28T08:31:57Z</time>
      </trkpt>
      <trkpt lat="43.86865" lon="6.55891">
        <ele>907</ele>
        <time>2018-05-28T08:32:13Z</time>
      </trkpt>
      <trkpt lat="43.86864" lon="6.55899">
        <ele>908</ele>
        <time>2018-05-28T08:32:19Z</time>
      </trkpt>
      <trkpt lat="43.86865" lon="6.55896">
        <ele>908</ele>
        <time>2018-05-28T08:32:20Z</time>
      </trkpt>
      <trkpt lat="43.86865" lon="6.55895">
        <ele>908</ele>
        <time>2018-05-28T08:32:21Z</time>
      </trkpt>
      <trkpt lat="43.86878" lon="6.55875">
        <ele>906</ele>
        <time>2018-05-28T08:32:27Z</time>
      </trkpt>
      <trkpt lat="43.86882" lon="6.55871">
        <ele>905</ele>
        <time>2018-05-28T08:32:28Z</time>
      </trkpt>
      <trkpt lat="43.86884" lon="6.55867">
        <ele>904</ele>
        <time>2018-05-28T08:32:29Z</time>
      </trkpt>
      <trkpt lat="43.86886" lon="6.55863">
        <ele>903</ele>
        <time>2018-05-28T08:32:30Z</time>
      </trkpt>
      <trkpt lat="43.86886" lon="6.5586">
        <ele>902</ele>
        <time>2018-05-28T08:32:31Z</time>
      </trkpt>
      <trkpt lat="43.86885" lon="6.55858">
        <ele>902</ele>
        <time>2018-05-28T08:32:32Z</time>
      </trkpt>
      <trkpt lat="43.86885" lon="6.55853">
        <ele>901</ele>
        <time>2018-05-28T08:32:36Z</time>
      </trkpt>
      <trkpt lat="43.86886" lon="6.55853">
        <ele>901</ele>
        <time>2018-05-28T08:32:37Z</time>
      </trkpt>
      <trkpt lat="43.86887" lon="6.55854">
        <ele>901</ele>
        <time>2018-05-28T08:32:38Z</time>
      </trkpt>
      <trkpt lat="43.86887" lon="6.55855">
        <ele>901</ele>
        <time>2018-05-28T08:32:39Z</time>
      </trkpt>
      <trkpt lat="43.86887" lon="6.55856">
        <ele>901</ele>
        <time>2018-05-28T08:32:40Z</time>
      </trkpt>
      <trkpt lat="43.86886" lon="6.55858">
        <ele>902</ele>
        <time>2018-05-28T08:32:41Z</time>
      </trkpt>
      <trkpt lat="43.86886" lon="6.5586">
        <ele>902</ele>
        <time>2018-05-28T08:32:42Z</time>
      </trkpt>
      <trkpt lat="43.86885" lon="6.55863">
        <ele>903</ele>
        <time>2018-05-28T08:32:43Z</time>
      </trkpt>
      <trkpt lat="43.86885" lon="6.55865">
        <ele>903</ele>
        <time>2018-05-28T08:32:44Z</time>
      </trkpt>
      <trkpt lat="43.86884" lon="6.55867">
        <ele>904</ele>
        <time>2018-05-28T08:32:45Z</time>
      </trkpt>
      <trkpt lat="43.86883" lon="6.55868">
        <ele>904</ele>
        <time>2018-05-28T08:32:46Z</time>
      </trkpt>
      <trkpt lat="43.86882" lon="6.5587">
        <ele>904</ele>
        <time>2018-05-28T08:32:47Z</time>
      </trkpt>
      <trkpt lat="43.86881" lon="6.5587">
        <ele>905</ele>
        <time>2018-05-28T08:32:48Z</time>
      </trkpt>
      <trkpt lat="43.8688" lon="6.55871">
        <ele>905</ele>
        <time>2018-05-28T08:32:49Z</time>
      </trkpt>
      <trkpt lat="43.86878" lon="6.55872">
        <ele>905</ele>
        <time>2018-05-28T08:32:50Z</time>
      </trkpt>
      <trkpt lat="43.86877" lon="6.55874">
        <ele>905</ele>
        <time>2018-05-28T08:32:51Z</time>
      </trkpt>
      <trkpt lat="43.86876" lon="6.55875">
        <ele>906</ele>
        <time>2018-05-28T08:32:52Z</time>
      </trkpt>
      <trkpt lat="43.86875" lon="6.55876">
        <ele>906</ele>
        <time>2018-05-28T08:32:53Z</time>
      </trkpt>
      <trkpt lat="43.86874" lon="6.55878">
        <ele>906</ele>
        <time>2018-05-28T08:32:54Z</time>
      </trkpt>
      <trkpt lat="43.86862" lon="6.55902">
        <ele>908</ele>
        <time>2018-05-28T08:33:07Z</time>
      </trkpt>
      <trkpt lat="43.86851" lon="6.5594">
        <ele>911</ele>
        <time>2018-05-28T08:33:23Z</time>
      </trkpt>
      <trkpt lat="43.86845" lon="6.5596">
        <ele>913</ele>
        <time>2018-05-28T08:33:33Z</time>
      </trkpt>
      <trkpt lat="43.86834" lon="6.55996">
        <ele>917</ele>
        <time>2018-05-28T08:33:51Z</time>
      </trkpt>
      <trkpt lat="43.86824" lon="6.56023">
        <ele>919</ele>
        <time>2018-05-28T08:34:08Z</time>
      </trkpt>
      <trkpt lat="43.86824" lon="6.56025">
        <ele>919</ele>
        <time>2018-05-28T08:34:09Z</time>
      </trkpt>
      <trkpt lat="43.86823" lon="6.56027">
        <ele>920</ele>
        <time>2018-05-28T08:34:10Z</time>
      </trkpt>
      <trkpt lat="43.86823" lon="6.56029">
        <ele>920</ele>
        <time>2018-05-28T08:34:11Z</time>
      </trkpt>
      <trkpt lat="43.86822" lon="6.56031">
        <ele>920</ele>
        <time>2018-05-28T08:34:12Z</time>
      </trkpt>
      <trkpt lat="43.86822" lon="6.56033">
        <ele>920</ele>
        <time>2018-05-28T08:34:13Z</time>
      </trkpt>
      <trkpt lat="43.86822" lon="6.56035">
        <ele>920</ele>
        <time>2018-05-28T08:34:14Z</time>
      </trkpt>
      <trkpt lat="43.86816" lon="6.56062">
        <ele>922</ele>
        <time>2018-05-28T08:34:28Z</time>
      </trkpt>
      <trkpt lat="43.86804" lon="6.56089">
        <ele>923</ele>
        <time>2018-05-28T08:34:43Z</time>
      </trkpt>
      <trkpt lat="43.86791" lon="6.56118">
        <ele>924</ele>
        <time>2018-05-28T08:34:59Z</time>
      </trkpt>
      <trkpt lat="43.86784" lon="6.56138">
        <ele>926</ele>
        <time>2018-05-28T08:35:10Z</time>
      </trkpt>
      <trkpt lat="43.86784" lon="6.5614">
        <ele>926</ele>
        <time>2018-05-28T08:35:11Z</time>
      </trkpt>
      <trkpt lat="43.86783" lon="6.56142">
        <ele>926</ele>
        <time>2018-05-28T08:35:12Z</time>
      </trkpt>
      <trkpt lat="43.86783" lon="6.56143">
        <ele>926</ele>
        <time>2018-05-28T08:35:13Z</time>
      </trkpt>
      <trkpt lat="43.86783" lon="6.56145">
        <ele>927</ele>
        <time>2018-05-28T08:35:14Z</time>
      </trkpt>
      <trkpt lat="43.86783" lon="6.56147">
        <ele>927</ele>
        <time>2018-05-28T08:35:15Z</time>
      </trkpt>
      <trkpt lat="43.86782" lon="6.56149">
        <ele>927</ele>
        <time>2018-05-28T08:35:16Z</time>
      </trkpt>
      <trkpt lat="43.86782" lon="6.56151">
        <ele>927</ele>
        <time>2018-05-28T08:35:17Z</time>
      </trkpt>
      <trkpt lat="43.86779" lon="6.56185">
        <ele>930</ele>
        <time>2018-05-28T08:35:35Z</time>
      </trkpt>
      <trkpt lat="43.86781" lon="6.56216">
        <ele>933</ele>
        <time>2018-05-28T08:35:50Z</time>
      </trkpt>
      <trkpt lat="43.86781" lon="6.56218">
        <ele>933</ele>
        <time>2018-05-28T08:35:51Z</time>
      </trkpt>
      <trkpt lat="43.86781" lon="6.56253">
        <ele>936</ele>
        <time>2018-05-28T08:36:08Z</time>
      </trkpt>
      <trkpt lat="43.8678" lon="6.56282">
        <ele>937</ele>
        <time>2018-05-28T08:36:22Z</time>
      </trkpt>
      <trkpt lat="43.86773" lon="6.56308">
        <ele>938</ele>
        <time>2018-05-28T08:36:36Z</time>
      </trkpt>
      <trkpt lat="43.86771" lon="6.56316">
        <ele>938</ele>
        <time>2018-05-28T08:36:40Z</time>
      </trkpt>
      <trkpt lat="43.8677" lon="6.56318">
        <ele>938</ele>
        <time>2018-05-28T08:36:41Z</time>
      </trkpt>
      <trkpt lat="43.86765" lon="6.56354">
        <ele>940</ele>
        <time>2018-05-28T08:36:58Z</time>
      </trkpt>
      <trkpt lat="43.86763" lon="6.56383">
        <ele>944</ele>
        <time>2018-05-28T08:37:12Z</time>
      </trkpt>
      <trkpt lat="43.86749" lon="6.56413">
        <ele>947</ele>
        <time>2018-05-28T08:37:29Z</time>
      </trkpt>
      <trkpt lat="43.86748" lon="6.56415">
        <ele>947</ele>
        <time>2018-05-28T08:37:30Z</time>
      </trkpt>
      <trkpt lat="43.86747" lon="6.56416">
        <ele>948</ele>
        <time>2018-05-28T08:37:31Z</time>
      </trkpt>
      <trkpt lat="43.86746" lon="6.56418">
        <ele>948</ele>
        <time>2018-05-28T08:37:32Z</time>
      </trkpt>
      <trkpt lat="43.86744" lon="6.5642">
        <ele>948</ele>
        <time>2018-05-28T08:37:33Z</time>
      </trkpt>
      <trkpt lat="43.86742" lon="6.5642">
        <ele>948</ele>
        <time>2018-05-28T08:37:34Z</time>
      </trkpt>
      <trkpt lat="43.86741" lon="6.56421">
        <ele>948</ele>
        <time>2018-05-28T08:37:35Z</time>
      </trkpt>
      <trkpt lat="43.86736" lon="6.56425">
        <ele>948</ele>
        <time>2018-05-28T08:37:38Z</time>
      </trkpt>
      <trkpt lat="43.86711" lon="6.56433">
        <ele>948</ele>
        <time>2018-05-28T08:37:54Z</time>
      </trkpt>
      <trkpt lat="43.86685" lon="6.56445">
        <ele>949</ele>
        <time>2018-05-28T08:38:12Z</time>
      </trkpt>
      <trkpt lat="43.86658" lon="6.56448">
        <ele>948</ele>
        <time>2018-05-28T08:38:29Z</time>
      </trkpt>
      <trkpt lat="43.86634" lon="6.5644">
        <ele>944</ele>
        <time>2018-05-28T08:38:44Z</time>
      </trkpt>
      <trkpt lat="43.86615" lon="6.56451">
        <ele>942</ele>
        <time>2018-05-28T08:38:59Z</time>
      </trkpt>
      <trkpt lat="43.86622" lon="6.56463">
        <ele>947</ele>
        <time>2018-05-28T08:39:10Z</time>
      </trkpt>
      <trkpt lat="43.86623" lon="6.56463">
        <ele>948</ele>
        <time>2018-05-28T08:39:11Z</time>
      </trkpt>
      <trkpt lat="43.86632" lon="6.56462">
        <ele>950</ele>
        <time>2018-05-28T08:39:19Z</time>
      </trkpt>
      <trkpt lat="43.86635" lon="6.56462">
        <ele>950</ele>
        <time>2018-05-28T08:39:21Z</time>
      </trkpt>
      <trkpt lat="43.86656" lon="6.56469">
        <ele>954</ele>
        <time>2018-05-28T08:39:36Z</time>
      </trkpt>
      <trkpt lat="43.86682" lon="6.56478">
        <ele>959</ele>
        <time>2018-05-28T08:39:54Z</time>
      </trkpt>
      <trkpt lat="43.86704" lon="6.56479">
        <ele>960</ele>
        <time>2018-05-28T08:40:09Z</time>
      </trkpt>
      <trkpt lat="43.86726" lon="6.56487">
        <ele>963</ele>
        <time>2018-05-28T08:40:25Z</time>
      </trkpt>
      <trkpt lat="43.86749" lon="6.56484">
        <ele>965</ele>
        <time>2018-05-28T08:40:41Z</time>
      </trkpt>
      <trkpt lat="43.86771" lon="6.56487">
        <ele>967</ele>
        <time>2018-05-28T08:40:56Z</time>
      </trkpt>
      <trkpt lat="43.86788" lon="6.5649">
        <ele>970</ele>
        <time>2018-05-28T08:41:08Z</time>
      </trkpt>
      <trkpt lat="43.86789" lon="6.56491">
        <ele>970</ele>
        <time>2018-05-28T08:41:09Z</time>
      </trkpt>
      <trkpt lat="43.8679" lon="6.56491">
        <ele>970</ele>
        <time>2018-05-28T08:41:10Z</time>
      </trkpt>
      <trkpt lat="43.86811" lon="6.56493">
        <ele>974</ele>
        <time>2018-05-28T08:41:25Z</time>
      </trkpt>
      <trkpt lat="43.86826" lon="6.56475">
        <ele>972</ele>
        <time>2018-05-28T08:41:40Z</time>
      </trkpt>
      <trkpt lat="43.86841" lon="6.56447">
        <ele>972</ele>
        <time>2018-05-28T08:41:56Z</time>
      </trkpt>
      <trkpt lat="43.86854" lon="6.5642">
        <ele>973</ele>
        <time>2018-05-28T08:42:10Z</time>
      </trkpt>
      <trkpt lat="43.86873" lon="6.56398">
        <ele>977</ele>
        <time>2018-05-28T08:42:26Z</time>
      </trkpt>
      <trkpt lat="43.86885" lon="6.5638">
        <ele>979</ele>
        <time>2018-05-28T08:42:40Z</time>
      </trkpt>
      <trkpt lat="43.86894" lon="6.56349">
        <ele>978</ele>
        <time>2018-05-28T08:42:57Z</time>
      </trkpt>
      <trkpt lat="43.86904" lon="6.5632">
        <ele>978</ele>
        <time>2018-05-28T08:43:14Z</time>
      </trkpt>
      <trkpt lat="43.86919" lon="6.56299">
        <ele>979</ele>
        <time>2018-05-28T08:43:29Z</time>
      </trkpt>
      <trkpt lat="43.86934" lon="6.56283">
        <ele>981</ele>
        <time>2018-05-28T08:43:44Z</time>
      </trkpt>
      <trkpt lat="43.86944" lon="6.56276">
        <ele>983</ele>
        <time>2018-05-28T08:43:53Z</time>
      </trkpt>
      <trkpt lat="43.86945" lon="6.56275">
        <ele>983</ele>
        <time>2018-05-28T08:43:54Z</time>
      </trkpt>
      <trkpt lat="43.86948" lon="6.56273">
        <ele>984</ele>
        <time>2018-05-28T08:43:57Z</time>
      </trkpt>
      <trkpt lat="43.86949" lon="6.56272">
        <ele>984</ele>
        <time>2018-05-28T08:43:58Z</time>
      </trkpt>
      <trkpt lat="43.86951" lon="6.56272">
        <ele>984</ele>
        <time>2018-05-28T08:43:59Z</time>
      </trkpt>
      <trkpt lat="43.86972" lon="6.56265">
        <ele>987</ele>
        <time>2018-05-28T08:44:14Z</time>
      </trkpt>
      <trkpt lat="43.86997" lon="6.56249">
        <ele>986</ele>
        <time>2018-05-28T08:44:30Z</time>
      </trkpt>
      <trkpt lat="43.8701" lon="6.56241">
        <ele>982</ele>
        <time>2018-05-28T08:44:38Z</time>
      </trkpt>
      <trkpt lat="43.87011" lon="6.56242">
        <ele>982</ele>
        <time>2018-05-28T08:44:39Z</time>
      </trkpt>
      <trkpt lat="43.87013" lon="6.56244">
        <ele>982</ele>
        <time>2018-05-28T08:44:40Z</time>
      </trkpt>
      <trkpt lat="43.87014" lon="6.56246">
        <ele>983</ele>
        <time>2018-05-28T08:44:41Z</time>
      </trkpt>
      <trkpt lat="43.87014" lon="6.56249">
        <ele>984</ele>
        <time>2018-05-28T08:44:42Z</time>
      </trkpt>
      <trkpt lat="43.87014" lon="6.56251">
        <ele>984</ele>
        <time>2018-05-28T08:44:43Z</time>
      </trkpt>
      <trkpt lat="43.87013" lon="6.56254">
        <ele>985</ele>
        <time>2018-05-28T08:44:44Z</time>
      </trkpt>
      <trkpt lat="43.86997" lon="6.5627">
        <ele>991</ele>
        <time>2018-05-28T08:44:57Z</time>
      </trkpt>
      <trkpt lat="43.86977" lon="6.56286">
        <ele>992</ele>
        <time>2018-05-28T08:45:12Z</time>
      </trkpt>
      <trkpt lat="43.86972" lon="6.56292">
        <ele>992</ele>
        <time>2018-05-28T08:45:17Z</time>
      </trkpt>
      <trkpt lat="43.86969" lon="6.56294">
        <ele>992</ele>
        <time>2018-05-28T08:45:19Z</time>
      </trkpt>
      <trkpt lat="43.86968" lon="6.56295">
        <ele>992</ele>
        <time>2018-05-28T08:45:20Z</time>
      </trkpt>
      <trkpt lat="43.86955" lon="6.56319">
        <ele>993</ele>
        <time>2018-05-28T08:45:35Z</time>
      </trkpt>
      <trkpt lat="43.86945" lon="6.56343">
        <ele>995</ele>
        <time>2018-05-28T08:45:49Z</time>
      </trkpt>
      <trkpt lat="43.8694" lon="6.56358">
        <ele>996</ele>
        <time>2018-05-28T08:45:56Z</time>
      </trkpt>
      <trkpt lat="43.86931" lon="6.56397">
        <ele>1000</ele>
        <time>2018-05-28T08:46:14Z</time>
      </trkpt>
      <trkpt lat="43.86931" lon="6.56399">
        <ele>1000</ele>
        <time>2018-05-28T08:46:15Z</time>
      </trkpt>
      <trkpt lat="43.86931" lon="6.56402">
        <ele>1000</ele>
        <time>2018-05-28T08:46:16Z</time>
      </trkpt>
      <trkpt lat="43.86931" lon="6.56404">
        <ele>1000</ele>
        <time>2018-05-28T08:46:17Z</time>
      </trkpt>
      <trkpt lat="43.8693" lon="6.56406">
        <ele>1001</ele>
        <time>2018-05-28T08:46:18Z</time>
      </trkpt>
      <trkpt lat="43.86924" lon="6.56436">
        <ele>1001</ele>
        <time>2018-05-28T08:46:30Z</time>
      </trkpt>
      <trkpt lat="43.86924" lon="6.56438">
        <ele>1001</ele>
        <time>2018-05-28T08:46:31Z</time>
      </trkpt>
      <trkpt lat="43.86924" lon="6.5644">
        <ele>1001</ele>
        <time>2018-05-28T08:46:32Z</time>
      </trkpt>
      <trkpt lat="43.86923" lon="6.56443">
        <ele>1001</ele>
        <time>2018-05-28T08:46:33Z</time>
      </trkpt>
      <trkpt lat="43.86923" lon="6.56445">
        <ele>1001</ele>
        <time>2018-05-28T08:46:34Z</time>
      </trkpt>
      <trkpt lat="43.86919" lon="6.56482">
        <ele>1003</ele>
        <time>2018-05-28T08:46:50Z</time>
      </trkpt>
      <trkpt lat="43.86924" lon="6.56515">
        <ele>1009</ele>
        <time>2018-05-28T08:47:06Z</time>
      </trkpt>
      <trkpt lat="43.86922" lon="6.56542">
        <ele>1014</ele>
        <time>2018-05-28T08:47:19Z</time>
      </trkpt>
      <trkpt lat="43.86922" lon="6.56543">
        <ele>1014</ele>
        <time>2018-05-28T08:47:20Z</time>
      </trkpt>
      <trkpt lat="43.86921" lon="6.56545">
        <ele>1014</ele>
        <time>2018-05-28T08:47:21Z</time>
      </trkpt>
      <trkpt lat="43.86921" lon="6.56547">
        <ele>1015</ele>
        <time>2018-05-28T08:47:22Z</time>
      </trkpt>
      <trkpt lat="43.8692" lon="6.56548">
        <ele>1015</ele>
        <time>2018-05-28T08:47:23Z</time>
      </trkpt>
      <trkpt lat="43.86906" lon="6.56564">
        <ele>1015</ele>
        <time>2018-05-28T08:47:34Z</time>
      </trkpt>
      <trkpt lat="43.86884" lon="6.5658">
        <ele>1015</ele>
        <time>2018-05-28T08:47:48Z</time>
      </trkpt>
      <trkpt lat="43.86862" lon="6.56596">
        <ele>1017</ele>
        <time>2018-05-28T08:48:04Z</time>
      </trkpt>
      <trkpt lat="43.86837" lon="6.56613">
        <ele>1018</ele>
        <time>2018-05-28T08:48:20Z</time>
      </trkpt>
      <trkpt lat="43.86829" lon="6.56619">
        <ele>1017</ele>
        <time>2018-05-28T08:48:26Z</time>
      </trkpt>
      <trkpt lat="43.86827" lon="6.5662">
        <ele>1018</ele>
        <time>2018-05-28T08:48:27Z</time>
      </trkpt>
      <trkpt lat="43.86826" lon="6.56621">
        <ele>1017</ele>
        <time>2018-05-28T08:48:28Z</time>
      </trkpt>
      <trkpt lat="43.86804" lon="6.56636">
        <ele>1017</ele>
        <time>2018-05-28T08:48:43Z</time>
      </trkpt>
      <trkpt lat="43.86782" lon="6.56653">
        <ele>1016</ele>
        <time>2018-05-28T08:48:59Z</time>
      </trkpt>
      <trkpt lat="43.86773" lon="6.56662">
        <ele>1015</ele>
        <time>2018-05-28T08:49:07Z</time>
      </trkpt>
      <trkpt lat="43.86772" lon="6.56664">
        <ele>1015</ele>
        <time>2018-05-28T08:49:08Z</time>
      </trkpt>
      <trkpt lat="43.86768" lon="6.56691">
        <ele>1017</ele>
        <time>2018-05-28T08:49:22Z</time>
      </trkpt>
      <trkpt lat="43.86766" lon="6.56721">
        <ele>1020</ele>
        <time>2018-05-28T08:49:35Z</time>
      </trkpt>
      <trkpt lat="43.86766" lon="6.56757">
        <ele>1025</ele>
        <time>2018-05-28T08:49:52Z</time>
      </trkpt>
      <trkpt lat="43.86763" lon="6.56787">
        <ele>1027</ele>
        <time>2018-05-28T08:50:08Z</time>
      </trkpt>
      <trkpt lat="43.86762" lon="6.56796">
        <ele>1028</ele>
        <time>2018-05-28T08:50:13Z</time>
      </trkpt>
      <trkpt lat="43.86762" lon="6.56798">
        <ele>1028</ele>
        <time>2018-05-28T08:50:14Z</time>
      </trkpt>
      <trkpt lat="43.86762" lon="6.56823">
        <ele>1030</ele>
        <time>2018-05-28T08:50:29Z</time>
      </trkpt>
      <trkpt lat="43.86762" lon="6.56846">
        <ele>1032</ele>
        <time>2018-05-28T08:50:43Z</time>
      </trkpt>
      <trkpt lat="43.86765" lon="6.56868">
        <ele>1034</ele>
        <time>2018-05-28T08:50:53Z</time>
      </trkpt>
      <trkpt lat="43.86767" lon="6.56874">
        <ele>1035</ele>
        <time>2018-05-28T08:50:56Z</time>
      </trkpt>
      <trkpt lat="43.86768" lon="6.56876">
        <ele>1035</ele>
        <time>2018-05-28T08:50:57Z</time>
      </trkpt>
      <trkpt lat="43.86768" lon="6.56878">
        <ele>1035</ele>
        <time>2018-05-28T08:50:58Z</time>
      </trkpt>
      <trkpt lat="43.86769" lon="6.5688">
        <ele>1036</ele>
        <time>2018-05-28T08:50:59Z</time>
      </trkpt>
      <trkpt lat="43.86769" lon="6.56882">
        <ele>1036</ele>
        <time>2018-05-28T08:51:00Z</time>
      </trkpt>
      <trkpt lat="43.8677" lon="6.56884">
        <ele>1036</ele>
        <time>2018-05-28T08:51:01Z</time>
      </trkpt>
      <trkpt lat="43.86771" lon="6.56886">
        <ele>1037</ele>
        <time>2018-05-28T08:51:02Z</time>
      </trkpt>
      <trkpt lat="43.86772" lon="6.56888">
        <ele>1037</ele>
        <time>2018-05-28T08:51:03Z</time>
      </trkpt>
      <trkpt lat="43.86772" lon="6.5689">
        <ele>1037</ele>
        <time>2018-05-28T08:51:04Z</time>
      </trkpt>
      <trkpt lat="43.86762" lon="6.56915">
        <ele>1037</ele>
        <time>2018-05-28T08:51:17Z</time>
      </trkpt>
      <trkpt lat="43.86745" lon="6.56937">
        <ele>1033</ele>
        <time>2018-05-28T08:51:31Z</time>
      </trkpt>
      <trkpt lat="43.86747" lon="6.56967">
        <ele>1035</ele>
        <time>2018-05-28T08:51:45Z</time>
      </trkpt>
      <trkpt lat="43.86747" lon="6.5697">
        <ele>1035</ele>
        <time>2018-05-28T08:51:46Z</time>
      </trkpt>
      <trkpt lat="43.86751" lon="6.56991">
        <ele>1036</ele>
        <time>2018-05-28T08:51:56Z</time>
      </trkpt>
      <trkpt lat="43.86752" lon="6.56992">
        <ele>1037</ele>
        <time>2018-05-28T08:51:57Z</time>
      </trkpt>
      <trkpt lat="43.86764" lon="6.57028">
        <ele>1041</ele>
        <time>2018-05-28T08:52:14Z</time>
      </trkpt>
      <trkpt lat="43.86773" lon="6.57062">
        <ele>1044</ele>
        <time>2018-05-28T08:52:30Z</time>
      </trkpt>
      <trkpt lat="43.86783" lon="6.57103">
        <ele>1046</ele>
        <time>2018-05-28T08:52:48Z</time>
      </trkpt>
      <trkpt lat="43.8679" lon="6.57132">
        <ele>1047</ele>
        <time>2018-05-28T08:53:01Z</time>
      </trkpt>
      <trkpt lat="43.86798" lon="6.57165">
        <ele>1049</ele>
        <time>2018-05-28T08:53:16Z</time>
      </trkpt>
      <trkpt lat="43.86808" lon="6.57201">
        <ele>1052</ele>
        <time>2018-05-28T08:53:33Z</time>
      </trkpt>
      <trkpt lat="43.86816" lon="6.57241">
        <ele>1055</ele>
        <time>2018-05-28T08:53:51Z</time>
      </trkpt>
      <trkpt lat="43.86815" lon="6.57246">
        <ele>1055</ele>
        <time>2018-05-28T08:53:53Z</time>
      </trkpt>
      <trkpt lat="43.86815" lon="6.57248">
        <ele>1055</ele>
        <time>2018-05-28T08:53:54Z</time>
      </trkpt>
      <trkpt lat="43.86815" lon="6.5725">
        <ele>1055</ele>
        <time>2018-05-28T08:53:55Z</time>
      </trkpt>
      <trkpt lat="43.86815" lon="6.57253">
        <ele>1055</ele>
        <time>2018-05-28T08:53:56Z</time>
      </trkpt>
      <trkpt lat="43.86814" lon="6.57255">
        <ele>1055</ele>
        <time>2018-05-28T08:53:57Z</time>
      </trkpt>
      <trkpt lat="43.8681" lon="6.57272">
        <ele>1054</ele>
        <time>2018-05-28T08:54:07Z</time>
      </trkpt>
      <trkpt lat="43.86814" lon="6.57275">
        <ele>1055</ele>
        <time>2018-05-28T08:54:11Z</time>
      </trkpt>
      <trkpt lat="43.86815" lon="6.57275">
        <ele>1055</ele>
        <time>2018-05-28T08:54:12Z</time>
      </trkpt>
      <trkpt lat="43.86816" lon="6.57275">
        <ele>1056</ele>
        <time>2018-05-28T08:54:13Z</time>
      </trkpt>
      <trkpt lat="43.86817" lon="6.57274">
        <ele>1056</ele>
        <time>2018-05-28T08:54:14Z</time>
      </trkpt>
      <trkpt lat="43.86818" lon="6.57271">
        <ele>1056</ele>
        <time>2018-05-28T08:54:17Z</time>
      </trkpt>
      <trkpt lat="43.86819" lon="6.57269">
        <ele>1056</ele>
        <time>2018-05-28T08:54:18Z</time>
      </trkpt>
      <trkpt lat="43.86819" lon="6.57267">
        <ele>1056</ele>
        <time>2018-05-28T08:54:19Z</time>
      </trkpt>
      <trkpt lat="43.8682" lon="6.57265">
        <ele>1056</ele>
        <time>2018-05-28T08:54:20Z</time>
      </trkpt>
      <trkpt lat="43.8682" lon="6.57263">
        <ele>1056</ele>
        <time>2018-05-28T08:54:21Z</time>
      </trkpt>
      <trkpt lat="43.8682" lon="6.57227">
        <ele>1057</ele>
        <time>2018-05-28T08:54:34Z</time>
      </trkpt>
      <trkpt lat="43.86818" lon="6.57188">
        <ele>1058</ele>
        <time>2018-05-28T08:54:49Z</time>
      </trkpt>
      <trkpt lat="43.86814" lon="6.57144">
        <ele>1059</ele>
        <time>2018-05-28T08:55:07Z</time>
      </trkpt>
      <trkpt lat="43.86812" lon="6.57099">
        <ele>1062</ele>
        <time>2018-05-28T08:55:26Z</time>
      </trkpt>
      <trkpt lat="43.8681" lon="6.57068">
        <ele>1062</ele>
        <time>2018-05-28T08:55:39Z</time>
      </trkpt>
      <trkpt lat="43.86816" lon="6.57023">
        <ele>1063</ele>
        <time>2018-05-28T08:55:58Z</time>
      </trkpt>
      <trkpt lat="43.86837" lon="6.57002">
        <ele>1067</ele>
        <time>2018-05-28T08:56:14Z</time>
      </trkpt>
      <trkpt lat="43.86858" lon="6.56994">
        <ele>1071</ele>
        <time>2018-05-28T08:56:28Z</time>
      </trkpt>
      <trkpt lat="43.86872" lon="6.56966">
        <ele>1071</ele>
        <time>2018-05-28T08:56:43Z</time>
      </trkpt>
      <trkpt lat="43.86884" lon="6.56931">
        <ele>1072</ele>
        <time>2018-05-28T08:56:59Z</time>
      </trkpt>
      <trkpt lat="43.86896" lon="6.56896">
        <ele>1074</ele>
        <time>2018-05-28T08:57:15Z</time>
      </trkpt>
      <trkpt lat="43.86899" lon="6.56891">
        <ele>1075</ele>
        <time>2018-05-28T08:57:18Z</time>
      </trkpt>
      <trkpt lat="43.86903" lon="6.56891">
        <ele>1076</ele>
        <time>2018-05-28T08:57:20Z</time>
      </trkpt>
      <trkpt lat="43.86905" lon="6.56892">
        <ele>1077</ele>
        <time>2018-05-28T08:57:21Z</time>
      </trkpt>
      <trkpt lat="43.86907" lon="6.56895">
        <ele>1077</ele>
        <time>2018-05-28T08:57:22Z</time>
      </trkpt>
      <trkpt lat="43.86908" lon="6.56898">
        <ele>1078</ele>
        <time>2018-05-28T08:57:23Z</time>
      </trkpt>
      <trkpt lat="43.86908" lon="6.56901">
        <ele>1078</ele>
        <time>2018-05-28T08:57:24Z</time>
      </trkpt>
      <trkpt lat="43.86908" lon="6.56903">
        <ele>1078</ele>
        <time>2018-05-28T08:57:25Z</time>
      </trkpt>
      <trkpt lat="43.86908" lon="6.56905">
        <ele>1078</ele>
        <time>2018-05-28T08:57:26Z</time>
      </trkpt>
      <trkpt lat="43.86907" lon="6.56908">
        <ele>1078</ele>
        <time>2018-05-28T08:57:27Z</time>
      </trkpt>
      <trkpt lat="43.86902" lon="6.5694">
        <ele>1079</ele>
        <time>2018-05-28T08:57:40Z</time>
      </trkpt>
      <trkpt lat="43.86899" lon="6.56975">
        <ele>1081</ele>
        <time>2018-05-28T08:57:54Z</time>
      </trkpt>
      <trkpt lat="43.86898" lon="6.57002">
        <ele>1084</ele>
        <time>2018-05-28T08:58:04Z</time>
      </trkpt>
      <trkpt lat="43.86877" lon="6.57025">
        <ele>1081</ele>
        <time>2018-05-28T08:58:18Z</time>
      </trkpt>
      <trkpt lat="43.86858" lon="6.57053">
        <ele>1079</ele>
        <time>2018-05-28T08:58:34Z</time>
      </trkpt>
      <trkpt lat="43.86854" lon="6.57085">
        <ele>1082</ele>
        <time>2018-05-28T08:58:48Z</time>
      </trkpt>
      <trkpt lat="43.86863" lon="6.57126">
        <ele>1085</ele>
        <time>2018-05-28T08:59:06Z</time>
      </trkpt>
      <trkpt lat="43.8687" lon="6.57164">
        <ele>1088</ele>
        <time>2018-05-28T08:59:22Z</time>
      </trkpt>
      <trkpt lat="43.86875" lon="6.57198">
        <ele>1089</ele>
        <time>2018-05-28T08:59:36Z</time>
      </trkpt>
      <trkpt lat="43.86881" lon="6.57233">
        <ele>1091</ele>
        <time>2018-05-28T08:59:51Z</time>
      </trkpt>
      <trkpt lat="43.86886" lon="6.57265">
        <ele>1092</ele>
        <time>2018-05-28T09:00:04Z</time>
      </trkpt>
      <trkpt lat="43.86894" lon="6.57306">
        <ele>1094</ele>
        <time>2018-05-28T09:00:22Z</time>
      </trkpt>
      <trkpt lat="43.86901" lon="6.57338">
        <ele>1094</ele>
        <time>2018-05-28T09:00:37Z</time>
      </trkpt>
      <trkpt lat="43.86911" lon="6.5737">
        <ele>1099</ele>
        <time>2018-05-28T09:00:53Z</time>
      </trkpt>
      <trkpt lat="43.86916" lon="6.57384">
        <ele>1101</ele>
        <time>2018-05-28T09:01:00Z</time>
      </trkpt>
      <trkpt lat="43.86916" lon="6.57386">
        <ele>1101</ele>
        <time>2018-05-28T09:01:01Z</time>
      </trkpt>
      <trkpt lat="43.86916" lon="6.57388">
        <ele>1101</ele>
        <time>2018-05-28T09:01:02Z</time>
      </trkpt>
      <trkpt lat="43.86917" lon="6.5739">
        <ele>1101</ele>
        <time>2018-05-28T09:01:03Z</time>
      </trkpt>
      <trkpt lat="43.86918" lon="6.57391">
        <ele>1102</ele>
        <time>2018-05-28T09:01:04Z</time>
      </trkpt>
      <trkpt lat="43.86919" lon="6.57393">
        <ele>1102</ele>
        <time>2018-05-28T09:01:05Z</time>
      </trkpt>
      <trkpt lat="43.86919" lon="6.57395">
        <ele>1102</ele>
        <time>2018-05-28T09:01:06Z</time>
      </trkpt>
      <trkpt lat="43.86919" lon="6.57397">
        <ele>1102</ele>
        <time>2018-05-28T09:01:07Z</time>
      </trkpt>
      <trkpt lat="43.86925" lon="6.57428">
        <ele>1106</ele>
        <time>2018-05-28T09:01:22Z</time>
      </trkpt>
      <trkpt lat="43.86913" lon="6.57453">
        <ele>1105</ele>
        <time>2018-05-28T09:01:34Z</time>
      </trkpt>
      <trkpt lat="43.86912" lon="6.57455">
        <ele>1105</ele>
        <time>2018-05-28T09:01:35Z</time>
      </trkpt>
      <trkpt lat="43.86911" lon="6.57457">
        <ele>1105</ele>
        <time>2018-05-28T09:01:36Z</time>
      </trkpt>
      <trkpt lat="43.86911" lon="6.57459">
        <ele>1105</ele>
        <time>2018-05-28T09:01:37Z</time>
      </trkpt>
      <trkpt lat="43.8691" lon="6.5746">
        <ele>1105</ele>
        <time>2018-05-28T09:01:38Z</time>
      </trkpt>
      <trkpt lat="43.86909" lon="6.57462">
        <ele>1105</ele>
        <time>2018-05-28T09:01:39Z</time>
      </trkpt>
      <trkpt lat="43.86902" lon="6.57479">
        <ele>1107</ele>
        <time>2018-05-28T09:01:51Z</time>
      </trkpt>
      <trkpt lat="43.86903" lon="6.57481">
        <ele>1108</ele>
        <time>2018-05-28T09:01:52Z</time>
      </trkpt>
      <trkpt lat="43.86905" lon="6.57485">
        <ele>1109</ele>
        <time>2018-05-28T09:01:56Z</time>
      </trkpt>
      <trkpt lat="43.86909" lon="6.57486">
        <ele>1110</ele>
        <time>2018-05-28T09:02:02Z</time>
      </trkpt>
      <trkpt lat="43.86912" lon="6.57485">
        <ele>1110</ele>
        <time>2018-05-28T09:02:04Z</time>
      </trkpt>
      <trkpt lat="43.86928" lon="6.57463">
        <ele>1110</ele>
        <time>2018-05-28T09:02:19Z</time>
      </trkpt>
      <trkpt lat="43.86942" lon="6.57441">
        <ele>1112</ele>
        <time>2018-05-28T09:02:32Z</time>
      </trkpt>
      <trkpt lat="43.86947" lon="6.57425">
        <ele>1114</ele>
        <time>2018-05-28T09:02:40Z</time>
      </trkpt>
      <trkpt lat="43.86946" lon="6.57402">
        <ele>1114</ele>
        <time>2018-05-28T09:02:52Z</time>
      </trkpt>
      <trkpt lat="43.86946" lon="6.574">
        <ele>1114</ele>
        <time>2018-05-28T09:02:53Z</time>
      </trkpt>
      <trkpt lat="43.86946" lon="6.57399">
        <ele>1114</ele>
        <time>2018-05-28T09:02:54Z</time>
      </trkpt>
      <trkpt lat="43.86944" lon="6.57389">
        <ele>1114</ele>
        <time>2018-05-28T09:03:00Z</time>
      </trkpt>
      <trkpt lat="43.86943" lon="6.57388">
        <ele>1114</ele>
        <time>2018-05-28T09:03:01Z</time>
      </trkpt>
      <trkpt lat="43.86943" lon="6.57386">
        <ele>1114</ele>
        <time>2018-05-28T09:03:02Z</time>
      </trkpt>
      <trkpt lat="43.86942" lon="6.57384">
        <ele>1114</ele>
        <time>2018-05-28T09:03:03Z</time>
      </trkpt>
      <trkpt lat="43.86942" lon="6.57383">
        <ele>1114</ele>
        <time>2018-05-28T09:03:04Z</time>
      </trkpt>
      <trkpt lat="43.86942" lon="6.57381">
        <ele>1114</ele>
        <time>2018-05-28T09:03:05Z</time>
      </trkpt>
      <trkpt lat="43.86942" lon="6.57379">
        <ele>1114</ele>
        <time>2018-05-28T09:03:06Z</time>
      </trkpt>
      <trkpt lat="43.86941" lon="6.57377">
        <ele>1114</ele>
        <time>2018-05-28T09:03:07Z</time>
      </trkpt>
      <trkpt lat="43.86941" lon="6.57375">
        <ele>1114</ele>
        <time>2018-05-28T09:03:08Z</time>
      </trkpt>
      <trkpt lat="43.86933" lon="6.57341">
        <ele>1112</ele>
        <time>2018-05-28T09:03:24Z</time>
      </trkpt>
      <trkpt lat="43.86934" lon="6.57311">
        <ele>1116</ele>
        <time>2018-05-28T09:03:39Z</time>
      </trkpt>
      <trkpt lat="43.86934" lon="6.57309">
        <ele>1117</ele>
        <time>2018-05-28T09:03:40Z</time>
      </trkpt>
      <trkpt lat="43.86934" lon="6.57307">
        <ele>1117</ele>
        <time>2018-05-28T09:03:41Z</time>
      </trkpt>
      <trkpt lat="43.86934" lon="6.57305">
        <ele>1117</ele>
        <time>2018-05-28T09:03:42Z</time>
      </trkpt>
      <trkpt lat="43.86934" lon="6.57303">
        <ele>1117</ele>
        <time>2018-05-28T09:03:43Z</time>
      </trkpt>
      <trkpt lat="43.86934" lon="6.57301">
        <ele>1117</ele>
        <time>2018-05-28T09:03:44Z</time>
      </trkpt>
      <trkpt lat="43.86934" lon="6.57299">
        <ele>1117</ele>
        <time>2018-05-28T09:03:45Z</time>
      </trkpt>
      <trkpt lat="43.86933" lon="6.57296">
        <ele>1118</ele>
        <time>2018-05-28T09:03:46Z</time>
      </trkpt>
      <trkpt lat="43.86933" lon="6.57294">
        <ele>1118</ele>
        <time>2018-05-28T09:03:47Z</time>
      </trkpt>
      <trkpt lat="43.86928" lon="6.57254">
        <ele>1117</ele>
        <time>2018-05-28T09:04:04Z</time>
      </trkpt>
      <trkpt lat="43.86932" lon="6.57216">
        <ele>1120</ele>
        <time>2018-05-28T09:04:20Z</time>
      </trkpt>
      <trkpt lat="43.86937" lon="6.57189">
        <ele>1122</ele>
        <time>2018-05-28T09:04:33Z</time>
      </trkpt>
      <trkpt lat="43.8694" lon="6.57174">
        <ele>1122</ele>
        <time>2018-05-28T09:04:40Z</time>
      </trkpt>
      <trkpt lat="43.86941" lon="6.57172">
        <ele>1122</ele>
        <time>2018-05-28T09:04:41Z</time>
      </trkpt>
      <trkpt lat="43.86942" lon="6.5717">
        <ele>1122</ele>
        <time>2018-05-28T09:04:42Z</time>
      </trkpt>
      <trkpt lat="43.86943" lon="6.57168">
        <ele>1123</ele>
        <time>2018-05-28T09:04:43Z</time>
      </trkpt>
      <trkpt lat="43.86944" lon="6.57166">
        <ele>1123</ele>
        <time>2018-05-28T09:04:44Z</time>
      </trkpt>
      <trkpt lat="43.8696" lon="6.57128">
        <ele>1125</ele>
        <time>2018-05-28T09:05:04Z</time>
      </trkpt>
      <trkpt lat="43.86976" lon="6.57101">
        <ele>1127</ele>
        <time>2018-05-28T09:05:19Z</time>
      </trkpt>
      <trkpt lat="43.86985" lon="6.57105">
        <ele>1131</ele>
        <time>2018-05-28T09:05:26Z</time>
      </trkpt>
      <trkpt lat="43.86985" lon="6.57108">
        <ele>1131</ele>
        <time>2018-05-28T09:05:27Z</time>
      </trkpt>
      <trkpt lat="43.86985" lon="6.57111">
        <ele>1132</ele>
        <time>2018-05-28T09:05:28Z</time>
      </trkpt>
      <trkpt lat="43.86984" lon="6.57113">
        <ele>1132</ele>
        <time>2018-05-28T09:05:29Z</time>
      </trkpt>
      <trkpt lat="43.86983" lon="6.57115">
        <ele>1132</ele>
        <time>2018-05-28T09:05:30Z</time>
      </trkpt>
      <trkpt lat="43.86982" lon="6.57116">
        <ele>1132</ele>
        <time>2018-05-28T09:05:31Z</time>
      </trkpt>
      <trkpt lat="43.86976" lon="6.5712">
        <ele>1130</ele>
        <time>2018-05-28T09:05:36Z</time>
      </trkpt>
      <trkpt lat="43.86976" lon="6.57121">
        <ele>1130</ele>
        <time>2018-05-28T09:05:37Z</time>
      </trkpt>
      <trkpt lat="43.86976" lon="6.57123">
        <ele>1130</ele>
        <time>2018-05-28T09:05:38Z</time>
      </trkpt>
      <trkpt lat="43.86975" lon="6.57125">
        <ele>1130</ele>
        <time>2018-05-28T09:05:39Z</time>
      </trkpt>
      <trkpt lat="43.86974" lon="6.57127">
        <ele>1130</ele>
        <time>2018-05-28T09:05:40Z</time>
      </trkpt>
      <trkpt lat="43.86964" lon="6.57153">
        <ele>1130</ele>
        <time>2018-05-28T09:05:53Z</time>
      </trkpt>
      <trkpt lat="43.86959" lon="6.57186">
        <ele>1132</ele>
        <time>2018-05-28T09:06:08Z</time>
      </trkpt>
      <trkpt lat="43.8696" lon="6.57225">
        <ele>1136</ele>
        <time>2018-05-28T09:06:27Z</time>
      </trkpt>
      <trkpt lat="43.8696" lon="6.57256">
        <ele>1135</ele>
        <time>2018-05-28T09:06:42Z</time>
      </trkpt>
      <trkpt lat="43.86962" lon="6.57286">
        <ele>1136</ele>
        <time>2018-05-28T09:06:57Z</time>
      </trkpt>
      <trkpt lat="43.86969" lon="6.57318">
        <ele>1136</ele>
        <time>2018-05-28T09:07:14Z</time>
      </trkpt>
      <trkpt lat="43.86978" lon="6.57345">
        <ele>1138</ele>
        <time>2018-05-28T09:07:30Z</time>
      </trkpt>
      <trkpt lat="43.86991" lon="6.57372">
        <ele>1142</ele>
        <time>2018-05-28T09:07:46Z</time>
      </trkpt>
      <trkpt lat="43.87003" lon="6.57405">
        <ele>1146</ele>
        <time>2018-05-28T09:08:04Z</time>
      </trkpt>
      <trkpt lat="43.87003" lon="6.57406">
        <ele>1147</ele>
        <time>2018-05-28T09:08:05Z</time>
      </trkpt>
      <trkpt lat="43.87004" lon="6.57408">
        <ele>1147</ele>
        <time>2018-05-28T09:08:06Z</time>
      </trkpt>
      <trkpt lat="43.87004" lon="6.57411">
        <ele>1147</ele>
        <time>2018-05-28T09:08:07Z</time>
      </trkpt>
      <trkpt lat="43.8701" lon="6.57447">
        <ele>1148</ele>
        <time>2018-05-28T09:08:25Z</time>
      </trkpt>
      <trkpt lat="43.87013" lon="6.57475">
        <ele>1148</ele>
        <time>2018-05-28T09:08:40Z</time>
      </trkpt>
      <trkpt lat="43.87023" lon="6.57504">
        <ele>1151</ele>
        <time>2018-05-28T09:08:57Z</time>
      </trkpt>
      <trkpt lat="43.87024" lon="6.57507">
        <ele>1152</ele>
        <time>2018-05-28T09:08:59Z</time>
      </trkpt>
      <trkpt lat="43.87025" lon="6.57509">
        <ele>1152</ele>
        <time>2018-05-28T09:09:00Z</time>
      </trkpt>
      <trkpt lat="43.87026" lon="6.5751">
        <ele>1153</ele>
        <time>2018-05-28T09:09:01Z</time>
      </trkpt>
      <trkpt lat="43.87041" lon="6.5754">
        <ele>1157</ele>
        <time>2018-05-28T09:09:19Z</time>
      </trkpt>
      <trkpt lat="43.87049" lon="6.57574">
        <ele>1160</ele>
        <time>2018-05-28T09:09:36Z</time>
      </trkpt>
      <trkpt lat="43.87047" lon="6.57607">
        <ele>1160</ele>
        <time>2018-05-28T09:09:52Z</time>
      </trkpt>
      <trkpt lat="43.87037" lon="6.57636">
        <ele>1160</ele>
        <time>2018-05-28T09:10:08Z</time>
      </trkpt>
      <trkpt lat="43.87033" lon="6.57673">
        <ele>1162</ele>
        <time>2018-05-28T09:10:25Z</time>
      </trkpt>
      <trkpt lat="43.87034" lon="6.57718">
        <ele>1163</ele>
        <time>2018-05-28T09:10:45Z</time>
      </trkpt>
      <trkpt lat="43.8703" lon="6.5775">
        <ele>1165</ele>
        <time>2018-05-28T09:11:00Z</time>
      </trkpt>
      <trkpt lat="43.87033" lon="6.57755">
        <ele>1167</ele>
        <time>2018-05-28T09:11:11Z</time>
      </trkpt>
      <trkpt lat="43.87034" lon="6.57754">
        <ele>1167</ele>
        <time>2018-05-28T09:11:41Z</time>
      </trkpt>
      <trkpt lat="43.87029" lon="6.57755">
        <ele>1166</ele>
        <time>2018-05-28T09:34:33Z</time>
      </trkpt>
      <trkpt lat="43.87027" lon="6.57756">
        <ele>1165</ele>
        <time>2018-05-28T09:34:38Z</time>
      </trkpt>
      <trkpt lat="43.87025" lon="6.57756">
        <ele>1165</ele>
        <time>2018-05-28T09:34:39Z</time>
      </trkpt>
      <trkpt lat="43.87024" lon="6.57758">
        <ele>1165</ele>
        <time>2018-05-28T09:34:40Z</time>
      </trkpt>
      <trkpt lat="43.87023" lon="6.57759">
        <ele>1165</ele>
        <time>2018-05-28T09:34:41Z</time>
      </trkpt>
      <trkpt lat="43.87023" lon="6.57762">
        <ele>1165</ele>
        <time>2018-05-28T09:34:42Z</time>
      </trkpt>
      <trkpt lat="43.87008" lon="6.57795">
        <ele>1167</ele>
        <time>2018-05-28T09:34:57Z</time>
      </trkpt>
      <trkpt lat="43.86988" lon="6.57828">
        <ele>1169</ele>
        <time>2018-05-28T09:35:13Z</time>
      </trkpt>
      <trkpt lat="43.86964" lon="6.57865">
        <ele>1168</ele>
        <time>2018-05-28T09:35:29Z</time>
      </trkpt>
      <trkpt lat="43.86959" lon="6.57907">
        <ele>1170</ele>
        <time>2018-05-28T09:35:43Z</time>
      </trkpt>
      <trkpt lat="43.86957" lon="6.5796">
        <ele>1173</ele>
        <time>2018-05-28T09:35:59Z</time>
      </trkpt>
      <trkpt lat="43.86943" lon="6.57999">
        <ele>1171</ele>
        <time>2018-05-28T09:36:11Z</time>
      </trkpt>
      <trkpt lat="43.86939" lon="6.58013">
        <ele>1170</ele>
        <time>2018-05-28T09:36:15Z</time>
      </trkpt>
      <trkpt lat="43.86938" lon="6.58016">
        <ele>1170</ele>
        <time>2018-05-28T09:36:16Z</time>
      </trkpt>
      <trkpt lat="43.86938" lon="6.58019">
        <ele>1170</ele>
        <time>2018-05-28T09:36:17Z</time>
      </trkpt>
      <trkpt lat="43.86937" lon="6.58022">
        <ele>1170</ele>
        <time>2018-05-28T09:36:18Z</time>
      </trkpt>
      <trkpt lat="43.86937" lon="6.58026">
        <ele>1170</ele>
        <time>2018-05-28T09:36:19Z</time>
      </trkpt>
      <trkpt lat="43.86938" lon="6.5807">
        <ele>1172</ele>
        <time>2018-05-28T09:36:33Z</time>
      </trkpt>
      <trkpt lat="43.86929" lon="6.58129">
        <ele>1177</ele>
        <time>2018-05-28T09:36:49Z</time>
      </trkpt>
      <trkpt lat="43.86905" lon="6.58165">
        <ele>1177</ele>
        <time>2018-05-28T09:37:00Z</time>
      </trkpt>
      <trkpt lat="43.8687" lon="6.58214">
        <ele>1178</ele>
        <time>2018-05-28T09:37:18Z</time>
      </trkpt>
      <trkpt lat="43.86854" lon="6.58263">
        <ele>1177</ele>
        <time>2018-05-28T09:37:35Z</time>
      </trkpt>
      <trkpt lat="43.86855" lon="6.5832">
        <ele>1183</ele>
        <time>2018-05-28T09:37:54Z</time>
      </trkpt>
      <trkpt lat="43.86861" lon="6.58364">
        <ele>1187</ele>
        <time>2018-05-28T09:38:09Z</time>
      </trkpt>
      <trkpt lat="43.86869" lon="6.58418">
        <ele>1188</ele>
        <time>2018-05-28T09:38:26Z</time>
      </trkpt>
      <trkpt lat="43.86875" lon="6.58457">
        <ele>1188</ele>
        <time>2018-05-28T09:38:41Z</time>
      </trkpt>
      <trkpt lat="43.8688" lon="6.58504">
        <ele>1190</ele>
        <time>2018-05-28T09:38:59Z</time>
      </trkpt>
      <trkpt lat="43.86884" lon="6.58547">
        <ele>1193</ele>
        <time>2018-05-28T09:39:15Z</time>
      </trkpt>
      <trkpt lat="43.86887" lon="6.58594">
        <ele>1195</ele>
        <time>2018-05-28T09:39:33Z</time>
      </trkpt>
      <trkpt lat="43.8689" lon="6.5861">
        <ele>1195</ele>
        <time>2018-05-28T09:39:39Z</time>
      </trkpt>
      <trkpt lat="43.86891" lon="6.58612">
        <ele>1196</ele>
        <time>2018-05-28T09:39:40Z</time>
      </trkpt>
      <trkpt lat="43.86892" lon="6.58615">
        <ele>1196</ele>
        <time>2018-05-28T09:39:41Z</time>
      </trkpt>
      <trkpt lat="43.86894" lon="6.58617">
        <ele>1196</ele>
        <time>2018-05-28T09:39:42Z</time>
      </trkpt>
      <trkpt lat="43.86895" lon="6.58619">
        <ele>1196</ele>
        <time>2018-05-28T09:39:43Z</time>
      </trkpt>
      <trkpt lat="43.86897" lon="6.5862">
        <ele>1197</ele>
        <time>2018-05-28T09:39:44Z</time>
      </trkpt>
      <trkpt lat="43.86916" lon="6.58655">
        <ele>1202</ele>
        <time>2018-05-28T09:39:59Z</time>
      </trkpt>
      <trkpt lat="43.86909" lon="6.58697">
        <ele>1204</ele>
        <time>2018-05-28T09:40:13Z</time>
      </trkpt>
      <trkpt lat="43.86895" lon="6.58738">
        <ele>1206</ele>
        <time>2018-05-28T09:40:29Z</time>
      </trkpt>
      <trkpt lat="43.86876" lon="6.58778">
        <ele>1208</ele>
        <time>2018-05-28T09:40:45Z</time>
      </trkpt>
      <trkpt lat="43.86872" lon="6.58785">
        <ele>1209</ele>
        <time>2018-05-28T09:40:48Z</time>
      </trkpt>
      <trkpt lat="43.86871" lon="6.58787">
        <ele>1209</ele>
        <time>2018-05-28T09:40:49Z</time>
      </trkpt>
      <trkpt lat="43.86869" lon="6.58788">
        <ele>1208</ele>
        <time>2018-05-28T09:40:50Z</time>
      </trkpt>
      <trkpt lat="43.86867" lon="6.58789">
        <ele>1208</ele>
        <time>2018-05-28T09:40:51Z</time>
      </trkpt>
      <trkpt lat="43.86866" lon="6.58791">
        <ele>1208</ele>
        <time>2018-05-28T09:40:52Z</time>
      </trkpt>
      <trkpt lat="43.86864" lon="6.58792">
        <ele>1208</ele>
        <time>2018-05-28T09:40:53Z</time>
      </trkpt>
      <trkpt lat="43.86863" lon="6.58795">
        <ele>1208</ele>
        <time>2018-05-28T09:40:54Z</time>
      </trkpt>
      <trkpt lat="43.86862" lon="6.58797">
        <ele>1208</ele>
        <time>2018-05-28T09:40:55Z</time>
      </trkpt>
      <trkpt lat="43.86861" lon="6.58799">
        <ele>1209</ele>
        <time>2018-05-28T09:40:56Z</time>
      </trkpt>
      <trkpt lat="43.8686" lon="6.58801">
        <ele>1208</ele>
        <time>2018-05-28T09:40:57Z</time>
      </trkpt>
      <trkpt lat="43.86858" lon="6.58802">
        <ele>1208</ele>
        <time>2018-05-28T09:40:58Z</time>
      </trkpt>
      <trkpt lat="43.86856" lon="6.58804">
        <ele>1208</ele>
        <time>2018-05-28T09:40:59Z</time>
      </trkpt>
      <trkpt lat="43.86844" lon="6.58825">
        <ele>1209</ele>
        <time>2018-05-28T09:41:10Z</time>
      </trkpt>
      <trkpt lat="43.86842" lon="6.58837">
        <ele>1209</ele>
        <time>2018-05-28T09:41:15Z</time>
      </trkpt>
      <trkpt lat="43.86842" lon="6.58839">
        <ele>1210</ele>
        <time>2018-05-28T09:41:16Z</time>
      </trkpt>
      <trkpt lat="43.86841" lon="6.58842">
        <ele>1210</ele>
        <time>2018-05-28T09:41:17Z</time>
      </trkpt>
      <trkpt lat="43.86841" lon="6.58844">
        <ele>1210</ele>
        <time>2018-05-28T09:41:18Z</time>
      </trkpt>
      <trkpt lat="43.86841" lon="6.58846">
        <ele>1210</ele>
        <time>2018-05-28T09:41:19Z</time>
      </trkpt>
      <trkpt lat="43.86841" lon="6.58849">
        <ele>1210</ele>
        <time>2018-05-28T09:41:20Z</time>
      </trkpt>
      <trkpt lat="43.86841" lon="6.58852">
        <ele>1210</ele>
        <time>2018-05-28T09:41:21Z</time>
      </trkpt>
      <trkpt lat="43.86842" lon="6.58854">
        <ele>1211</ele>
        <time>2018-05-28T09:41:22Z</time>
      </trkpt>
      <trkpt lat="43.86843" lon="6.58855">
        <ele>1211</ele>
        <time>2018-05-28T09:41:23Z</time>
      </trkpt>
      <trkpt lat="43.86843" lon="6.58857">
        <ele>1212</ele>
        <time>2018-05-28T09:41:24Z</time>
      </trkpt>
      <trkpt lat="43.86843" lon="6.5886">
        <ele>1212</ele>
        <time>2018-05-28T09:41:25Z</time>
      </trkpt>
      <trkpt lat="43.86843" lon="6.58862">
        <ele>1212</ele>
        <time>2018-05-28T09:41:26Z</time>
      </trkpt>
      <trkpt lat="43.86843" lon="6.58864">
        <ele>1212</ele>
        <time>2018-05-28T09:41:27Z</time>
      </trkpt>
      <trkpt lat="43.86843" lon="6.58866">
        <ele>1212</ele>
        <time>2018-05-28T09:41:28Z</time>
      </trkpt>
      <trkpt lat="43.86843" lon="6.58869">
        <ele>1213</ele>
        <time>2018-05-28T09:41:29Z</time>
      </trkpt>
      <trkpt lat="43.86843" lon="6.58871">
        <ele>1213</ele>
        <time>2018-05-28T09:41:30Z</time>
      </trkpt>
      <trkpt lat="43.86843" lon="6.58873">
        <ele>1213</ele>
        <time>2018-05-28T09:41:31Z</time>
      </trkpt>
      <trkpt lat="43.86843" lon="6.58876">
        <ele>1213</ele>
        <time>2018-05-28T09:41:32Z</time>
      </trkpt>
      <trkpt lat="43.86843" lon="6.58879">
        <ele>1213</ele>
        <time>2018-05-28T09:41:33Z</time>
      </trkpt>
      <trkpt lat="43.86842" lon="6.58882">
        <ele>1214</ele>
        <time>2018-05-28T09:41:34Z</time>
      </trkpt>
      <trkpt lat="43.86842" lon="6.58884">
        <ele>1214</ele>
        <time>2018-05-28T09:41:35Z</time>
      </trkpt>
      <trkpt lat="43.86844" lon="6.58889">
        <ele>1215</ele>
        <time>2018-05-28T09:41:37Z</time>
      </trkpt>
      <trkpt lat="43.86845" lon="6.58891">
        <ele>1215</ele>
        <time>2018-05-28T09:41:38Z</time>
      </trkpt>
      <trkpt lat="43.86845" lon="6.58894">
        <ele>1215</ele>
        <time>2018-05-28T09:41:39Z</time>
      </trkpt>
      <trkpt lat="43.86841" lon="6.58936">
        <ele>1218</ele>
        <time>2018-05-28T09:41:53Z</time>
      </trkpt>
      <trkpt lat="43.86833" lon="6.58984">
        <ele>1218</ele>
        <time>2018-05-28T09:42:09Z</time>
      </trkpt>
      <trkpt lat="43.86829" lon="6.59013">
        <ele>1219</ele>
        <time>2018-05-28T09:42:20Z</time>
      </trkpt>
      <trkpt lat="43.86828" lon="6.59016">
        <ele>1219</ele>
        <time>2018-05-28T09:42:21Z</time>
      </trkpt>
      <trkpt lat="43.86828" lon="6.59018">
        <ele>1219</ele>
        <time>2018-05-28T09:42:22Z</time>
      </trkpt>
      <trkpt lat="43.86828" lon="6.59021">
        <ele>1219</ele>
        <time>2018-05-28T09:42:23Z</time>
      </trkpt>
      <trkpt lat="43.86828" lon="6.59023">
        <ele>1219</ele>
        <time>2018-05-28T09:42:24Z</time>
      </trkpt>
      <trkpt lat="43.86828" lon="6.59026">
        <ele>1219</ele>
        <time>2018-05-28T09:42:25Z</time>
      </trkpt>
      <trkpt lat="43.86825" lon="6.59046">
        <ele>1218</ele>
        <time>2018-05-28T09:42:33Z</time>
      </trkpt>
      <trkpt lat="43.86825" lon="6.59049">
        <ele>1218</ele>
        <time>2018-05-28T09:42:34Z</time>
      </trkpt>
      <trkpt lat="43.86824" lon="6.59052">
        <ele>1218</ele>
        <time>2018-05-28T09:42:35Z</time>
      </trkpt>
      <trkpt lat="43.86824" lon="6.59055">
        <ele>1218</ele>
        <time>2018-05-28T09:42:36Z</time>
      </trkpt>
      <trkpt lat="43.86823" lon="6.59058">
        <ele>1218</ele>
        <time>2018-05-28T09:42:37Z</time>
      </trkpt>
      <trkpt lat="43.86816" lon="6.5911">
        <ele>1217</ele>
        <time>2018-05-28T09:42:53Z</time>
      </trkpt>
      <trkpt lat="43.86817" lon="6.59155">
        <ele>1218</ele>
        <time>2018-05-28T09:43:08Z</time>
      </trkpt>
      <trkpt lat="43.86832" lon="6.59203">
        <ele>1221</ele>
        <time>2018-05-28T09:43:24Z</time>
      </trkpt>
      <trkpt lat="43.86853" lon="6.59223">
        <ele>1226</ele>
        <time>2018-05-28T09:43:31Z</time>
      </trkpt>
      <trkpt lat="43.86875" lon="6.5927">
        <ele>1233</ele>
        <time>2018-05-28T09:43:43Z</time>
      </trkpt>
      <trkpt lat="43.86849" lon="6.59314">
        <ele>1234</ele>
        <time>2018-05-28T09:43:53Z</time>
      </trkpt>
      <trkpt lat="43.86845" lon="6.59324">
        <ele>1235</ele>
        <time>2018-05-28T09:43:55Z</time>
      </trkpt>
      <trkpt lat="43.8682" lon="6.59407">
        <ele>1237</ele>
        <time>2018-05-28T09:44:11Z</time>
      </trkpt>
      <trkpt lat="43.86829" lon="6.5946">
        <ele>1240</ele>
        <time>2018-05-28T09:44:24Z</time>
      </trkpt>
      <trkpt lat="43.86849" lon="6.5951">
        <ele>1242</ele>
        <time>2018-05-28T09:44:38Z</time>
      </trkpt>
      <trkpt lat="43.86877" lon="6.59586">
        <ele>1247</ele>
        <time>2018-05-28T09:44:58Z</time>
      </trkpt>
      <trkpt lat="43.8686" lon="6.59627">
        <ele>1248</ele>
        <time>2018-05-28T09:45:08Z</time>
      </trkpt>
      <trkpt lat="43.86844" lon="6.59682">
        <ele>1250</ele>
        <time>2018-05-28T09:45:21Z</time>
      </trkpt>
      <trkpt lat="43.86833" lon="6.59748">
        <ele>1253</ele>
        <time>2018-05-28T09:45:37Z</time>
      </trkpt>
      <trkpt lat="43.86819" lon="6.59798">
        <ele>1254</ele>
        <time>2018-05-28T09:45:51Z</time>
      </trkpt>
      <trkpt lat="43.86802" lon="6.59869">
        <ele>1258</ele>
        <time>2018-05-28T09:46:10Z</time>
      </trkpt>
      <trkpt lat="43.86793" lon="6.59925">
        <ele>1261</ele>
        <time>2018-05-28T09:46:25Z</time>
      </trkpt>
      <trkpt lat="43.86797" lon="6.59985">
        <ele>1261</ele>
        <time>2018-05-28T09:46:40Z</time>
      </trkpt>
      <trkpt lat="43.86833" lon="6.60038">
        <ele>1265</ele>
        <time>2018-05-28T09:46:57Z</time>
      </trkpt>
      <trkpt lat="43.86828" lon="6.60069">
        <ele>1263</ele>
        <time>2018-05-28T09:47:04Z</time>
      </trkpt>
      <trkpt lat="43.86826" lon="6.60072">
        <ele>1263</ele>
        <time>2018-05-28T09:47:05Z</time>
      </trkpt>
      <trkpt lat="43.86824" lon="6.60076">
        <ele>1263</ele>
        <time>2018-05-28T09:47:06Z</time>
      </trkpt>
      <trkpt lat="43.86825" lon="6.60127">
        <ele>1262</ele>
        <time>2018-05-28T09:47:17Z</time>
      </trkpt>
      <trkpt lat="43.86853" lon="6.60189">
        <ele>1266</ele>
        <time>2018-05-28T09:47:32Z</time>
      </trkpt>
      <trkpt lat="43.86863" lon="6.60262">
        <ele>1270</ele>
        <time>2018-05-28T09:47:50Z</time>
      </trkpt>
      <trkpt lat="43.86875" lon="6.60332">
        <ele>1272</ele>
        <time>2018-05-28T09:48:09Z</time>
      </trkpt>
      <trkpt lat="43.86871" lon="6.60395">
        <ele>1272</ele>
        <time>2018-05-28T09:48:25Z</time>
      </trkpt>
      <trkpt lat="43.86854" lon="6.60445">
        <ele>1278</ele>
        <time>2018-05-28T09:48:39Z</time>
      </trkpt>
      <trkpt lat="43.86832" lon="6.60506">
        <ele>1282</ele>
        <time>2018-05-28T09:48:58Z</time>
      </trkpt>
      <trkpt lat="43.86812" lon="6.60565">
        <ele>1279</ele>
        <time>2018-05-28T09:49:15Z</time>
      </trkpt>
      <trkpt lat="43.86797" lon="6.60632">
        <ele>1282</ele>
        <time>2018-05-28T09:49:31Z</time>
      </trkpt>
      <trkpt lat="43.86795" lon="6.60688">
        <ele>1284</ele>
        <time>2018-05-28T09:49:45Z</time>
      </trkpt>
      <trkpt lat="43.86792" lon="6.6075">
        <ele>1286</ele>
        <time>2018-05-28T09:50:02Z</time>
      </trkpt>
      <trkpt lat="43.86792" lon="6.60797">
        <ele>1289</ele>
        <time>2018-05-28T09:50:16Z</time>
      </trkpt>
      <trkpt lat="43.86791" lon="6.60837">
        <ele>1292</ele>
        <time>2018-05-28T09:50:28Z</time>
      </trkpt>
      <trkpt lat="43.86788" lon="6.60906">
        <ele>1296</ele>
        <time>2018-05-28T09:50:48Z</time>
      </trkpt>
      <trkpt lat="43.86784" lon="6.60962">
        <ele>1299</ele>
        <time>2018-05-28T09:51:05Z</time>
      </trkpt>
      <trkpt lat="43.86774" lon="6.61015">
        <ele>1301</ele>
        <time>2018-05-28T09:51:21Z</time>
      </trkpt>
      <trkpt lat="43.86766" lon="6.61065">
        <ele>1304</ele>
        <time>2018-05-28T09:51:36Z</time>
      </trkpt>
      <trkpt lat="43.86761" lon="6.61125">
        <ele>1303</ele>
        <time>2018-05-28T09:51:53Z</time>
      </trkpt>
      <trkpt lat="43.8676" lon="6.61181">
        <ele>1308</ele>
        <time>2018-05-28T09:52:09Z</time>
      </trkpt>
      <trkpt lat="43.86753" lon="6.61243">
        <ele>1309</ele>
        <time>2018-05-28T09:52:26Z</time>
      </trkpt>
      <trkpt lat="43.86743" lon="6.61313">
        <ele>1311</ele>
        <time>2018-05-28T09:52:44Z</time>
      </trkpt>
      <trkpt lat="43.86742" lon="6.61366">
        <ele>1314</ele>
        <time>2018-05-28T09:53:00Z</time>
      </trkpt>
      <trkpt lat="43.86744" lon="6.61418">
        <ele>1317</ele>
        <time>2018-05-28T09:53:15Z</time>
      </trkpt>
      <trkpt lat="43.86739" lon="6.61474">
        <ele>1318</ele>
        <time>2018-05-28T09:53:30Z</time>
      </trkpt>
      <trkpt lat="43.86736" lon="6.61533">
        <ele>1320</ele>
        <time>2018-05-28T09:53:45Z</time>
      </trkpt>
      <trkpt lat="43.86735" lon="6.61588">
        <ele>1320</ele>
        <time>2018-05-28T09:54:00Z</time>
      </trkpt>
      <trkpt lat="43.86741" lon="6.61654">
        <ele>1321</ele>
        <time>2018-05-28T09:54:17Z</time>
      </trkpt>
      <trkpt lat="43.86752" lon="6.61729">
        <ele>1323</ele>
        <time>2018-05-28T09:54:36Z</time>
      </trkpt>
      <trkpt lat="43.86769" lon="6.61784">
        <ele>1325</ele>
        <time>2018-05-28T09:54:51Z</time>
      </trkpt>
      <trkpt lat="43.86783" lon="6.61839">
        <ele>1326</ele>
        <time>2018-05-28T09:55:06Z</time>
      </trkpt>
      <trkpt lat="43.8679" lon="6.61899">
        <ele>1327</ele>
        <time>2018-05-28T09:55:23Z</time>
      </trkpt>
      <trkpt lat="43.86791" lon="6.61959">
        <ele>1328</ele>
        <time>2018-05-28T09:55:40Z</time>
      </trkpt>
      <trkpt lat="43.86776" lon="6.6201">
        <ele>1329</ele>
        <time>2018-05-28T09:55:55Z</time>
      </trkpt>
      <trkpt lat="43.86758" lon="6.6206">
        <ele>1330</ele>
        <time>2018-05-28T09:56:11Z</time>
      </trkpt>
      <trkpt lat="43.86748" lon="6.62087">
        <ele>1330</ele>
        <time>2018-05-28T09:56:21Z</time>
      </trkpt>
      <trkpt lat="43.86739" lon="6.62115">
        <ele>1330</ele>
        <time>2018-05-28T09:56:31Z</time>
      </trkpt>
      <trkpt lat="43.8674" lon="6.62117">
        <ele>1330</ele>
        <time>2018-05-28T09:56:32Z</time>
      </trkpt>
      <trkpt lat="43.8674" lon="6.6212">
        <ele>1330</ele>
        <time>2018-05-28T09:56:33Z</time>
      </trkpt>
      <trkpt lat="43.8674" lon="6.62122">
        <ele>1330</ele>
        <time>2018-05-28T09:56:34Z</time>
      </trkpt>
      <trkpt lat="43.86739" lon="6.62124">
        <ele>1330</ele>
        <time>2018-05-28T09:56:35Z</time>
      </trkpt>
      <trkpt lat="43.86738" lon="6.62126">
        <ele>1330</ele>
        <time>2018-05-28T09:56:36Z</time>
      </trkpt>
      <trkpt lat="43.86737" lon="6.62128">
        <ele>1330</ele>
        <time>2018-05-28T09:56:37Z</time>
      </trkpt>
      <trkpt lat="43.86736" lon="6.62131">
        <ele>1330</ele>
        <time>2018-05-28T09:56:38Z</time>
      </trkpt>
      <trkpt lat="43.86735" lon="6.62134">
        <ele>1330</ele>
        <time>2018-05-28T09:56:39Z</time>
      </trkpt>
      <trkpt lat="43.86726" lon="6.62167">
        <ele>1331</ele>
        <time>2018-05-28T09:56:49Z</time>
      </trkpt>
      <trkpt lat="43.86725" lon="6.6217">
        <ele>1331</ele>
        <time>2018-05-28T09:56:50Z</time>
      </trkpt>
      <trkpt lat="43.86725" lon="6.62173">
        <ele>1331</ele>
        <time>2018-05-28T09:56:51Z</time>
      </trkpt>
      <trkpt lat="43.86724" lon="6.62177">
        <ele>1331</ele>
        <time>2018-05-28T09:56:52Z</time>
      </trkpt>
      <trkpt lat="43.86723" lon="6.6218">
        <ele>1332</ele>
        <time>2018-05-28T09:56:53Z</time>
      </trkpt>
      <trkpt lat="43.86722" lon="6.62183">
        <ele>1332</ele>
        <time>2018-05-28T09:56:54Z</time>
      </trkpt>
      <trkpt lat="43.8671" lon="6.62234">
        <ele>1332</ele>
        <time>2018-05-28T09:57:08Z</time>
      </trkpt>
      <trkpt lat="43.86698" lon="6.6228">
        <ele>1335</ele>
        <time>2018-05-28T09:57:22Z</time>
      </trkpt>
      <trkpt lat="43.8669" lon="6.62309">
        <ele>1337</ele>
        <time>2018-05-28T09:57:34Z</time>
      </trkpt>
      <trkpt lat="43.86681" lon="6.62354">
        <ele>1339</ele>
        <time>2018-05-28T09:57:49Z</time>
      </trkpt>
      <trkpt lat="43.86668" lon="6.62394">
        <ele>1339</ele>
        <time>2018-05-28T09:58:02Z</time>
      </trkpt>
      <trkpt lat="43.86652" lon="6.62454">
        <ele>1340</ele>
        <time>2018-05-28T09:58:19Z</time>
      </trkpt>
      <trkpt lat="43.86635" lon="6.62516">
        <ele>1343</ele>
        <time>2018-05-28T09:58:36Z</time>
      </trkpt>
      <trkpt lat="43.8662" lon="6.62574">
        <ele>1347</ele>
        <time>2018-05-28T09:58:51Z</time>
      </trkpt>
      <trkpt lat="43.866" lon="6.62644">
        <ele>1351</ele>
        <time>2018-05-28T09:59:09Z</time>
      </trkpt>
      <trkpt lat="43.86586" lon="6.62709">
        <ele>1353</ele>
        <time>2018-05-28T09:59:27Z</time>
      </trkpt>
      <trkpt lat="43.86579" lon="6.62764">
        <ele>1355</ele>
        <time>2018-05-28T09:59:43Z</time>
      </trkpt>
      <trkpt lat="43.86569" lon="6.6283">
        <ele>1356</ele>
        <time>2018-05-28T10:00:03Z</time>
      </trkpt>
      <trkpt lat="43.86557" lon="6.62903">
        <ele>1357</ele>
        <time>2018-05-28T10:00:23Z</time>
      </trkpt>
      <trkpt lat="43.86541" lon="6.62993">
        <ele>1361</ele>
        <time>2018-05-28T10:00:43Z</time>
      </trkpt>
      <trkpt lat="43.86529" lon="6.63062">
        <ele>1367</ele>
        <time>2018-05-28T10:00:59Z</time>
      </trkpt>
      <trkpt lat="43.86518" lon="6.63123">
        <ele>1370</ele>
        <time>2018-05-28T10:01:16Z</time>
      </trkpt>
      <trkpt lat="43.86515" lon="6.63152">
        <ele>1371</ele>
        <time>2018-05-28T10:01:27Z</time>
      </trkpt>
      <trkpt lat="43.86514" lon="6.63175">
        <ele>1370</ele>
        <time>2018-05-28T10:01:38Z</time>
      </trkpt>
      <trkpt lat="43.86514" lon="6.6318">
        <ele>1370</ele>
        <time>2018-05-28T10:01:41Z</time>
      </trkpt>
      <trkpt lat="43.86514" lon="6.63182">
        <ele>1369</ele>
        <time>2018-05-28T10:01:42Z</time>
      </trkpt>
      <trkpt lat="43.86514" lon="6.63184">
        <ele>1369</ele>
        <time>2018-05-28T10:01:43Z</time>
      </trkpt>
      <trkpt lat="43.86514" lon="6.63185">
        <ele>1369</ele>
        <time>2018-05-28T10:01:44Z</time>
      </trkpt>
      <trkpt lat="43.86515" lon="6.63187">
        <ele>1369</ele>
        <time>2018-05-28T10:01:45Z</time>
      </trkpt>
      <trkpt lat="43.86516" lon="6.63189">
        <ele>1369</ele>
        <time>2018-05-28T10:01:46Z</time>
      </trkpt>
      <trkpt lat="43.86516" lon="6.63192">
        <ele>1369</ele>
        <time>2018-05-28T10:01:47Z</time>
      </trkpt>
      <trkpt lat="43.86515" lon="6.63194">
        <ele>1368</ele>
        <time>2018-05-28T10:01:48Z</time>
      </trkpt>
      <trkpt lat="43.86515" lon="6.63197">
        <ele>1368</ele>
        <time>2018-05-28T10:01:49Z</time>
      </trkpt>
      <trkpt lat="43.86517" lon="6.63217">
        <ele>1367</ele>
        <time>2018-05-28T10:01:56Z</time>
      </trkpt>
      <trkpt lat="43.86519" lon="6.63216">
        <ele>1367</ele>
        <time>2018-05-28T10:01:58Z</time>
      </trkpt>
      <trkpt lat="43.86517" lon="6.63201">
        <ele>1368</ele>
        <time>2018-05-28T10:02:08Z</time>
      </trkpt>
      <trkpt lat="43.86516" lon="6.63175">
        <ele>1370</ele>
        <time>2018-05-28T10:02:19Z</time>
      </trkpt>
      <trkpt lat="43.8652" lon="6.63125">
        <ele>1370</ele>
        <time>2018-05-28T10:02:32Z</time>
      </trkpt>
      <trkpt lat="43.86537" lon="6.63036">
        <ele>1365</ele>
        <time>2018-05-28T10:02:42Z</time>
      </trkpt>
      <trkpt lat="43.86543" lon="6.62996">
        <ele>1362</ele>
        <time>2018-05-28T10:02:45Z</time>
      </trkpt>
      <trkpt lat="43.86575" lon="6.62817">
        <ele>1356</ele>
        <time>2018-05-28T10:02:56Z</time>
      </trkpt>
      <trkpt lat="43.86607" lon="6.62628">
        <ele>1349</ele>
        <time>2018-05-28T10:03:07Z</time>
      </trkpt>
      <trkpt lat="43.8667" lon="6.62388">
        <ele>1339</ele>
        <time>2018-05-28T10:03:22Z</time>
      </trkpt>
      <trkpt lat="43.8669" lon="6.62305">
        <ele>1337</ele>
        <time>2018-05-28T10:03:28Z</time>
      </trkpt>
      <trkpt lat="43.86691" lon="6.62299">
        <ele>1336</ele>
        <time>2018-05-28T10:03:29Z</time>
      </trkpt>
      <trkpt lat="43.8669" lon="6.62297">
        <ele>1336</ele>
        <time>2018-05-28T10:03:30Z</time>
      </trkpt>
      <trkpt lat="43.86688" lon="6.62297">
        <ele>1337</ele>
        <time>2018-05-28T10:03:31Z</time>
      </trkpt>
      <trkpt lat="43.86687" lon="6.62298">
        <ele>1337</ele>
        <time>2018-05-28T10:03:32Z</time>
      </trkpt>
      <trkpt lat="43.86686" lon="6.62299">
        <ele>1337</ele>
        <time>2018-05-28T10:03:47Z</time>
      </trkpt>
      <trkpt lat="43.86685" lon="6.62293">
        <ele>1337</ele>
        <time>2018-05-28T10:14:16Z</time>
      </trkpt>
      <trkpt lat="43.86685" lon="6.6229">
        <ele>1337</ele>
        <time>2018-05-28T10:14:20Z</time>
      </trkpt>
      <trkpt lat="43.86685" lon="6.62271">
        <ele>1336</ele>
        <time>2018-05-28T10:14:31Z</time>
      </trkpt>
      <trkpt lat="43.86686" lon="6.62259">
        <ele>1336</ele>
        <time>2018-05-28T10:14:42Z</time>
      </trkpt>
      <trkpt lat="43.86686" lon="6.62257">
        <ele>1336</ele>
        <time>2018-05-28T10:14:43Z</time>
      </trkpt>
      <trkpt lat="43.86686" lon="6.62254">
        <ele>1336</ele>
        <time>2018-05-28T10:14:44Z</time>
      </trkpt>
      <trkpt lat="43.86685" lon="6.62252">
        <ele>1336</ele>
        <time>2018-05-28T10:14:45Z</time>
      </trkpt>
      <trkpt lat="43.86685" lon="6.6225">
        <ele>1336</ele>
        <time>2018-05-28T10:14:46Z</time>
      </trkpt>
      <trkpt lat="43.86685" lon="6.62247">
        <ele>1335</ele>
        <time>2018-05-28T10:14:47Z</time>
      </trkpt>
      <trkpt lat="43.86686" lon="6.62245">
        <ele>1335</ele>
        <time>2018-05-28T10:14:48Z</time>
      </trkpt>
      <trkpt lat="43.86686" lon="6.62242">
        <ele>1335</ele>
        <time>2018-05-28T10:14:49Z</time>
      </trkpt>
      <trkpt lat="43.86687" lon="6.62238">
        <ele>1335</ele>
        <time>2018-05-28T10:14:50Z</time>
      </trkpt>
      <trkpt lat="43.86688" lon="6.62232">
        <ele>1335</ele>
        <time>2018-05-28T10:14:51Z</time>
      </trkpt>
      <trkpt lat="43.86689" lon="6.62226">
        <ele>1335</ele>
        <time>2018-05-28T10:14:52Z</time>
      </trkpt>
      <trkpt lat="43.86691" lon="6.62206">
        <ele>1334</ele>
        <time>2018-05-28T10:14:55Z</time>
      </trkpt>
      <trkpt lat="43.8669" lon="6.62199">
        <ele>1334</ele>
        <time>2018-05-28T10:14:56Z</time>
      </trkpt>
      <trkpt lat="43.86679" lon="6.62155">
        <ele>1333</ele>
        <time>2018-05-28T10:15:06Z</time>
      </trkpt>
      <trkpt lat="43.86678" lon="6.6214">
        <ele>1332</ele>
        <time>2018-05-28T10:15:10Z</time>
      </trkpt>
      <trkpt lat="43.86677" lon="6.62136">
        <ele>1332</ele>
        <time>2018-05-28T10:15:11Z</time>
      </trkpt>
      <trkpt lat="43.86676" lon="6.62132">
        <ele>1332</ele>
        <time>2018-05-28T10:15:12Z</time>
      </trkpt>
      <trkpt lat="43.86665" lon="6.62074">
        <ele>1332</ele>
        <time>2018-05-28T10:15:25Z</time>
      </trkpt>
      <trkpt lat="43.86665" lon="6.62051">
        <ele>1331</ele>
        <time>2018-05-28T10:15:29Z</time>
      </trkpt>
      <trkpt lat="43.86657" lon="6.61958">
        <ele>1330</ele>
        <time>2018-05-28T10:15:40Z</time>
      </trkpt>
      <trkpt lat="43.86638" lon="6.61822">
        <ele>1321</ele>
        <time>2018-05-28T10:15:53Z</time>
      </trkpt>
      <trkpt lat="43.86632" lon="6.61791">
        <ele>1319</ele>
        <time>2018-05-28T10:15:56Z</time>
      </trkpt>
      <trkpt lat="43.8663" lon="6.6178">
        <ele>1318</ele>
        <time>2018-05-28T10:15:57Z</time>
      </trkpt>
      <trkpt lat="43.86612" lon="6.61702">
        <ele>1312</ele>
        <time>2018-05-28T10:16:04Z</time>
      </trkpt>
      <trkpt lat="43.86589" lon="6.616">
        <ele>1306</ele>
        <time>2018-05-28T10:16:13Z</time>
      </trkpt>
      <trkpt lat="43.86571" lon="6.61482">
        <ele>1300</ele>
        <time>2018-05-28T10:16:24Z</time>
      </trkpt>
      <trkpt lat="43.86565" lon="6.61448">
        <ele>1298</ele>
        <time>2018-05-28T10:16:27Z</time>
      </trkpt>
      <trkpt lat="43.86558" lon="6.61405">
        <ele>1297</ele>
        <time>2018-05-28T10:16:31Z</time>
      </trkpt>
      <trkpt lat="43.86541" lon="6.61305">
        <ele>1296</ele>
        <time>2018-05-28T10:16:42Z</time>
      </trkpt>
      <trkpt lat="43.86536" lon="6.61226">
        <ele>1297</ele>
        <time>2018-05-28T10:16:53Z</time>
      </trkpt>
      <trkpt lat="43.86535" lon="6.61183">
        <ele>1297</ele>
        <time>2018-05-28T10:17:04Z</time>
      </trkpt>
      <trkpt lat="43.86534" lon="6.61133">
        <ele>1296</ele>
        <time>2018-05-28T10:17:19Z</time>
      </trkpt>
      <trkpt lat="43.86534" lon="6.61071">
        <ele>1296</ele>
        <time>2018-05-28T10:17:36Z</time>
      </trkpt>
      <trkpt lat="43.86534" lon="6.61021">
        <ele>1296</ele>
        <time>2018-05-28T10:17:52Z</time>
      </trkpt>
      <trkpt lat="43.86534" lon="6.60986">
        <ele>1296</ele>
        <time>2018-05-28T10:18:04Z</time>
      </trkpt>
      <trkpt lat="43.86532" lon="6.60939">
        <ele>1296</ele>
        <time>2018-05-28T10:18:17Z</time>
      </trkpt>
      <trkpt lat="43.86531" lon="6.60889">
        <ele>1296</ele>
        <time>2018-05-28T10:18:30Z</time>
      </trkpt>
      <trkpt lat="43.86531" lon="6.60883">
        <ele>1296</ele>
        <time>2018-05-28T10:18:41Z</time>
      </trkpt>
      <trkpt lat="43.8653" lon="6.60873">
        <ele>1296</ele>
        <time>2018-05-28T10:19:01Z</time>
      </trkpt>
      <trkpt lat="43.86529" lon="6.60829">
        <ele>1296</ele>
        <time>2018-05-28T10:19:13Z</time>
      </trkpt>
      <trkpt lat="43.86522" lon="6.60754">
        <ele>1295</ele>
        <time>2018-05-28T10:19:28Z</time>
      </trkpt>
      <trkpt lat="43.86514" lon="6.60656">
        <ele>1293</ele>
        <time>2018-05-28T10:19:46Z</time>
      </trkpt>
      <trkpt lat="43.86512" lon="6.60627">
        <ele>1291</ele>
        <time>2018-05-28T10:19:51Z</time>
      </trkpt>
      <trkpt lat="43.86512" lon="6.60621">
        <ele>1291</ele>
        <time>2018-05-28T10:19:52Z</time>
      </trkpt>
      <trkpt lat="43.86501" lon="6.6051">
        <ele>1290</ele>
        <time>2018-05-28T10:20:07Z</time>
      </trkpt>
      <trkpt lat="43.86494" lon="6.60436">
        <ele>1289</ele>
        <time>2018-05-28T10:20:18Z</time>
      </trkpt>
      <trkpt lat="43.86493" lon="6.6043">
        <ele>1289</ele>
        <time>2018-05-28T10:20:19Z</time>
      </trkpt>
      <trkpt lat="43.86488" lon="6.60367">
        <ele>1288</ele>
        <time>2018-05-28T10:20:32Z</time>
      </trkpt>
      <trkpt lat="43.86487" lon="6.60354">
        <ele>1288</ele>
        <time>2018-05-28T10:20:34Z</time>
      </trkpt>
      <trkpt lat="43.86487" lon="6.6034">
        <ele>1288</ele>
        <time>2018-05-28T10:20:36Z</time>
      </trkpt>
      <trkpt lat="43.86484" lon="6.60293">
        <ele>1288</ele>
        <time>2018-05-28T10:20:47Z</time>
      </trkpt>
      <trkpt lat="43.86483" lon="6.60266">
        <ele>1287</ele>
        <time>2018-05-28T10:20:52Z</time>
      </trkpt>
      <trkpt lat="43.86482" lon="6.6026">
        <ele>1287</ele>
        <time>2018-05-28T10:20:53Z</time>
      </trkpt>
      <trkpt lat="43.86481" lon="6.60253">
        <ele>1287</ele>
        <time>2018-05-28T10:20:54Z</time>
      </trkpt>
      <trkpt lat="43.86479" lon="6.6021">
        <ele>1288</ele>
        <time>2018-05-28T10:21:00Z</time>
      </trkpt>
      <trkpt lat="43.86475" lon="6.60159">
        <ele>1290</ele>
        <time>2018-05-28T10:21:10Z</time>
      </trkpt>
      <trkpt lat="43.86471" lon="6.60107">
        <ele>1290</ele>
        <time>2018-05-28T10:21:21Z</time>
      </trkpt>
      <trkpt lat="43.86466" lon="6.60046">
        <ele>1289</ele>
        <time>2018-05-28T10:21:35Z</time>
      </trkpt>
      <trkpt lat="43.86457" lon="6.59976">
        <ele>1289</ele>
        <time>2018-05-28T10:21:44Z</time>
      </trkpt>
      <trkpt lat="43.86453" lon="6.59902">
        <ele>1289</ele>
        <time>2018-05-28T10:21:56Z</time>
      </trkpt>
      <trkpt lat="43.86453" lon="6.59856">
        <ele>1292</ele>
        <time>2018-05-28T10:22:09Z</time>
      </trkpt>
      <trkpt lat="43.86451" lon="6.59833">
        <ele>1293</ele>
        <time>2018-05-28T10:22:22Z</time>
      </trkpt>
      <trkpt lat="43.86451" lon="6.59831">
        <ele>1293</ele>
        <time>2018-05-28T10:22:40Z</time>
      </trkpt>
      <trkpt lat="43.86452" lon="6.5983">
        <ele>1292</ele>
        <time>2018-05-28T10:22:41Z</time>
      </trkpt>
      <trkpt lat="43.86452" lon="6.59828">
        <ele>1292</ele>
        <time>2018-05-28T10:22:42Z</time>
      </trkpt>
      <trkpt lat="43.86453" lon="6.59826">
        <ele>1292</ele>
        <time>2018-05-28T10:22:43Z</time>
      </trkpt>
      <trkpt lat="43.86453" lon="6.59823">
        <ele>1292</ele>
        <time>2018-05-28T10:22:44Z</time>
      </trkpt>
      <trkpt lat="43.86453" lon="6.5982">
        <ele>1292</ele>
        <time>2018-05-28T10:22:45Z</time>
      </trkpt>
      <trkpt lat="43.86451" lon="6.5979">
        <ele>1293</ele>
        <time>2018-05-28T10:22:58Z</time>
      </trkpt>
      <trkpt lat="43.86451" lon="6.59787">
        <ele>1293</ele>
        <time>2018-05-28T10:22:59Z</time>
      </trkpt>
      <trkpt lat="43.86451" lon="6.59785">
        <ele>1293</ele>
        <time>2018-05-28T10:23:00Z</time>
      </trkpt>
      <trkpt lat="43.86448" lon="6.59747">
        <ele>1293</ele>
        <time>2018-05-28T10:23:16Z</time>
      </trkpt>
      <trkpt lat="43.86446" lon="6.59732">
        <ele>1294</ele>
        <time>2018-05-28T10:23:24Z</time>
      </trkpt>
      <trkpt lat="43.86445" lon="6.5973">
        <ele>1294</ele>
        <time>2018-05-28T10:23:25Z</time>
      </trkpt>
      <trkpt lat="43.86444" lon="6.59727">
        <ele>1294</ele>
        <time>2018-05-28T10:23:26Z</time>
      </trkpt>
      <trkpt lat="43.86438" lon="6.59694">
        <ele>1295</ele>
        <time>2018-05-28T10:23:39Z</time>
      </trkpt>
      <trkpt lat="43.86433" lon="6.5966">
        <ele>1296</ele>
        <time>2018-05-28T10:23:54Z</time>
      </trkpt>
      <trkpt lat="43.86433" lon="6.59658">
        <ele>1296</ele>
        <time>2018-05-28T10:23:55Z</time>
      </trkpt>
      <trkpt lat="43.8643" lon="6.5964">
        <ele>1296</ele>
        <time>2018-05-28T10:24:03Z</time>
      </trkpt>
      <trkpt lat="43.8643" lon="6.59639">
        <ele>1296</ele>
        <time>2018-05-28T10:24:04Z</time>
      </trkpt>
      <trkpt lat="43.86429" lon="6.59637">
        <ele>1296</ele>
        <time>2018-05-28T10:24:05Z</time>
      </trkpt>
      <trkpt lat="43.86428" lon="6.59629">
        <ele>1297</ele>
        <time>2018-05-28T10:24:09Z</time>
      </trkpt>
      <trkpt lat="43.86427" lon="6.59627">
        <ele>1297</ele>
        <time>2018-05-28T10:24:10Z</time>
      </trkpt>
      <trkpt lat="43.86425" lon="6.59609">
        <ele>1297</ele>
        <time>2018-05-28T10:24:17Z</time>
      </trkpt>
      <trkpt lat="43.86417" lon="6.59577">
        <ele>1296</ele>
        <time>2018-05-28T10:24:30Z</time>
      </trkpt>
      <trkpt lat="43.86404" lon="6.59547">
        <ele>1297</ele>
        <time>2018-05-28T10:24:41Z</time>
      </trkpt>
      <trkpt lat="43.86403" lon="6.59544">
        <ele>1297</ele>
        <time>2018-05-28T10:24:42Z</time>
      </trkpt>
      <trkpt lat="43.86401" lon="6.59541">
        <ele>1297</ele>
        <time>2018-05-28T10:24:43Z</time>
      </trkpt>
      <trkpt lat="43.864" lon="6.59539">
        <ele>1297</ele>
        <time>2018-05-28T10:24:44Z</time>
      </trkpt>
      <trkpt lat="43.86399" lon="6.59536">
        <ele>1297</ele>
        <time>2018-05-28T10:24:45Z</time>
      </trkpt>
      <trkpt lat="43.86398" lon="6.59534">
        <ele>1297</ele>
        <time>2018-05-28T10:24:46Z</time>
      </trkpt>
      <trkpt lat="43.86396" lon="6.59532">
        <ele>1297</ele>
        <time>2018-05-28T10:24:47Z</time>
      </trkpt>
      <trkpt lat="43.86374" lon="6.59488">
        <ele>1297</ele>
        <time>2018-05-28T10:24:59Z</time>
      </trkpt>
      <trkpt lat="43.8636" lon="6.59462">
        <ele>1299</ele>
        <time>2018-05-28T10:25:04Z</time>
      </trkpt>
      <trkpt lat="43.86356" lon="6.59457">
        <ele>1299</ele>
        <time>2018-05-28T10:25:05Z</time>
      </trkpt>
      <trkpt lat="43.86353" lon="6.59453">
        <ele>1300</ele>
        <time>2018-05-28T10:25:06Z</time>
      </trkpt>
      <trkpt lat="43.86343" lon="6.59422">
        <ele>1300</ele>
        <time>2018-05-28T10:25:15Z</time>
      </trkpt>
      <trkpt lat="43.86337" lon="6.59372">
        <ele>1296</ele>
        <time>2018-05-28T10:25:26Z</time>
      </trkpt>
      <trkpt lat="43.8633" lon="6.59352">
        <ele>1295</ele>
        <time>2018-05-28T10:25:33Z</time>
      </trkpt>
      <trkpt lat="43.86329" lon="6.59351">
        <ele>1295</ele>
        <time>2018-05-28T10:25:34Z</time>
      </trkpt>
      <trkpt lat="43.86328" lon="6.59351">
        <ele>1295</ele>
        <time>2018-05-28T10:25:51Z</time>
      </trkpt>
      <trkpt lat="43.86325" lon="6.5935">
        <ele>1295</ele>
        <time>2018-05-28T10:26:23Z</time>
      </trkpt>
      <trkpt lat="43.86299" lon="6.59337">
        <ele>1294</ele>
        <time>2018-05-28T10:26:36Z</time>
      </trkpt>
      <trkpt lat="43.86271" lon="6.59335">
        <ele>1293</ele>
        <time>2018-05-28T10:26:43Z</time>
      </trkpt>
      <trkpt lat="43.86267" lon="6.59337">
        <ele>1294</ele>
        <time>2018-05-28T10:26:44Z</time>
      </trkpt>
      <trkpt lat="43.86264" lon="6.5934">
        <ele>1294</ele>
        <time>2018-05-28T10:26:45Z</time>
      </trkpt>
      <trkpt lat="43.86241" lon="6.59369">
        <ele>1303</ele>
        <time>2018-05-28T10:26:51Z</time>
      </trkpt>
      <trkpt lat="43.86235" lon="6.59371">
        <ele>1304</ele>
        <time>2018-05-28T10:26:52Z</time>
      </trkpt>
      <trkpt lat="43.86231" lon="6.5937">
        <ele>1305</ele>
        <time>2018-05-28T10:26:53Z</time>
      </trkpt>
      <trkpt lat="43.86228" lon="6.59368">
        <ele>1304</ele>
        <time>2018-05-28T10:26:54Z</time>
      </trkpt>
      <trkpt lat="43.86225" lon="6.59364">
        <ele>1304</ele>
        <time>2018-05-28T10:26:55Z</time>
      </trkpt>
      <trkpt lat="43.86221" lon="6.59359">
        <ele>1303</ele>
        <time>2018-05-28T10:26:56Z</time>
      </trkpt>
      <trkpt lat="43.8622" lon="6.59355">
        <ele>1302</ele>
        <time>2018-05-28T10:26:57Z</time>
      </trkpt>
      <trkpt lat="43.86219" lon="6.5935">
        <ele>1301</ele>
        <time>2018-05-28T10:26:58Z</time>
      </trkpt>
      <trkpt lat="43.86218" lon="6.59345">
        <ele>1300</ele>
        <time>2018-05-28T10:26:59Z</time>
      </trkpt>
      <trkpt lat="43.86217" lon="6.59341">
        <ele>1299</ele>
        <time>2018-05-28T10:27:00Z</time>
      </trkpt>
      <trkpt lat="43.86216" lon="6.59337">
        <ele>1298</ele>
        <time>2018-05-28T10:27:01Z</time>
      </trkpt>
      <trkpt lat="43.86215" lon="6.59334">
        <ele>1298</ele>
        <time>2018-05-28T10:27:02Z</time>
      </trkpt>
      <trkpt lat="43.86214" lon="6.59331">
        <ele>1297</ele>
        <time>2018-05-28T10:27:03Z</time>
      </trkpt>
      <trkpt lat="43.86185" lon="6.5928">
        <ele>1295</ele>
        <time>2018-05-28T10:27:14Z</time>
      </trkpt>
      <trkpt lat="43.86182" lon="6.59275">
        <ele>1296</ele>
        <time>2018-05-28T10:27:15Z</time>
      </trkpt>
      <trkpt lat="43.86167" lon="6.5926">
        <ele>1298</ele>
        <time>2018-05-28T10:27:18Z</time>
      </trkpt>
      <trkpt lat="43.8616" lon="6.59254">
        <ele>1299</ele>
        <time>2018-05-28T10:27:19Z</time>
      </trkpt>
      <trkpt lat="43.86154" lon="6.59248">
        <ele>1300</ele>
        <time>2018-05-28T10:27:20Z</time>
      </trkpt>
      <trkpt lat="43.86149" lon="6.59241">
        <ele>1300</ele>
        <time>2018-05-28T10:27:21Z</time>
      </trkpt>
      <trkpt lat="43.86145" lon="6.59235">
        <ele>1300</ele>
        <time>2018-05-28T10:27:22Z</time>
      </trkpt>
      <trkpt lat="43.86123" lon="6.59207">
        <ele>1300</ele>
        <time>2018-05-28T10:27:31Z</time>
      </trkpt>
      <trkpt lat="43.86097" lon="6.59174">
        <ele>1300</ele>
        <time>2018-05-28T10:27:43Z</time>
      </trkpt>
      <trkpt lat="43.86076" lon="6.59149">
        <ele>1300</ele>
        <time>2018-05-28T10:27:56Z</time>
      </trkpt>
      <trkpt lat="43.86073" lon="6.59138">
        <ele>1299</ele>
        <time>2018-05-28T10:28:03Z</time>
      </trkpt>
      <trkpt lat="43.86077" lon="6.59128">
        <ele>1297</ele>
        <time>2018-05-28T10:28:08Z</time>
      </trkpt>
      <trkpt lat="43.86078" lon="6.59129">
        <ele>1297</ele>
        <time>2018-05-28T10:28:09Z</time>
      </trkpt>
      <trkpt lat="43.86079" lon="6.59133">
        <ele>1298</ele>
        <time>2018-05-28T10:28:12Z</time>
      </trkpt>
      <trkpt lat="43.86074" lon="6.5914">
        <ele>1299</ele>
        <time>2018-05-28T10:28:28Z</time>
      </trkpt>
      <trkpt lat="43.86074" lon="6.5914">
        <ele>1299</ele>
        <time>2018-05-28T10:28:50Z</time>
      </trkpt>
      <trkpt lat="43.86074" lon="6.59145">
        <ele>1300</ele>
        <time>2018-05-28T10:29:02Z</time>
      </trkpt>
      <trkpt lat="43.86074" lon="6.59144">
        <ele>1300</ele>
        <time>2018-05-28T10:29:13Z</time>
      </trkpt>
      <trkpt lat="43.86075" lon="6.59144">
        <ele>1299</ele>
        <time>2018-05-28T10:29:23Z</time>
      </trkpt>
      <trkpt lat="43.86075" lon="6.59144">
        <ele>1299</ele>
        <time>2018-05-28T10:29:43Z</time>
      </trkpt>
      <trkpt lat="43.86075" lon="6.59142">
        <ele>1299</ele>
        <time>2018-05-28T10:30:18Z</time>
      </trkpt>
      <trkpt lat="43.86071" lon="6.59136">
        <ele>1299</ele>
        <time>2018-05-28T10:30:21Z</time>
      </trkpt>
      <trkpt lat="43.86067" lon="6.59135">
        <ele>1299</ele>
        <time>2018-05-28T10:30:22Z</time>
      </trkpt>
      <trkpt lat="43.86064" lon="6.59135">
        <ele>1300</ele>
        <time>2018-05-28T10:30:23Z</time>
      </trkpt>
      <trkpt lat="43.8606" lon="6.59136">
        <ele>1300</ele>
        <time>2018-05-28T10:30:24Z</time>
      </trkpt>
      <trkpt lat="43.86054" lon="6.59136">
        <ele>1301</ele>
        <time>2018-05-28T10:30:25Z</time>
      </trkpt>
      <trkpt lat="43.8605" lon="6.59134">
        <ele>1301</ele>
        <time>2018-05-28T10:30:26Z</time>
      </trkpt>
      <trkpt lat="43.86047" lon="6.59132">
        <ele>1301</ele>
        <time>2018-05-28T10:30:27Z</time>
      </trkpt>
      <trkpt lat="43.86043" lon="6.59129">
        <ele>1301</ele>
        <time>2018-05-28T10:30:28Z</time>
      </trkpt>
      <trkpt lat="43.8604" lon="6.59126">
        <ele>1301</ele>
        <time>2018-05-28T10:30:29Z</time>
      </trkpt>
      <trkpt lat="43.86036" lon="6.59122">
        <ele>1301</ele>
        <time>2018-05-28T10:30:30Z</time>
      </trkpt>
      <trkpt lat="43.86032" lon="6.59117">
        <ele>1300</ele>
        <time>2018-05-28T10:30:31Z</time>
      </trkpt>
      <trkpt lat="43.86028" lon="6.59114">
        <ele>1300</ele>
        <time>2018-05-28T10:30:32Z</time>
      </trkpt>
      <trkpt lat="43.86024" lon="6.59112">
        <ele>1300</ele>
        <time>2018-05-28T10:30:33Z</time>
      </trkpt>
      <trkpt lat="43.86019" lon="6.59111">
        <ele>1301</ele>
        <time>2018-05-28T10:30:34Z</time>
      </trkpt>
      <trkpt lat="43.86014" lon="6.59109">
        <ele>1301</ele>
        <time>2018-05-28T10:30:35Z</time>
      </trkpt>
      <trkpt lat="43.8601" lon="6.59107">
        <ele>1301</ele>
        <time>2018-05-28T10:30:36Z</time>
      </trkpt>
      <trkpt lat="43.86007" lon="6.59103">
        <ele>1301</ele>
        <time>2018-05-28T10:30:37Z</time>
      </trkpt>
      <trkpt lat="43.86" lon="6.59095">
        <ele>1300</ele>
        <time>2018-05-28T10:30:39Z</time>
      </trkpt>
      <trkpt lat="43.85996" lon="6.59093">
        <ele>1300</ele>
        <time>2018-05-28T10:30:40Z</time>
      </trkpt>
      <trkpt lat="43.85992" lon="6.5909">
        <ele>1300</ele>
        <time>2018-05-28T10:30:41Z</time>
      </trkpt>
      <trkpt lat="43.85963" lon="6.59061">
        <ele>1295</ele>
        <time>2018-05-28T10:30:48Z</time>
      </trkpt>
      <trkpt lat="43.85929" lon="6.59034">
        <ele>1289</ele>
        <time>2018-05-28T10:30:58Z</time>
      </trkpt>
      <trkpt lat="43.85925" lon="6.59032">
        <ele>1288</ele>
        <time>2018-05-28T10:30:59Z</time>
      </trkpt>
      <trkpt lat="43.8592" lon="6.59032">
        <ele>1289</ele>
        <time>2018-05-28T10:31:00Z</time>
      </trkpt>
      <trkpt lat="43.85901" lon="6.59038">
        <ele>1293</ele>
        <time>2018-05-28T10:31:06Z</time>
      </trkpt>
      <trkpt lat="43.85896" lon="6.59039">
        <ele>1294</ele>
        <time>2018-05-28T10:31:07Z</time>
      </trkpt>
      <trkpt lat="43.85891" lon="6.59039">
        <ele>1294</ele>
        <time>2018-05-28T10:31:08Z</time>
      </trkpt>
      <trkpt lat="43.85886" lon="6.59037">
        <ele>1294</ele>
        <time>2018-05-28T10:31:09Z</time>
      </trkpt>
      <trkpt lat="43.8588" lon="6.59035">
        <ele>1293</ele>
        <time>2018-05-28T10:31:10Z</time>
      </trkpt>
      <trkpt lat="43.85875" lon="6.59032">
        <ele>1292</ele>
        <time>2018-05-28T10:31:11Z</time>
      </trkpt>
      <trkpt lat="43.85854" lon="6.59023">
        <ele>1289</ele>
        <time>2018-05-28T10:31:15Z</time>
      </trkpt>
      <trkpt lat="43.85849" lon="6.5902">
        <ele>1288</ele>
        <time>2018-05-28T10:31:16Z</time>
      </trkpt>
      <trkpt lat="43.85835" lon="6.59015">
        <ele>1288</ele>
        <time>2018-05-28T10:31:19Z</time>
      </trkpt>
      <trkpt lat="43.8583" lon="6.59014">
        <ele>1288</ele>
        <time>2018-05-28T10:31:20Z</time>
      </trkpt>
      <trkpt lat="43.85824" lon="6.59012">
        <ele>1287</ele>
        <time>2018-05-28T10:31:21Z</time>
      </trkpt>
      <trkpt lat="43.85812" lon="6.59007">
        <ele>1286</ele>
        <time>2018-05-28T10:31:23Z</time>
      </trkpt>
      <trkpt lat="43.85807" lon="6.59005">
        <ele>1286</ele>
        <time>2018-05-28T10:31:24Z</time>
      </trkpt>
      <trkpt lat="43.85775" lon="6.58994">
        <ele>1280</ele>
        <time>2018-05-28T10:31:34Z</time>
      </trkpt>
      <trkpt lat="43.85763" lon="6.58993">
        <ele>1279</ele>
        <time>2018-05-28T10:31:38Z</time>
      </trkpt>
      <trkpt lat="43.85743" lon="6.59">
        <ele>1281</ele>
        <time>2018-05-28T10:31:47Z</time>
      </trkpt>
      <trkpt lat="43.85732" lon="6.59">
        <ele>1281</ele>
        <time>2018-05-28T10:31:58Z</time>
      </trkpt>
      <trkpt lat="43.85723" lon="6.59001">
        <ele>1281</ele>
        <time>2018-05-28T10:32:10Z</time>
      </trkpt>
      <trkpt lat="43.85721" lon="6.59001">
        <ele>1280</ele>
        <time>2018-05-28T10:32:13Z</time>
      </trkpt>
      <trkpt lat="43.85714" lon="6.59003">
        <ele>1280</ele>
        <time>2018-05-28T10:32:18Z</time>
      </trkpt>
      <trkpt lat="43.85712" lon="6.59004">
        <ele>1280</ele>
        <time>2018-05-28T10:32:19Z</time>
      </trkpt>
      <trkpt lat="43.8571" lon="6.59004">
        <ele>1280</ele>
        <time>2018-05-28T10:32:20Z</time>
      </trkpt>
      <trkpt lat="43.85709" lon="6.59005">
        <ele>1280</ele>
        <time>2018-05-28T10:32:21Z</time>
      </trkpt>
      <trkpt lat="43.85707" lon="6.59005">
        <ele>1280</ele>
        <time>2018-05-28T10:32:22Z</time>
      </trkpt>
      <trkpt lat="43.85705" lon="6.59006">
        <ele>1279</ele>
        <time>2018-05-28T10:32:23Z</time>
      </trkpt>
      <trkpt lat="43.85704" lon="6.59007">
        <ele>1279</ele>
        <time>2018-05-28T10:32:24Z</time>
      </trkpt>
      <trkpt lat="43.85702" lon="6.59008">
        <ele>1279</ele>
        <time>2018-05-28T10:32:25Z</time>
      </trkpt>
      <trkpt lat="43.857" lon="6.59009">
        <ele>1279</ele>
        <time>2018-05-28T10:32:26Z</time>
      </trkpt>
      <trkpt lat="43.85698" lon="6.59012">
        <ele>1280</ele>
        <time>2018-05-28T10:32:27Z</time>
      </trkpt>
      <trkpt lat="43.85696" lon="6.59014">
        <ele>1280</ele>
        <time>2018-05-28T10:32:28Z</time>
      </trkpt>
      <trkpt lat="43.85693" lon="6.59017">
        <ele>1281</ele>
        <time>2018-05-28T10:32:29Z</time>
      </trkpt>
      <trkpt lat="43.85691" lon="6.59019">
        <ele>1281</ele>
        <time>2018-05-28T10:32:30Z</time>
      </trkpt>
      <trkpt lat="43.85688" lon="6.5902">
        <ele>1280</ele>
        <time>2018-05-28T10:32:31Z</time>
      </trkpt>
      <trkpt lat="43.85685" lon="6.5902">
        <ele>1280</ele>
        <time>2018-05-28T10:32:32Z</time>
      </trkpt>
      <trkpt lat="43.85682" lon="6.5902">
        <ele>1279</ele>
        <time>2018-05-28T10:32:33Z</time>
      </trkpt>
      <trkpt lat="43.85679" lon="6.59021">
        <ele>1279</ele>
        <time>2018-05-28T10:32:34Z</time>
      </trkpt>
      <trkpt lat="43.85676" lon="6.59022">
        <ele>1278</ele>
        <time>2018-05-28T10:32:35Z</time>
      </trkpt>
      <trkpt lat="43.85672" lon="6.59023">
        <ele>1278</ele>
        <time>2018-05-28T10:32:36Z</time>
      </trkpt>
      <trkpt lat="43.85669" lon="6.59025">
        <ele>1278</ele>
        <time>2018-05-28T10:32:37Z</time>
      </trkpt>
      <trkpt lat="43.85666" lon="6.59028">
        <ele>1278</ele>
        <time>2018-05-28T10:32:38Z</time>
      </trkpt>
      <trkpt lat="43.85633" lon="6.5903">
        <ele>1271</ele>
        <time>2018-05-28T10:32:47Z</time>
      </trkpt>
      <trkpt lat="43.85599" lon="6.59042">
        <ele>1268</ele>
        <time>2018-05-28T10:32:56Z</time>
      </trkpt>
      <trkpt lat="43.85595" lon="6.59044">
        <ele>1269</ele>
        <time>2018-05-28T10:32:57Z</time>
      </trkpt>
      <trkpt lat="43.85592" lon="6.59046">
        <ele>1268</ele>
        <time>2018-05-28T10:32:58Z</time>
      </trkpt>
      <trkpt lat="43.85589" lon="6.59046">
        <ele>1268</ele>
        <time>2018-05-28T10:32:59Z</time>
      </trkpt>
      <trkpt lat="43.85586" lon="6.59045">
        <ele>1267</ele>
        <time>2018-05-28T10:33:00Z</time>
      </trkpt>
      <trkpt lat="43.85584" lon="6.59045">
        <ele>1266</ele>
        <time>2018-05-28T10:33:01Z</time>
      </trkpt>
      <trkpt lat="43.85583" lon="6.59044">
        <ele>1266</ele>
        <time>2018-05-28T10:33:12Z</time>
      </trkpt>
      <trkpt lat="43.85583" lon="6.59044">
        <ele>1266</ele>
        <time>2018-05-28T10:33:40Z</time>
      </trkpt>
      <trkpt lat="43.85581" lon="6.59045">
        <ele>1266</ele>
        <time>2018-05-28T10:33:49Z</time>
      </trkpt>
      <trkpt lat="43.85578" lon="6.59046">
        <ele>1265</ele>
        <time>2018-05-28T10:33:50Z</time>
      </trkpt>
      <trkpt lat="43.85576" lon="6.59048">
        <ele>1265</ele>
        <time>2018-05-28T10:33:51Z</time>
      </trkpt>
      <trkpt lat="43.85574" lon="6.5905">
        <ele>1265</ele>
        <time>2018-05-28T10:33:52Z</time>
      </trkpt>
      <trkpt lat="43.85571" lon="6.59053">
        <ele>1265</ele>
        <time>2018-05-28T10:33:53Z</time>
      </trkpt>
      <trkpt lat="43.8556" lon="6.59063">
        <ele>1265</ele>
        <time>2018-05-28T10:33:56Z</time>
      </trkpt>
      <trkpt lat="43.85541" lon="6.59076">
        <ele>1263</ele>
        <time>2018-05-28T10:34:01Z</time>
      </trkpt>
      <trkpt lat="43.85536" lon="6.59077">
        <ele>1262</ele>
        <time>2018-05-28T10:34:02Z</time>
      </trkpt>
      <trkpt lat="43.85516" lon="6.59074">
        <ele>1258</ele>
        <time>2018-05-28T10:34:09Z</time>
      </trkpt>
      <trkpt lat="43.85513" lon="6.59074">
        <ele>1258</ele>
        <time>2018-05-28T10:34:10Z</time>
      </trkpt>
      <trkpt lat="43.85498" lon="6.59072">
        <ele>1256</ele>
        <time>2018-05-28T10:34:16Z</time>
      </trkpt>
      <trkpt lat="43.85494" lon="6.59071">
        <ele>1255</ele>
        <time>2018-05-28T10:34:17Z</time>
      </trkpt>
      <trkpt lat="43.85487" lon="6.5907">
        <ele>1255</ele>
        <time>2018-05-28T10:34:26Z</time>
      </trkpt>
      <trkpt lat="43.85479" lon="6.5907">
        <ele>1255</ele>
        <time>2018-05-28T10:34:33Z</time>
      </trkpt>
      <trkpt lat="43.8547" lon="6.59062">
        <ele>1254</ele>
        <time>2018-05-28T10:34:38Z</time>
      </trkpt>
      <trkpt lat="43.85469" lon="6.59059">
        <ele>1253</ele>
        <time>2018-05-28T10:34:39Z</time>
      </trkpt>
      <trkpt lat="43.85475" lon="6.59024">
        <ele>1247</ele>
        <time>2018-05-28T10:34:47Z</time>
      </trkpt>
      <trkpt lat="43.85477" lon="6.59022">
        <ele>1246</ele>
        <time>2018-05-28T10:34:48Z</time>
      </trkpt>
      <trkpt lat="43.85479" lon="6.59019">
        <ele>1245</ele>
        <time>2018-05-28T10:34:49Z</time>
      </trkpt>
      <trkpt lat="43.85481" lon="6.59016">
        <ele>1245</ele>
        <time>2018-05-28T10:34:50Z</time>
      </trkpt>
      <trkpt lat="43.85482" lon="6.59012">
        <ele>1244</ele>
        <time>2018-05-28T10:34:51Z</time>
      </trkpt>
      <trkpt lat="43.85483" lon="6.59008">
        <ele>1244</ele>
        <time>2018-05-28T10:34:52Z</time>
      </trkpt>
      <trkpt lat="43.85482" lon="6.59003">
        <ele>1243</ele>
        <time>2018-05-28T10:34:53Z</time>
      </trkpt>
      <trkpt lat="43.85481" lon="6.58997">
        <ele>1242</ele>
        <time>2018-05-28T10:34:54Z</time>
      </trkpt>
      <trkpt lat="43.85478" lon="6.58993">
        <ele>1242</ele>
        <time>2018-05-28T10:34:55Z</time>
      </trkpt>
      <trkpt lat="43.85477" lon="6.5899">
        <ele>1242</ele>
        <time>2018-05-28T10:34:56Z</time>
      </trkpt>
      <trkpt lat="43.85475" lon="6.58985">
        <ele>1242</ele>
        <time>2018-05-28T10:34:57Z</time>
      </trkpt>
      <trkpt lat="43.85474" lon="6.5898">
        <ele>1241</ele>
        <time>2018-05-28T10:34:58Z</time>
      </trkpt>
      <trkpt lat="43.85474" lon="6.58976">
        <ele>1241</ele>
        <time>2018-05-28T10:34:59Z</time>
      </trkpt>
      <trkpt lat="43.85475" lon="6.58959">
        <ele>1240</ele>
        <time>2018-05-28T10:35:03Z</time>
      </trkpt>
      <trkpt lat="43.85476" lon="6.58953">
        <ele>1240</ele>
        <time>2018-05-28T10:35:04Z</time>
      </trkpt>
      <trkpt lat="43.85477" lon="6.58948">
        <ele>1239</ele>
        <time>2018-05-28T10:35:05Z</time>
      </trkpt>
      <trkpt lat="43.85479" lon="6.58943">
        <ele>1239</ele>
        <time>2018-05-28T10:35:06Z</time>
      </trkpt>
      <trkpt lat="43.8548" lon="6.58938">
        <ele>1238</ele>
        <time>2018-05-28T10:35:07Z</time>
      </trkpt>
      <trkpt lat="43.8548" lon="6.58932">
        <ele>1238</ele>
        <time>2018-05-28T10:35:08Z</time>
      </trkpt>
      <trkpt lat="43.8548" lon="6.58926">
        <ele>1238</ele>
        <time>2018-05-28T10:35:09Z</time>
      </trkpt>
      <trkpt lat="43.85478" lon="6.58922">
        <ele>1238</ele>
        <time>2018-05-28T10:35:10Z</time>
      </trkpt>
      <trkpt lat="43.85476" lon="6.58918">
        <ele>1238</ele>
        <time>2018-05-28T10:35:11Z</time>
      </trkpt>
      <trkpt lat="43.85474" lon="6.58915">
        <ele>1238</ele>
        <time>2018-05-28T10:35:12Z</time>
      </trkpt>
      <trkpt lat="43.85472" lon="6.58912">
        <ele>1238</ele>
        <time>2018-05-28T10:35:13Z</time>
      </trkpt>
      <trkpt lat="43.8547" lon="6.58911">
        <ele>1239</ele>
        <time>2018-05-28T10:35:14Z</time>
      </trkpt>
      <trkpt lat="43.85468" lon="6.5891">
        <ele>1239</ele>
        <time>2018-05-28T10:35:15Z</time>
      </trkpt>
      <trkpt lat="43.85443" lon="6.58894">
        <ele>1242</ele>
        <time>2018-05-28T10:35:28Z</time>
      </trkpt>
      <trkpt lat="43.85434" lon="6.58883">
        <ele>1243</ele>
        <time>2018-05-28T10:35:36Z</time>
      </trkpt>
      <trkpt lat="43.85432" lon="6.58882">
        <ele>1243</ele>
        <time>2018-05-28T10:35:37Z</time>
      </trkpt>
      <trkpt lat="43.85431" lon="6.58882">
        <ele>1244</ele>
        <time>2018-05-28T10:35:38Z</time>
      </trkpt>
      <trkpt lat="43.8543" lon="6.58882">
        <ele>1244</ele>
        <time>2018-05-28T10:35:39Z</time>
      </trkpt>
      <trkpt lat="43.85429" lon="6.58883">
        <ele>1244</ele>
        <time>2018-05-28T10:35:40Z</time>
      </trkpt>
      <trkpt lat="43.85428" lon="6.58885">
        <ele>1245</ele>
        <time>2018-05-28T10:35:41Z</time>
      </trkpt>
      <trkpt lat="43.85428" lon="6.58887">
        <ele>1245</ele>
        <time>2018-05-28T10:35:42Z</time>
      </trkpt>
      <trkpt lat="43.85428" lon="6.58889">
        <ele>1245</ele>
        <time>2018-05-28T10:35:43Z</time>
      </trkpt>
      <trkpt lat="43.85428" lon="6.58891">
        <ele>1245</ele>
        <time>2018-05-28T10:35:44Z</time>
      </trkpt>
      <trkpt lat="43.85428" lon="6.58892">
        <ele>1245</ele>
        <time>2018-05-28T10:35:45Z</time>
      </trkpt>
      <trkpt lat="43.85429" lon="6.58894">
        <ele>1245</ele>
        <time>2018-05-28T10:35:46Z</time>
      </trkpt>
      <trkpt lat="43.85439" lon="6.58919">
        <ele>1245</ele>
        <time>2018-05-28T10:36:00Z</time>
      </trkpt>
      <trkpt lat="43.85439" lon="6.5892">
        <ele>1245</ele>
        <time>2018-05-28T10:36:01Z</time>
      </trkpt>
      <trkpt lat="43.85439" lon="6.58922">
        <ele>1245</ele>
        <time>2018-05-28T10:36:02Z</time>
      </trkpt>
      <trkpt lat="43.8544" lon="6.58924">
        <ele>1245</ele>
        <time>2018-05-28T10:36:03Z</time>
      </trkpt>
      <trkpt lat="43.8544" lon="6.58927">
        <ele>1245</ele>
        <time>2018-05-28T10:36:04Z</time>
      </trkpt>
      <trkpt lat="43.8544" lon="6.58929">
        <ele>1245</ele>
        <time>2018-05-28T10:36:05Z</time>
      </trkpt>
      <trkpt lat="43.8544" lon="6.58931">
        <ele>1245</ele>
        <time>2018-05-28T10:36:06Z</time>
      </trkpt>
      <trkpt lat="43.8544" lon="6.58933">
        <ele>1245</ele>
        <time>2018-05-28T10:36:07Z</time>
      </trkpt>
      <trkpt lat="43.85442" lon="6.58947">
        <ele>1245</ele>
        <time>2018-05-28T10:36:17Z</time>
      </trkpt>
      <trkpt lat="43.85443" lon="6.58954">
        <ele>1245</ele>
        <time>2018-05-28T10:36:22Z</time>
      </trkpt>
      <trkpt lat="43.85444" lon="6.58958">
        <ele>1245</ele>
        <time>2018-05-28T10:36:25Z</time>
      </trkpt>
      <trkpt lat="43.85444" lon="6.58963">
        <ele>1245</ele>
        <time>2018-05-28T10:36:29Z</time>
      </trkpt>
      <trkpt lat="43.85441" lon="6.58981">
        <ele>1247</ele>
        <time>2018-05-28T10:36:42Z</time>
      </trkpt>
      <trkpt lat="43.85436" lon="6.58999">
        <ele>1250</ele>
        <time>2018-05-28T10:36:58Z</time>
      </trkpt>
      <trkpt lat="43.85431" lon="6.58997">
        <ele>1251</ele>
        <time>2018-05-28T10:37:03Z</time>
      </trkpt>
      <trkpt lat="43.8543" lon="6.58998">
        <ele>1251</ele>
        <time>2018-05-28T10:37:04Z</time>
      </trkpt>
      <trkpt lat="43.85429" lon="6.58998">
        <ele>1252</ele>
        <time>2018-05-28T10:37:05Z</time>
      </trkpt>
      <trkpt lat="43.8543" lon="6.59">
        <ele>1252</ele>
        <time>2018-05-28T10:37:16Z</time>
      </trkpt>
      <trkpt lat="43.85427" lon="6.59005">
        <ele>1253</ele>
        <time>2018-05-28T10:37:57Z</time>
      </trkpt>
      <trkpt lat="43.85429" lon="6.59005">
        <ele>1252</ele>
        <time>2018-05-28T10:38:36Z</time>
      </trkpt>
      <trkpt lat="43.85429" lon="6.59001">
        <ele>1252</ele>
        <time>2018-05-28T10:39:03Z</time>
      </trkpt>
      <trkpt lat="43.85428" lon="6.59">
        <ele>1252</ele>
        <time>2018-05-28T10:39:16Z</time>
      </trkpt>
      <trkpt lat="43.85428" lon="6.58998">
        <ele>1252</ele>
        <time>2018-05-28T10:39:17Z</time>
      </trkpt>
      <trkpt lat="43.85427" lon="6.58995">
        <ele>1252</ele>
        <time>2018-05-28T10:39:19Z</time>
      </trkpt>
      <trkpt lat="43.85409" lon="6.58979">
        <ele>1255</ele>
        <time>2018-05-28T10:39:33Z</time>
      </trkpt>
      <trkpt lat="43.85404" lon="6.58974">
        <ele>1256</ele>
        <time>2018-05-28T10:39:37Z</time>
      </trkpt>
      <trkpt lat="43.85403" lon="6.58972">
        <ele>1256</ele>
        <time>2018-05-28T10:39:38Z</time>
      </trkpt>
      <trkpt lat="43.85402" lon="6.5897">
        <ele>1256</ele>
        <time>2018-05-28T10:39:39Z</time>
      </trkpt>
      <trkpt lat="43.85401" lon="6.58967">
        <ele>1256</ele>
        <time>2018-05-28T10:39:40Z</time>
      </trkpt>
      <trkpt lat="43.85399" lon="6.58965">
        <ele>1256</ele>
        <time>2018-05-28T10:39:41Z</time>
      </trkpt>
      <trkpt lat="43.85398" lon="6.58962">
        <ele>1257</ele>
        <time>2018-05-28T10:39:42Z</time>
      </trkpt>
      <trkpt lat="43.85396" lon="6.5896">
        <ele>1257</ele>
        <time>2018-05-28T10:39:43Z</time>
      </trkpt>
      <trkpt lat="43.85394" lon="6.58957">
        <ele>1257</ele>
        <time>2018-05-28T10:39:44Z</time>
      </trkpt>
      <trkpt lat="43.85393" lon="6.58954">
        <ele>1257</ele>
        <time>2018-05-28T10:39:45Z</time>
      </trkpt>
      <trkpt lat="43.85391" lon="6.58951">
        <ele>1257</ele>
        <time>2018-05-28T10:39:46Z</time>
      </trkpt>
      <trkpt lat="43.85384" lon="6.58913">
        <ele>1256</ele>
        <time>2018-05-28T10:39:57Z</time>
      </trkpt>
      <trkpt lat="43.85372" lon="6.58876">
        <ele>1256</ele>
        <time>2018-05-28T10:40:10Z</time>
      </trkpt>
      <trkpt lat="43.85346" lon="6.58853">
        <ele>1258</ele>
        <time>2018-05-28T10:40:22Z</time>
      </trkpt>
      <trkpt lat="43.85327" lon="6.58826">
        <ele>1259</ele>
        <time>2018-05-28T10:40:35Z</time>
      </trkpt>
      <trkpt lat="43.85303" lon="6.58798">
        <ele>1260</ele>
        <time>2018-05-28T10:40:47Z</time>
      </trkpt>
      <trkpt lat="43.85288" lon="6.5876">
        <ele>1259</ele>
        <time>2018-05-28T10:40:58Z</time>
      </trkpt>
      <trkpt lat="43.85286" lon="6.58756">
        <ele>1259</ele>
        <time>2018-05-28T10:40:59Z</time>
      </trkpt>
      <trkpt lat="43.85283" lon="6.58752">
        <ele>1259</ele>
        <time>2018-05-28T10:41:00Z</time>
      </trkpt>
      <trkpt lat="43.85261" lon="6.58726">
        <ele>1262</ele>
        <time>2018-05-28T10:41:10Z</time>
      </trkpt>
      <trkpt lat="43.85241" lon="6.58687">
        <ele>1263</ele>
        <time>2018-05-28T10:41:23Z</time>
      </trkpt>
      <trkpt lat="43.85225" lon="6.58655">
        <ele>1264</ele>
        <time>2018-05-28T10:41:30Z</time>
      </trkpt>
      <trkpt lat="43.85222" lon="6.58642">
        <ele>1263</ele>
        <time>2018-05-28T10:41:32Z</time>
      </trkpt>
      <trkpt lat="43.85208" lon="6.58606">
        <ele>1264</ele>
        <time>2018-05-28T10:41:42Z</time>
      </trkpt>
      <trkpt lat="43.85189" lon="6.58571">
        <ele>1266</ele>
        <time>2018-05-28T10:41:53Z</time>
      </trkpt>
      <trkpt lat="43.85182" lon="6.58538">
        <ele>1267</ele>
        <time>2018-05-28T10:42:05Z</time>
      </trkpt>
      <trkpt lat="43.85173" lon="6.58514">
        <ele>1268</ele>
        <time>2018-05-28T10:42:16Z</time>
      </trkpt>
      <trkpt lat="43.85172" lon="6.58512">
        <ele>1269</ele>
        <time>2018-05-28T10:42:17Z</time>
      </trkpt>
      <trkpt lat="43.85171" lon="6.58509">
        <ele>1269</ele>
        <time>2018-05-28T10:42:18Z</time>
      </trkpt>
      <trkpt lat="43.85163" lon="6.58471">
        <ele>1270</ele>
        <time>2018-05-28T10:42:30Z</time>
      </trkpt>
      <trkpt lat="43.85156" lon="6.58439">
        <ele>1270</ele>
        <time>2018-05-28T10:42:43Z</time>
      </trkpt>
      <trkpt lat="43.85149" lon="6.58405">
        <ele>1270</ele>
        <time>2018-05-28T10:42:58Z</time>
      </trkpt>
      <trkpt lat="43.85145" lon="6.58398">
        <ele>1271</ele>
        <time>2018-05-28T10:43:12Z</time>
      </trkpt>
      <trkpt lat="43.85136" lon="6.58379">
        <ele>1272</ele>
        <time>2018-05-28T10:43:28Z</time>
      </trkpt>
      <trkpt lat="43.85124" lon="6.58358">
        <ele>1273</ele>
        <time>2018-05-28T10:43:41Z</time>
      </trkpt>
      <trkpt lat="43.85116" lon="6.58339">
        <ele>1273</ele>
        <time>2018-05-28T10:43:53Z</time>
      </trkpt>
      <trkpt lat="43.85106" lon="6.58318">
        <ele>1273</ele>
        <time>2018-05-28T10:44:05Z</time>
      </trkpt>
      <trkpt lat="43.85098" lon="6.58296">
        <ele>1273</ele>
        <time>2018-05-28T10:44:15Z</time>
      </trkpt>
      <trkpt lat="43.85097" lon="6.58294">
        <ele>1273</ele>
        <time>2018-05-28T10:44:16Z</time>
      </trkpt>
      <trkpt lat="43.85085" lon="6.58269">
        <ele>1274</ele>
        <time>2018-05-28T10:44:27Z</time>
      </trkpt>
      <trkpt lat="43.85072" lon="6.5824">
        <ele>1273</ele>
        <time>2018-05-28T10:44:39Z</time>
      </trkpt>
      <trkpt lat="43.85067" lon="6.58232">
        <ele>1273</ele>
        <time>2018-05-28T10:44:43Z</time>
      </trkpt>
      <trkpt lat="43.85066" lon="6.58229">
        <ele>1273</ele>
        <time>2018-05-28T10:44:44Z</time>
      </trkpt>
      <trkpt lat="43.85064" lon="6.58228">
        <ele>1273</ele>
        <time>2018-05-28T10:44:45Z</time>
      </trkpt>
      <trkpt lat="43.85063" lon="6.58225">
        <ele>1273</ele>
        <time>2018-05-28T10:44:46Z</time>
      </trkpt>
      <trkpt lat="43.85052" lon="6.58202">
        <ele>1273</ele>
        <time>2018-05-28T10:44:57Z</time>
      </trkpt>
      <trkpt lat="43.85051" lon="6.582">
        <ele>1273</ele>
        <time>2018-05-28T10:44:58Z</time>
      </trkpt>
      <trkpt lat="43.8505" lon="6.58198">
        <ele>1273</ele>
        <time>2018-05-28T10:44:59Z</time>
      </trkpt>
      <trkpt lat="43.85049" lon="6.58195">
        <ele>1273</ele>
        <time>2018-05-28T10:45:00Z</time>
      </trkpt>
      <trkpt lat="43.85048" lon="6.58191">
        <ele>1273</ele>
        <time>2018-05-28T10:45:01Z</time>
      </trkpt>
      <trkpt lat="43.85047" lon="6.58188">
        <ele>1273</ele>
        <time>2018-05-28T10:45:02Z</time>
      </trkpt>
      <trkpt lat="43.85045" lon="6.58185">
        <ele>1273</ele>
        <time>2018-05-28T10:45:03Z</time>
      </trkpt>
      <trkpt lat="43.85044" lon="6.58182">
        <ele>1273</ele>
        <time>2018-05-28T10:45:04Z</time>
      </trkpt>
      <trkpt lat="43.85041" lon="6.58178">
        <ele>1273</ele>
        <time>2018-05-28T10:45:05Z</time>
      </trkpt>
      <trkpt lat="43.8504" lon="6.58176">
        <ele>1273</ele>
        <time>2018-05-28T10:45:06Z</time>
      </trkpt>
      <trkpt lat="43.85039" lon="6.58174">
        <ele>1273</ele>
        <time>2018-05-28T10:45:07Z</time>
      </trkpt>
      <trkpt lat="43.85038" lon="6.58171">
        <ele>1273</ele>
        <time>2018-05-28T10:45:08Z</time>
      </trkpt>
      <trkpt lat="43.85036" lon="6.58169">
        <ele>1274</ele>
        <time>2018-05-28T10:45:09Z</time>
      </trkpt>
      <trkpt lat="43.85034" lon="6.58167">
        <ele>1274</ele>
        <time>2018-05-28T10:45:10Z</time>
      </trkpt>
      <trkpt lat="43.8501" lon="6.58128">
        <ele>1277</ele>
        <time>2018-05-28T10:45:24Z</time>
      </trkpt>
      <trkpt lat="43.84989" lon="6.58087">
        <ele>1279</ele>
        <time>2018-05-28T10:45:41Z</time>
      </trkpt>
      <trkpt lat="43.84972" lon="6.58057">
        <ele>1281</ele>
        <time>2018-05-28T10:45:55Z</time>
      </trkpt>
      <trkpt lat="43.84961" lon="6.58017">
        <ele>1282</ele>
        <time>2018-05-28T10:46:09Z</time>
      </trkpt>
      <trkpt lat="43.84942" lon="6.57989">
        <ele>1281</ele>
        <time>2018-05-28T10:46:25Z</time>
      </trkpt>
      <trkpt lat="43.8494" lon="6.57985">
        <ele>1282</ele>
        <time>2018-05-28T10:46:39Z</time>
      </trkpt>
      <trkpt lat="43.84938" lon="6.57986">
        <ele>1282</ele>
        <time>2018-05-28T10:47:02Z</time>
      </trkpt>
      <trkpt lat="43.84937" lon="6.57985">
        <ele>1282</ele>
        <time>2018-05-28T10:47:21Z</time>
      </trkpt>
      <trkpt lat="43.84937" lon="6.57986">
        <ele>1282</ele>
        <time>2018-05-28T10:47:33Z</time>
      </trkpt>
      <trkpt lat="43.84934" lon="6.57984">
        <ele>1282</ele>
        <time>2018-05-28T10:48:07Z</time>
      </trkpt>
      <trkpt lat="43.84937" lon="6.57986">
        <ele>1282</ele>
        <time>2018-05-28T10:48:34Z</time>
      </trkpt>
      <trkpt lat="43.84938" lon="6.57989">
        <ele>1282</ele>
        <time>2018-05-28T10:49:08Z</time>
      </trkpt>
      <trkpt lat="43.84937" lon="6.57985">
        <ele>1282</ele>
        <time>2018-05-28T10:49:16Z</time>
      </trkpt>
      <trkpt lat="43.84935" lon="6.57984">
        <ele>1282</ele>
        <time>2018-05-28T10:49:28Z</time>
      </trkpt>
      <trkpt lat="43.84934" lon="6.57981">
        <ele>1282</ele>
        <time>2018-05-28T10:49:55Z</time>
      </trkpt>
      <trkpt lat="43.84931" lon="6.57977">
        <ele>1282</ele>
        <time>2018-05-28T10:50:03Z</time>
      </trkpt>
      <trkpt lat="43.8493" lon="6.57976">
        <ele>1282</ele>
        <time>2018-05-28T10:50:04Z</time>
      </trkpt>
      <trkpt lat="43.84927" lon="6.57975">
        <ele>1282</ele>
        <time>2018-05-28T10:50:05Z</time>
      </trkpt>
      <trkpt lat="43.84925" lon="6.57972">
        <ele>1282</ele>
        <time>2018-05-28T10:50:06Z</time>
      </trkpt>
      <trkpt lat="43.84923" lon="6.57969">
        <ele>1281</ele>
        <time>2018-05-28T10:50:07Z</time>
      </trkpt>
      <trkpt lat="43.84903" lon="6.57945">
        <ele>1279</ele>
        <time>2018-05-28T10:50:13Z</time>
      </trkpt>
      <trkpt lat="43.84869" lon="6.57902">
        <ele>1274</ele>
        <time>2018-05-28T10:50:22Z</time>
      </trkpt>
      <trkpt lat="43.84865" lon="6.57898">
        <ele>1273</ele>
        <time>2018-05-28T10:50:23Z</time>
      </trkpt>
      <trkpt lat="43.84847" lon="6.57877">
        <ele>1270</ele>
        <time>2018-05-28T10:50:28Z</time>
      </trkpt>
      <trkpt lat="43.84844" lon="6.57872">
        <ele>1269</ele>
        <time>2018-05-28T10:50:29Z</time>
      </trkpt>
      <trkpt lat="43.84842" lon="6.57866">
        <ele>1269</ele>
        <time>2018-05-28T10:50:30Z</time>
      </trkpt>
      <trkpt lat="43.84839" lon="6.57861">
        <ele>1268</ele>
        <time>2018-05-28T10:50:31Z</time>
      </trkpt>
      <trkpt lat="43.84837" lon="6.57856">
        <ele>1268</ele>
        <time>2018-05-28T10:50:32Z</time>
      </trkpt>
      <trkpt lat="43.84804" lon="6.57795">
        <ele>1263</ele>
        <time>2018-05-28T10:50:43Z</time>
      </trkpt>
      <trkpt lat="43.84763" lon="6.57714">
        <ele>1254</ele>
        <time>2018-05-28T10:50:55Z</time>
      </trkpt>
      <trkpt lat="43.84735" lon="6.57666">
        <ele>1245</ele>
        <time>2018-05-28T10:51:02Z</time>
      </trkpt>
      <trkpt lat="43.84732" lon="6.57657">
        <ele>1243</ele>
        <time>2018-05-28T10:51:03Z</time>
      </trkpt>
      <trkpt lat="43.8473" lon="6.57649">
        <ele>1242</ele>
        <time>2018-05-28T10:51:04Z</time>
      </trkpt>
      <trkpt lat="43.84714" lon="6.57563">
        <ele>1231</ele>
        <time>2018-05-28T10:51:13Z</time>
      </trkpt>
      <trkpt lat="43.84702" lon="6.57526">
        <ele>1226</ele>
        <time>2018-05-28T10:51:17Z</time>
      </trkpt>
      <trkpt lat="43.84675" lon="6.57419">
        <ele>1212</ele>
        <time>2018-05-28T10:51:27Z</time>
      </trkpt>
      <trkpt lat="43.84646" lon="6.57342">
        <ele>1202</ele>
        <time>2018-05-28T10:51:35Z</time>
      </trkpt>
      <trkpt lat="43.84638" lon="6.57317">
        <ele>1199</ele>
        <time>2018-05-28T10:51:38Z</time>
      </trkpt>
      <trkpt lat="43.84623" lon="6.57215">
        <ele>1183</ele>
        <time>2018-05-28T10:51:48Z</time>
      </trkpt>
      <trkpt lat="43.84615" lon="6.57112">
        <ele>1164</ele>
        <time>2018-05-28T10:51:57Z</time>
      </trkpt>
      <trkpt lat="43.84614" lon="6.57104">
        <ele>1163</ele>
        <time>2018-05-28T10:51:58Z</time>
      </trkpt>
      <trkpt lat="43.8461" lon="6.57087">
        <ele>1160</ele>
        <time>2018-05-28T10:52:00Z</time>
      </trkpt>
      <trkpt lat="43.84601" lon="6.56988">
        <ele>1144</ele>
        <time>2018-05-28T10:52:10Z</time>
      </trkpt>
      <trkpt lat="43.84601" lon="6.56956">
        <ele>1138</ele>
        <time>2018-05-28T10:52:13Z</time>
      </trkpt>
      <trkpt lat="43.84586" lon="6.56891">
        <ele>1126</ele>
        <time>2018-05-28T10:52:19Z</time>
      </trkpt>
      <trkpt lat="43.84572" lon="6.56846">
        <ele>1121</ele>
        <time>2018-05-28T10:52:23Z</time>
      </trkpt>
      <trkpt lat="43.84545" lon="6.56718">
        <ele>1102</ele>
        <time>2018-05-28T10:52:34Z</time>
      </trkpt>
      <trkpt lat="43.84528" lon="6.56651">
        <ele>1093</ele>
        <time>2018-05-28T10:52:40Z</time>
      </trkpt>
      <trkpt lat="43.84506" lon="6.56552">
        <ele>1079</ele>
        <time>2018-05-28T10:52:51Z</time>
      </trkpt>
      <trkpt lat="43.84492" lon="6.56502">
        <ele>1074</ele>
        <time>2018-05-28T10:52:57Z</time>
      </trkpt>
      <trkpt lat="43.84484" lon="6.56456">
        <ele>1067</ele>
        <time>2018-05-28T10:53:02Z</time>
      </trkpt>
      <trkpt lat="43.8448" lon="6.56364">
        <ele>1053</ele>
        <time>2018-05-28T10:53:11Z</time>
      </trkpt>
      <trkpt lat="43.84465" lon="6.56332">
        <ele>1049</ele>
        <time>2018-05-28T10:53:15Z</time>
      </trkpt>
      <trkpt lat="43.84451" lon="6.56292">
        <ele>1043</ele>
        <time>2018-05-28T10:53:20Z</time>
      </trkpt>
      <trkpt lat="43.84447" lon="6.56265">
        <ele>1040</ele>
        <time>2018-05-28T10:53:23Z</time>
      </trkpt>
      <trkpt lat="43.84436" lon="6.56232">
        <ele>1036</ele>
        <time>2018-05-28T10:53:27Z</time>
      </trkpt>
      <trkpt lat="43.84434" lon="6.56201">
        <ele>1032</ele>
        <time>2018-05-28T10:53:31Z</time>
      </trkpt>
      <trkpt lat="43.84436" lon="6.56188">
        <ele>1030</ele>
        <time>2018-05-28T10:53:35Z</time>
      </trkpt>
      <trkpt lat="43.84432" lon="6.56186">
        <ele>1029</ele>
        <time>2018-05-28T10:53:45Z</time>
      </trkpt>
      <trkpt lat="43.8443" lon="6.56185">
        <ele>1030</ele>
        <time>2018-05-28T10:54:06Z</time>
      </trkpt>
      <trkpt lat="43.84428" lon="6.56187">
        <ele>1030</ele>
        <time>2018-05-28T10:54:41Z</time>
      </trkpt>
      <trkpt lat="43.84428" lon="6.56189">
        <ele>1030</ele>
        <time>2018-05-28T10:55:12Z</time>
      </trkpt>
      <trkpt lat="43.84429" lon="6.5619">
        <ele>1030</ele>
        <time>2018-05-28T10:55:39Z</time>
      </trkpt>
      <trkpt lat="43.84428" lon="6.56187">
        <ele>1030</ele>
        <time>2018-05-28T10:56:16Z</time>
      </trkpt>
      <trkpt lat="43.8443" lon="6.56189">
        <ele>1030</ele>
        <time>2018-05-28T10:56:46Z</time>
      </trkpt>
      <trkpt lat="43.8443" lon="6.56185">
        <ele>1030</ele>
        <time>2018-05-28T10:57:11Z</time>
      </trkpt>
      <trkpt lat="43.8443" lon="6.56187">
        <ele>1030</ele>
        <time>2018-05-28T10:57:26Z</time>
      </trkpt>
      <trkpt lat="43.8443" lon="6.56186">
        <ele>1030</ele>
        <time>2018-05-28T10:57:47Z</time>
      </trkpt>
      <trkpt lat="43.84432" lon="6.56186">
        <ele>1029</ele>
        <time>2018-05-28T10:58:14Z</time>
      </trkpt>
      <trkpt lat="43.84431" lon="6.56189">
        <ele>1030</ele>
        <time>2018-05-28T10:58:31Z</time>
      </trkpt>
      <trkpt lat="43.84428" lon="6.56191">
        <ele>1031</ele>
        <time>2018-05-28T10:58:52Z</time>
      </trkpt>
      <trkpt lat="43.84429" lon="6.5619">
        <ele>1030</ele>
        <time>2018-05-28T10:59:13Z</time>
      </trkpt>
      <trkpt lat="43.8442" lon="6.56169">
        <ele>1028</ele>
        <time>2018-05-28T10:59:26Z</time>
      </trkpt>
      <trkpt lat="43.84401" lon="6.56146">
        <ele>1026</ele>
        <time>2018-05-28T10:59:37Z</time>
      </trkpt>
      <trkpt lat="43.84381" lon="6.56114">
        <ele>1023</ele>
        <time>2018-05-28T10:59:48Z</time>
      </trkpt>
      <trkpt lat="43.8436" lon="6.56058">
        <ele>1018</ele>
        <time>2018-05-28T10:59:57Z</time>
      </trkpt>
      <trkpt lat="43.8435" lon="6.56022">
        <ele>1014</ele>
        <time>2018-05-28T11:00:01Z</time>
      </trkpt>
      <trkpt lat="43.84349" lon="6.56001">
        <ele>1011</ele>
        <time>2018-05-28T11:00:03Z</time>
      </trkpt>
      <trkpt lat="43.8435" lon="6.55967">
        <ele>1007</ele>
        <time>2018-05-28T11:00:07Z</time>
      </trkpt>
      <trkpt lat="43.84342" lon="6.5591">
        <ele>1001</ele>
        <time>2018-05-28T11:00:14Z</time>
      </trkpt>
      <trkpt lat="43.84335" lon="6.55861">
        <ele>998</ele>
        <time>2018-05-28T11:00:20Z</time>
      </trkpt>
      <trkpt lat="43.8433" lon="6.55821">
        <ele>995</ele>
        <time>2018-05-28T11:00:24Z</time>
      </trkpt>
      <trkpt lat="43.84312" lon="6.55773">
        <ele>993</ele>
        <time>2018-05-28T11:00:29Z</time>
      </trkpt>
      <trkpt lat="43.84302" lon="6.55725">
        <ele>986</ele>
        <time>2018-05-28T11:00:35Z</time>
      </trkpt>
      <trkpt lat="43.84298" lon="6.55711">
        <ele>985</ele>
        <time>2018-05-28T11:00:37Z</time>
      </trkpt>
      <trkpt lat="43.84279" lon="6.55678">
        <ele>983</ele>
        <time>2018-05-28T11:00:42Z</time>
      </trkpt>
      <trkpt lat="43.84266" lon="6.55637">
        <ele>978</ele>
        <time>2018-05-28T11:00:47Z</time>
      </trkpt>
      <trkpt lat="43.84247" lon="6.55538">
        <ele>965</ele>
        <time>2018-05-28T11:00:59Z</time>
      </trkpt>
      <trkpt lat="43.84246" lon="6.55521">
        <ele>963</ele>
        <time>2018-05-28T11:01:02Z</time>
      </trkpt>
      <trkpt lat="43.84248" lon="6.55481">
        <ele>959</ele>
        <time>2018-05-28T11:01:07Z</time>
      </trkpt>
      <trkpt lat="43.84256" lon="6.55418">
        <ele>951</ele>
        <time>2018-05-28T11:01:14Z</time>
      </trkpt>
      <trkpt lat="43.84266" lon="6.55323">
        <ele>936</ele>
        <time>2018-05-28T11:01:23Z</time>
      </trkpt>
      <trkpt lat="43.84263" lon="6.55288">
        <ele>932</ele>
        <time>2018-05-28T11:01:26Z</time>
      </trkpt>
      <trkpt lat="43.84252" lon="6.55159">
        <ele>917</ele>
        <time>2018-05-28T11:01:37Z</time>
      </trkpt>
      <trkpt lat="43.84238" lon="6.55055">
        <ele>908</ele>
        <time>2018-05-28T11:01:46Z</time>
      </trkpt>
      <trkpt lat="43.8423" lon="6.55015">
        <ele>905</ele>
        <time>2018-05-28T11:01:51Z</time>
      </trkpt>
      <trkpt lat="43.84225" lon="6.55003">
        <ele>903</ele>
        <time>2018-05-28T11:01:53Z</time>
      </trkpt>
      <trkpt lat="43.84202" lon="6.54964">
        <ele>902</ele>
        <time>2018-05-28T11:02:00Z</time>
      </trkpt>
      <trkpt lat="43.84188" lon="6.54918">
        <ele>890</ele>
        <time>2018-05-28T11:02:11Z</time>
      </trkpt>
      <trkpt lat="43.84186" lon="6.54908">
        <ele>887</ele>
        <time>2018-05-28T11:02:14Z</time>
      </trkpt>
      <trkpt lat="43.84185" lon="6.54906">
        <ele>887</ele>
        <time>2018-05-28T11:02:15Z</time>
      </trkpt>
      <trkpt lat="43.84177" lon="6.54895">
        <ele>887</ele>
        <time>2018-05-28T11:02:26Z</time>
      </trkpt>
      <trkpt lat="43.84176" lon="6.54895">
        <ele>888</ele>
        <time>2018-05-28T11:02:41Z</time>
      </trkpt>
      <trkpt lat="43.84175" lon="6.54896">
        <ele>888</ele>
        <time>2018-05-28T11:03:05Z</time>
      </trkpt>
      <trkpt lat="43.84175" lon="6.54897">
        <ele>889</ele>
        <time>2018-05-28T11:03:35Z</time>
      </trkpt>
      <trkpt lat="43.84174" lon="6.54898">
        <ele>889</ele>
        <time>2018-05-28T11:04:00Z</time>
      </trkpt>
      <trkpt lat="43.84173" lon="6.54899">
        <ele>890</ele>
        <time>2018-05-28T11:04:27Z</time>
      </trkpt>
      <trkpt lat="43.84172" lon="6.54899">
        <ele>890</ele>
        <time>2018-05-28T11:04:59Z</time>
      </trkpt>
      <trkpt lat="43.84173" lon="6.54895">
        <ele>889</ele>
        <time>2018-05-28T11:05:24Z</time>
      </trkpt>
      <trkpt lat="43.84174" lon="6.54892">
        <ele>888</ele>
        <time>2018-05-28T11:05:40Z</time>
      </trkpt>
      <trkpt lat="43.84175" lon="6.54893">
        <ele>887</ele>
        <time>2018-05-28T11:06:04Z</time>
      </trkpt>
      <trkpt lat="43.84176" lon="6.54892">
        <ele>887</ele>
        <time>2018-05-28T11:06:23Z</time>
      </trkpt>
      <trkpt lat="43.84176" lon="6.54892">
        <ele>886</ele>
        <time>2018-05-28T11:06:31Z</time>
      </trkpt>
      <trkpt lat="43.84174" lon="6.5489">
        <ele>887</ele>
        <time>2018-05-28T11:06:32Z</time>
      </trkpt>
      <trkpt lat="43.84172" lon="6.54888">
        <ele>887</ele>
        <time>2018-05-28T11:06:33Z</time>
      </trkpt>
      <trkpt lat="43.84171" lon="6.54885">
        <ele>886</ele>
        <time>2018-05-28T11:06:34Z</time>
      </trkpt>
      <trkpt lat="43.84169" lon="6.5488">
        <ele>886</ele>
        <time>2018-05-28T11:06:35Z</time>
      </trkpt>
      <trkpt lat="43.84167" lon="6.54874">
        <ele>885</ele>
        <time>2018-05-28T11:06:36Z</time>
      </trkpt>
      <trkpt lat="43.84164" lon="6.54868">
        <ele>883</ele>
        <time>2018-05-28T11:06:37Z</time>
      </trkpt>
      <trkpt lat="43.84161" lon="6.54862">
        <ele>882</ele>
        <time>2018-05-28T11:06:38Z</time>
      </trkpt>
      <trkpt lat="43.84157" lon="6.54856">
        <ele>881</ele>
        <time>2018-05-28T11:06:39Z</time>
      </trkpt>
      <trkpt lat="43.84153" lon="6.54849">
        <ele>880</ele>
        <time>2018-05-28T11:06:40Z</time>
      </trkpt>
      <trkpt lat="43.84149" lon="6.54842">
        <ele>878</ele>
        <time>2018-05-28T11:06:41Z</time>
      </trkpt>
      <trkpt lat="43.84146" lon="6.54833">
        <ele>876</ele>
        <time>2018-05-28T11:06:42Z</time>
      </trkpt>
      <trkpt lat="43.84142" lon="6.54825">
        <ele>876</ele>
        <time>2018-05-28T11:06:43Z</time>
      </trkpt>
      <trkpt lat="43.84138" lon="6.54817">
        <ele>876</ele>
        <time>2018-05-28T11:06:44Z</time>
      </trkpt>
      <trkpt lat="43.84135" lon="6.5481">
        <ele>875</ele>
        <time>2018-05-28T11:06:45Z</time>
      </trkpt>
      <trkpt lat="43.84135" lon="6.54802">
        <ele>874</ele>
        <time>2018-05-28T11:06:46Z</time>
      </trkpt>
      <trkpt lat="43.84136" lon="6.54794">
        <ele>873</ele>
        <time>2018-05-28T11:06:47Z</time>
      </trkpt>
      <trkpt lat="43.84137" lon="6.54786">
        <ele>871</ele>
        <time>2018-05-28T11:06:48Z</time>
      </trkpt>
      <trkpt lat="43.84138" lon="6.54778">
        <ele>870</ele>
        <time>2018-05-28T11:06:49Z</time>
      </trkpt>
      <trkpt lat="43.84138" lon="6.54771">
        <ele>869</ele>
        <time>2018-05-28T11:06:50Z</time>
      </trkpt>
      <trkpt lat="43.84137" lon="6.54764">
        <ele>869</ele>
        <time>2018-05-28T11:06:51Z</time>
      </trkpt>
      <trkpt lat="43.84137" lon="6.54758">
        <ele>868</ele>
        <time>2018-05-28T11:06:52Z</time>
      </trkpt>
      <trkpt lat="43.84135" lon="6.54752">
        <ele>868</ele>
        <time>2018-05-28T11:06:53Z</time>
      </trkpt>
      <trkpt lat="43.84125" lon="6.54722">
        <ele>868</ele>
        <time>2018-05-28T11:06:58Z</time>
      </trkpt>
      <trkpt lat="43.84139" lon="6.54712">
        <ele>861</ele>
        <time>2018-05-28T11:07:03Z</time>
      </trkpt>
      <trkpt lat="43.84165" lon="6.54745">
        <ele>857</ele>
        <time>2018-05-28T11:07:11Z</time>
      </trkpt>
      <trkpt lat="43.84168" lon="6.54749">
        <ele>856</ele>
        <time>2018-05-28T11:07:12Z</time>
      </trkpt>
      <trkpt lat="43.84171" lon="6.54754">
        <ele>856</ele>
        <time>2018-05-28T11:07:13Z</time>
      </trkpt>
      <trkpt lat="43.84173" lon="6.54758">
        <ele>856</ele>
        <time>2018-05-28T11:07:14Z</time>
      </trkpt>
      <trkpt lat="43.84175" lon="6.54762">
        <ele>856</ele>
        <time>2018-05-28T11:07:15Z</time>
      </trkpt>
      <trkpt lat="43.84178" lon="6.54766">
        <ele>856</ele>
        <time>2018-05-28T11:07:17Z</time>
      </trkpt>
      <trkpt lat="43.84185" lon="6.54747">
        <ele>851</ele>
        <time>2018-05-28T11:07:28Z</time>
      </trkpt>
      <trkpt lat="43.84184" lon="6.5474">
        <ele>850</ele>
        <time>2018-05-28T11:07:29Z</time>
      </trkpt>
      <trkpt lat="43.84184" lon="6.54735">
        <ele>850</ele>
        <time>2018-05-28T11:07:30Z</time>
      </trkpt>
      <trkpt lat="43.84177" lon="6.54693">
        <ele>846</ele>
        <time>2018-05-28T11:07:38Z</time>
      </trkpt>
      <trkpt lat="43.84177" lon="6.54687">
        <ele>845</ele>
        <time>2018-05-28T11:07:39Z</time>
      </trkpt>
      <trkpt lat="43.84178" lon="6.54682">
        <ele>844</ele>
        <time>2018-05-28T11:07:40Z</time>
      </trkpt>
      <trkpt lat="43.84179" lon="6.54675">
        <ele>843</ele>
        <time>2018-05-28T11:07:42Z</time>
      </trkpt>
      <trkpt lat="43.84179" lon="6.54671">
        <ele>843</ele>
        <time>2018-05-28T11:07:43Z</time>
      </trkpt>
      <trkpt lat="43.84179" lon="6.54668">
        <ele>842</ele>
        <time>2018-05-28T11:07:44Z</time>
      </trkpt>
      <trkpt lat="43.84178" lon="6.54665">
        <ele>842</ele>
        <time>2018-05-28T11:07:45Z</time>
      </trkpt>
      <trkpt lat="43.84177" lon="6.54662">
        <ele>842</ele>
        <time>2018-05-28T11:07:46Z</time>
      </trkpt>
      <trkpt lat="43.84176" lon="6.54659">
        <ele>842</ele>
        <time>2018-05-28T11:07:47Z</time>
      </trkpt>
      <trkpt lat="43.84178" lon="6.54622">
        <ele>838</ele>
        <time>2018-05-28T11:07:56Z</time>
      </trkpt>
      <trkpt lat="43.84181" lon="6.54618">
        <ele>837</ele>
        <time>2018-05-28T11:07:58Z</time>
      </trkpt>
      <trkpt lat="43.84182" lon="6.54619">
        <ele>836</ele>
        <time>2018-05-28T11:07:59Z</time>
      </trkpt>
      <trkpt lat="43.84182" lon="6.54622">
        <ele>837</ele>
        <time>2018-05-28T11:08:00Z</time>
      </trkpt>
      <trkpt lat="43.84182" lon="6.54624">
        <ele>837</ele>
        <time>2018-05-28T11:08:01Z</time>
      </trkpt>
      <trkpt lat="43.84181" lon="6.54627">
        <ele>837</ele>
        <time>2018-05-28T11:08:02Z</time>
      </trkpt>
      <trkpt lat="43.8418" lon="6.54629">
        <ele>838</ele>
        <time>2018-05-28T11:08:03Z</time>
      </trkpt>
      <trkpt lat="43.8418" lon="6.54632">
        <ele>838</ele>
        <time>2018-05-28T11:08:04Z</time>
      </trkpt>
      <trkpt lat="43.84181" lon="6.54635">
        <ele>838</ele>
        <time>2018-05-28T11:08:05Z</time>
      </trkpt>
      <trkpt lat="43.8421" lon="6.54684">
        <ele>835</ele>
        <time>2018-05-28T11:08:15Z</time>
      </trkpt>
      <trkpt lat="43.84213" lon="6.54692">
        <ele>835</ele>
        <time>2018-05-28T11:08:16Z</time>
      </trkpt>
      <trkpt lat="43.84216" lon="6.54701">
        <ele>836</ele>
        <time>2018-05-28T11:08:17Z</time>
      </trkpt>
      <trkpt lat="43.84219" lon="6.5471">
        <ele>836</ele>
        <time>2018-05-28T11:08:18Z</time>
      </trkpt>
      <trkpt lat="43.84222" lon="6.54719">
        <ele>837</ele>
        <time>2018-05-28T11:08:19Z</time>
      </trkpt>
      <trkpt lat="43.84228" lon="6.54725">
        <ele>836</ele>
        <time>2018-05-28T11:08:20Z</time>
      </trkpt>
      <trkpt lat="43.84235" lon="6.54728">
        <ele>834</ele>
        <time>2018-05-28T11:08:21Z</time>
      </trkpt>
      <trkpt lat="43.84243" lon="6.54727">
        <ele>832</ele>
        <time>2018-05-28T11:08:22Z</time>
      </trkpt>
      <trkpt lat="43.84251" lon="6.5472">
        <ele>829</ele>
        <time>2018-05-28T11:08:23Z</time>
      </trkpt>
      <trkpt lat="43.84255" lon="6.54713">
        <ele>827</ele>
        <time>2018-05-28T11:08:24Z</time>
      </trkpt>
      <trkpt lat="43.84258" lon="6.54704">
        <ele>826</ele>
        <time>2018-05-28T11:08:25Z</time>
      </trkpt>
      <trkpt lat="43.84259" lon="6.54695">
        <ele>824</ele>
        <time>2018-05-28T11:08:26Z</time>
      </trkpt>
      <trkpt lat="43.84274" lon="6.54598">
        <ele>820</ele>
        <time>2018-05-28T11:08:35Z</time>
      </trkpt>
      <trkpt lat="43.84277" lon="6.54587">
        <ele>821</ele>
        <time>2018-05-28T11:08:36Z</time>
      </trkpt>
      <trkpt lat="43.84281" lon="6.54577">
        <ele>821</ele>
        <time>2018-05-28T11:08:37Z</time>
      </trkpt>
      <trkpt lat="43.84307" lon="6.54523">
        <ele>819</ele>
        <time>2018-05-28T11:08:42Z</time>
      </trkpt>
      <trkpt lat="43.84314" lon="6.54514">
        <ele>818</ele>
        <time>2018-05-28T11:08:43Z</time>
      </trkpt>
      <trkpt lat="43.84329" lon="6.54494">
        <ele>819</ele>
        <time>2018-05-28T11:08:45Z</time>
      </trkpt>
      <trkpt lat="43.84335" lon="6.54482">
        <ele>819</ele>
        <time>2018-05-28T11:08:46Z</time>
      </trkpt>
      <trkpt lat="43.8434" lon="6.54468">
        <ele>818</ele>
        <time>2018-05-28T11:08:47Z</time>
      </trkpt>
      <trkpt lat="43.84343" lon="6.54454">
        <ele>817</ele>
        <time>2018-05-28T11:08:48Z</time>
      </trkpt>
      <trkpt lat="43.84344" lon="6.54438">
        <ele>815</ele>
        <time>2018-05-28T11:08:49Z</time>
      </trkpt>
      <trkpt lat="43.84346" lon="6.54423">
        <ele>814</ele>
        <time>2018-05-28T11:08:50Z</time>
      </trkpt>
      <trkpt lat="43.8435" lon="6.54361">
        <ele>811</ele>
        <time>2018-05-28T11:08:54Z</time>
      </trkpt>
      <trkpt lat="43.84355" lon="6.54345">
        <ele>810</ele>
        <time>2018-05-28T11:08:55Z</time>
      </trkpt>
      <trkpt lat="43.8436" lon="6.54332">
        <ele>809</ele>
        <time>2018-05-28T11:08:56Z</time>
      </trkpt>
      <trkpt lat="43.84375" lon="6.54307">
        <ele>808</ele>
        <time>2018-05-28T11:08:58Z</time>
      </trkpt>
      <trkpt lat="43.84381" lon="6.54294">
        <ele>808</ele>
        <time>2018-05-28T11:08:59Z</time>
      </trkpt>
      <trkpt lat="43.84386" lon="6.54279">
        <ele>807</ele>
        <time>2018-05-28T11:09:00Z</time>
      </trkpt>
      <trkpt lat="43.84392" lon="6.54262">
        <ele>805</ele>
        <time>2018-05-28T11:09:01Z</time>
      </trkpt>
      <trkpt lat="43.84395" lon="6.54251">
        <ele>804</ele>
        <time>2018-05-28T11:09:02Z</time>
      </trkpt>
      <trkpt lat="43.84407" lon="6.54205">
        <ele>801</ele>
        <time>2018-05-28T11:09:05Z</time>
      </trkpt>
      <trkpt lat="43.84409" lon="6.54188">
        <ele>800</ele>
        <time>2018-05-28T11:09:06Z</time>
      </trkpt>
      <trkpt lat="43.84409" lon="6.54172">
        <ele>798</ele>
        <time>2018-05-28T11:09:07Z</time>
      </trkpt>
      <trkpt lat="43.84407" lon="6.54158">
        <ele>798</ele>
        <time>2018-05-28T11:09:08Z</time>
      </trkpt>
      <trkpt lat="43.84403" lon="6.54141">
        <ele>796</ele>
        <time>2018-05-28T11:09:09Z</time>
      </trkpt>
      <trkpt lat="43.84399" lon="6.54127">
        <ele>795</ele>
        <time>2018-05-28T11:09:10Z</time>
      </trkpt>
      <trkpt lat="43.84391" lon="6.54094">
        <ele>794</ele>
        <time>2018-05-28T11:09:12Z</time>
      </trkpt>
      <trkpt lat="43.8439" lon="6.54078">
        <ele>794</ele>
        <time>2018-05-28T11:09:13Z</time>
      </trkpt>
      <trkpt lat="43.84386" lon="6.54007">
        <ele>791</ele>
        <time>2018-05-28T11:09:17Z</time>
      </trkpt>
      <trkpt lat="43.84382" lon="6.5399">
        <ele>789</ele>
        <time>2018-05-28T11:09:18Z</time>
      </trkpt>
      <trkpt lat="43.84377" lon="6.53975">
        <ele>788</ele>
        <time>2018-05-28T11:09:19Z</time>
      </trkpt>
      <trkpt lat="43.8437" lon="6.5396">
        <ele>786</ele>
        <time>2018-05-28T11:09:20Z</time>
      </trkpt>
      <trkpt lat="43.84362" lon="6.53947">
        <ele>785</ele>
        <time>2018-05-28T11:09:21Z</time>
      </trkpt>
      <trkpt lat="43.84352" lon="6.53934">
        <ele>785</ele>
        <time>2018-05-28T11:09:22Z</time>
      </trkpt>
      <trkpt lat="43.84342" lon="6.53925">
        <ele>784</ele>
        <time>2018-05-28T11:09:23Z</time>
      </trkpt>
      <trkpt lat="43.84331" lon="6.53918">
        <ele>784</ele>
        <time>2018-05-28T11:09:24Z</time>
      </trkpt>
      <trkpt lat="43.8432" lon="6.53911">
        <ele>783</ele>
        <time>2018-05-28T11:09:25Z</time>
      </trkpt>
      <trkpt lat="43.84295" lon="6.53901">
        <ele>781</ele>
        <time>2018-05-28T11:09:27Z</time>
      </trkpt>
      <trkpt lat="43.84282" lon="6.53901">
        <ele>781</ele>
        <time>2018-05-28T11:09:28Z</time>
      </trkpt>
      <trkpt lat="43.8427" lon="6.53904">
        <ele>780</ele>
        <time>2018-05-28T11:09:29Z</time>
      </trkpt>
      <trkpt lat="43.84261" lon="6.5391">
        <ele>779</ele>
        <time>2018-05-28T11:09:30Z</time>
      </trkpt>
      <trkpt lat="43.84253" lon="6.53919">
        <ele>778</ele>
        <time>2018-05-28T11:09:31Z</time>
      </trkpt>
      <trkpt lat="43.84244" lon="6.53931">
        <ele>775</ele>
        <time>2018-05-28T11:09:32Z</time>
      </trkpt>
      <trkpt lat="43.84238" lon="6.53938">
        <ele>772</ele>
        <time>2018-05-28T11:09:33Z</time>
      </trkpt>
      <trkpt lat="43.8423" lon="6.53944">
        <ele>770</ele>
        <time>2018-05-28T11:09:34Z</time>
      </trkpt>
      <trkpt lat="43.84222" lon="6.53946">
        <ele>769</ele>
        <time>2018-05-28T11:09:35Z</time>
      </trkpt>
      <trkpt lat="43.84215" lon="6.53942">
        <ele>768</ele>
        <time>2018-05-28T11:09:36Z</time>
      </trkpt>
      <trkpt lat="43.84211" lon="6.53936">
        <ele>768</ele>
        <time>2018-05-28T11:09:37Z</time>
      </trkpt>
      <trkpt lat="43.84208" lon="6.53924">
        <ele>769</ele>
        <time>2018-05-28T11:09:38Z</time>
      </trkpt>
      <trkpt lat="43.84206" lon="6.53913">
        <ele>770</ele>
        <time>2018-05-28T11:09:39Z</time>
      </trkpt>
      <trkpt lat="43.84206" lon="6.53901">
        <ele>771</ele>
        <time>2018-05-28T11:09:40Z</time>
      </trkpt>
      <trkpt lat="43.84205" lon="6.53889">
        <ele>772</ele>
        <time>2018-05-28T11:09:41Z</time>
      </trkpt>
      <trkpt lat="43.84204" lon="6.53794">
        <ele>769</ele>
        <time>2018-05-28T11:09:48Z</time>
      </trkpt>
      <trkpt lat="43.84207" lon="6.53779">
        <ele>768</ele>
        <time>2018-05-28T11:09:49Z</time>
      </trkpt>
      <trkpt lat="43.84257" lon="6.53598">
        <ele>755</ele>
        <time>2018-05-28T11:10:01Z</time>
      </trkpt>
      <trkpt lat="43.84265" lon="6.53583">
        <ele>754</ele>
        <time>2018-05-28T11:10:02Z</time>
      </trkpt>
      <trkpt lat="43.84273" lon="6.53571">
        <ele>754</ele>
        <time>2018-05-28T11:10:03Z</time>
      </trkpt>
      <trkpt lat="43.84363" lon="6.53448">
        <ele>744</ele>
        <time>2018-05-28T11:10:13Z</time>
      </trkpt>
      <trkpt lat="43.84369" lon="6.53432">
        <ele>742</ele>
        <time>2018-05-28T11:10:14Z</time>
      </trkpt>
      <trkpt lat="43.84372" lon="6.53416">
        <ele>741</ele>
        <time>2018-05-28T11:10:15Z</time>
      </trkpt>
      <trkpt lat="43.84373" lon="6.53399">
        <ele>741</ele>
        <time>2018-05-28T11:10:16Z</time>
      </trkpt>
      <trkpt lat="43.8437" lon="6.53383">
        <ele>741</ele>
        <time>2018-05-28T11:10:17Z</time>
      </trkpt>
      <trkpt lat="43.84367" lon="6.53367">
        <ele>740</ele>
        <time>2018-05-28T11:10:18Z</time>
      </trkpt>
      <trkpt lat="43.84362" lon="6.5335">
        <ele>740</ele>
        <time>2018-05-28T11:10:19Z</time>
      </trkpt>
      <trkpt lat="43.84329" lon="6.53216">
        <ele>740</ele>
        <time>2018-05-28T11:10:30Z</time>
      </trkpt>
      <trkpt lat="43.84292" lon="6.5306">
        <ele>739</ele>
        <time>2018-05-28T11:10:45Z</time>
      </trkpt>
      <trkpt lat="43.84254" lon="6.529">
        <ele>738</ele>
        <time>2018-05-28T11:11:01Z</time>
      </trkpt>
      <trkpt lat="43.84218" lon="6.52745">
        <ele>737</ele>
        <time>2018-05-28T11:11:19Z</time>
      </trkpt>
      <trkpt lat="43.84206" lon="6.5265">
        <ele>736</ele>
        <time>2018-05-28T11:11:30Z</time>
      </trkpt>
      <trkpt lat="43.84211" lon="6.52616">
        <ele>736</ele>
        <time>2018-05-28T11:11:34Z</time>
      </trkpt>
      <trkpt lat="43.84212" lon="6.52609">
        <ele>737</ele>
        <time>2018-05-28T11:11:35Z</time>
      </trkpt>
      <trkpt lat="43.84223" lon="6.52579">
        <ele>739</ele>
        <time>2018-05-28T11:11:39Z</time>
      </trkpt>
      <trkpt lat="43.84269" lon="6.52457">
        <ele>741</ele>
        <time>2018-05-28T11:11:57Z</time>
      </trkpt>
      <trkpt lat="43.84278" lon="6.52409">
        <ele>744</ele>
        <time>2018-05-28T11:12:04Z</time>
      </trkpt>
      <trkpt lat="43.84279" lon="6.52402">
        <ele>745</ele>
        <time>2018-05-28T11:12:05Z</time>
      </trkpt>
      <trkpt lat="43.84286" lon="6.52373">
        <ele>745</ele>
        <time>2018-05-28T11:12:09Z</time>
      </trkpt>
      <trkpt lat="43.84305" lon="6.52312">
        <ele>741</ele>
        <time>2018-05-28T11:12:18Z</time>
      </trkpt>
      <trkpt lat="43.84308" lon="6.52305">
        <ele>741</ele>
        <time>2018-05-28T11:12:19Z</time>
      </trkpt>
      <trkpt lat="43.84329" lon="6.52229">
        <ele>743</ele>
        <time>2018-05-28T11:12:30Z</time>
      </trkpt>
      <trkpt lat="43.84339" lon="6.52202">
        <ele>744</ele>
        <time>2018-05-28T11:12:34Z</time>
      </trkpt>
      <trkpt lat="43.84342" lon="6.52196">
        <ele>744</ele>
        <time>2018-05-28T11:12:35Z</time>
      </trkpt>
      <trkpt lat="43.84345" lon="6.5219">
        <ele>743</ele>
        <time>2018-05-28T11:12:36Z</time>
      </trkpt>
      <trkpt lat="43.84348" lon="6.52183">
        <ele>743</ele>
        <time>2018-05-28T11:12:37Z</time>
      </trkpt>
      <trkpt lat="43.84351" lon="6.52177">
        <ele>742</ele>
        <time>2018-05-28T11:12:38Z</time>
      </trkpt>
      <trkpt lat="43.84354" lon="6.5217">
        <ele>742</ele>
        <time>2018-05-28T11:12:39Z</time>
      </trkpt>
      <trkpt lat="43.84377" lon="6.52128">
        <ele>741</ele>
        <time>2018-05-28T11:12:46Z</time>
      </trkpt>
      <trkpt lat="43.84418" lon="6.52045">
        <ele>739</ele>
        <time>2018-05-28T11:12:59Z</time>
      </trkpt>
      <trkpt lat="43.8443" lon="6.52007">
        <ele>737</ele>
        <time>2018-05-28T11:13:05Z</time>
      </trkpt>
      <trkpt lat="43.84439" lon="6.51968">
        <ele>739</ele>
        <time>2018-05-28T11:13:11Z</time>
      </trkpt>
      <trkpt lat="43.84441" lon="6.51962">
        <ele>740</ele>
        <time>2018-05-28T11:13:12Z</time>
      </trkpt>
      <trkpt lat="43.84442" lon="6.51956">
        <ele>740</ele>
        <time>2018-05-28T11:13:13Z</time>
      </trkpt>
      <trkpt lat="43.84453" lon="6.51922">
        <ele>739</ele>
        <time>2018-05-28T11:13:18Z</time>
      </trkpt>
      <trkpt lat="43.84482" lon="6.51809">
        <ele>737</ele>
        <time>2018-05-28T11:13:34Z</time>
      </trkpt>
      <trkpt lat="43.84506" lon="6.51729">
        <ele>735</ele>
        <time>2018-05-28T11:13:49Z</time>
      </trkpt>
      <trkpt lat="43.84512" lon="6.51669">
        <ele>735</ele>
        <time>2018-05-28T11:14:02Z</time>
      </trkpt>
      <trkpt lat="43.84533" lon="6.51658">
        <ele>731</ele>
        <time>2018-05-28T11:14:10Z</time>
      </trkpt>
      <trkpt lat="43.84559" lon="6.51666">
        <ele>732</ele>
        <time>2018-05-28T11:14:22Z</time>
      </trkpt>
      <trkpt lat="43.84588" lon="6.51653">
        <ele>750</ele>
        <time>2018-05-28T11:14:34Z</time>
      </trkpt>
      <trkpt lat="43.84609" lon="6.51614">
        <ele>739</ele>
        <time>2018-05-28T11:14:46Z</time>
      </trkpt>
      <trkpt lat="43.84629" lon="6.51559">
        <ele>736</ele>
        <time>2018-05-28T11:14:58Z</time>
      </trkpt>
      <trkpt lat="43.84642" lon="6.51507">
        <ele>733</ele>
        <time>2018-05-28T11:15:10Z</time>
      </trkpt>
      <trkpt lat="43.84634" lon="6.51489">
        <ele>730</ele>
        <time>2018-05-28T11:15:14Z</time>
      </trkpt>
      <trkpt lat="43.84631" lon="6.51485">
        <ele>729</ele>
        <time>2018-05-28T11:15:15Z</time>
      </trkpt>
      <trkpt lat="43.84621" lon="6.51473">
        <ele>727</ele>
        <time>2018-05-28T11:15:18Z</time>
      </trkpt>
      <trkpt lat="43.84582" lon="6.51417">
        <ele>722</ele>
        <time>2018-05-28T11:15:32Z</time>
      </trkpt>
      <trkpt lat="43.84578" lon="6.51404">
        <ele>721</ele>
        <time>2018-05-28T11:15:42Z</time>
      </trkpt>
      <trkpt lat="43.8457" lon="6.51379">
        <ele>721</ele>
        <time>2018-05-28T11:15:51Z</time>
      </trkpt>
      <trkpt lat="43.84551" lon="6.5132">
        <ele>721</ele>
        <time>2018-05-28T11:16:04Z</time>
      </trkpt>
      <trkpt lat="43.84535" lon="6.51272">
        <ele>721</ele>
        <time>2018-05-28T11:16:13Z</time>
      </trkpt>
      <trkpt lat="43.84533" lon="6.51266">
        <ele>721</ele>
        <time>2018-05-28T11:16:14Z</time>
      </trkpt>
      <trkpt lat="43.84514" lon="6.51203">
        <ele>721</ele>
        <time>2018-05-28T11:16:25Z</time>
      </trkpt>
      <trkpt lat="43.84514" lon="6.51197">
        <ele>721</ele>
        <time>2018-05-28T11:16:26Z</time>
      </trkpt>
      <trkpt lat="43.84511" lon="6.51172">
        <ele>721</ele>
        <time>2018-05-28T11:16:30Z</time>
      </trkpt>
      <trkpt lat="43.8451" lon="6.51159">
        <ele>722</ele>
        <time>2018-05-28T11:16:32Z</time>
      </trkpt>
      <trkpt lat="43.84508" lon="6.51141">
        <ele>722</ele>
        <time>2018-05-28T11:16:35Z</time>
      </trkpt>
      <trkpt lat="43.845" lon="6.51105">
        <ele>722</ele>
        <time>2018-05-28T11:16:41Z</time>
      </trkpt>
      <trkpt lat="43.84482" lon="6.51035">
        <ele>723</ele>
        <time>2018-05-28T11:16:53Z</time>
      </trkpt>
      <trkpt lat="43.84469" lon="6.50988">
        <ele>722</ele>
        <time>2018-05-28T11:17:01Z</time>
      </trkpt>
      <trkpt lat="43.84468" lon="6.50982">
        <ele>722</ele>
        <time>2018-05-28T11:17:02Z</time>
      </trkpt>
      <trkpt lat="43.84446" lon="6.50887">
        <ele>722</ele>
        <time>2018-05-28T11:17:18Z</time>
      </trkpt>
      <trkpt lat="43.84432" lon="6.5084">
        <ele>722</ele>
        <time>2018-05-28T11:17:26Z</time>
      </trkpt>
      <trkpt lat="43.84423" lon="6.50805">
        <ele>722</ele>
        <time>2018-05-28T11:17:32Z</time>
      </trkpt>
      <trkpt lat="43.84419" lon="6.50786">
        <ele>722</ele>
        <time>2018-05-28T11:17:35Z</time>
      </trkpt>
      <trkpt lat="43.84418" lon="6.5078">
        <ele>722</ele>
        <time>2018-05-28T11:17:36Z</time>
      </trkpt>
      <trkpt lat="43.84407" lon="6.50739">
        <ele>720</ele>
        <time>2018-05-28T11:17:43Z</time>
      </trkpt>
      <trkpt lat="43.84406" lon="6.50733">
        <ele>720</ele>
        <time>2018-05-28T11:17:44Z</time>
      </trkpt>
      <trkpt lat="43.84397" lon="6.50699">
        <ele>720</ele>
        <time>2018-05-28T11:17:50Z</time>
      </trkpt>
      <trkpt lat="43.84374" lon="6.50604">
        <ele>719</ele>
        <time>2018-05-28T11:18:06Z</time>
      </trkpt>
      <trkpt lat="43.8436" lon="6.50553">
        <ele>719</ele>
        <time>2018-05-28T11:18:15Z</time>
      </trkpt>
      <trkpt lat="43.84336" lon="6.5046">
        <ele>719</ele>
        <time>2018-05-28T11:18:33Z</time>
      </trkpt>
      <trkpt lat="43.84317" lon="6.50388">
        <ele>719</ele>
        <time>2018-05-28T11:18:48Z</time>
      </trkpt>
      <trkpt lat="43.84291" lon="6.50329">
        <ele>719</ele>
        <time>2018-05-28T11:18:59Z</time>
      </trkpt>
      <trkpt lat="43.8426" lon="6.50257">
        <ele>719</ele>
        <time>2018-05-28T11:19:10Z</time>
      </trkpt>
      <trkpt lat="43.84216" lon="6.50151">
        <ele>719</ele>
        <time>2018-05-28T11:19:27Z</time>
      </trkpt>
      <trkpt lat="43.84176" lon="6.50059">
        <ele>719</ele>
        <time>2018-05-28T11:19:44Z</time>
      </trkpt>
      <trkpt lat="43.84133" lon="6.49959">
        <ele>720</ele>
        <time>2018-05-28T11:20:02Z</time>
      </trkpt>
      <trkpt lat="43.84093" lon="6.49869">
        <ele>720</ele>
        <time>2018-05-28T11:20:19Z</time>
      </trkpt>
      <trkpt lat="43.84051" lon="6.49767">
        <ele>719</ele>
        <time>2018-05-28T11:20:38Z</time>
      </trkpt>
      <trkpt lat="43.84014" lon="6.49682">
        <ele>719</ele>
        <time>2018-05-28T11:20:55Z</time>
      </trkpt>
      <trkpt lat="43.83987" lon="6.49619">
        <ele>719</ele>
        <time>2018-05-28T11:21:09Z</time>
      </trkpt>
      <trkpt lat="43.83965" lon="6.49563">
        <ele>718</ele>
        <time>2018-05-28T11:21:24Z</time>
      </trkpt>
      <trkpt lat="43.83973" lon="6.49556">
        <ele>718</ele>
        <time>2018-05-28T11:21:29Z</time>
      </trkpt>
      <trkpt lat="43.83968" lon="6.49546">
        <ele>718</ele>
        <time>2018-05-28T11:21:35Z</time>
      </trkpt>
      <trkpt lat="43.83966" lon="6.49543">
        <ele>718</ele>
        <time>2018-05-28T11:21:36Z</time>
      </trkpt>
      <trkpt lat="43.83964" lon="6.49541">
        <ele>718</ele>
        <time>2018-05-28T11:21:37Z</time>
      </trkpt>
      <trkpt lat="43.83956" lon="6.49502">
        <ele>717</ele>
        <time>2018-05-28T11:21:49Z</time>
      </trkpt>
      <trkpt lat="43.83947" lon="6.49462">
        <ele>717</ele>
        <time>2018-05-28T11:22:04Z</time>
      </trkpt>
      <trkpt lat="43.83919" lon="6.49453">
        <ele>717</ele>
        <time>2018-05-28T11:22:15Z</time>
      </trkpt>
      <trkpt lat="43.83881" lon="6.49451">
        <ele>717</ele>
        <time>2018-05-28T11:22:28Z</time>
      </trkpt>
      <trkpt lat="43.83836" lon="6.4945">
        <ele>717</ele>
        <time>2018-05-28T11:22:43Z</time>
      </trkpt>
      <trkpt lat="43.83787" lon="6.49466">
        <ele>715</ele>
        <time>2018-05-28T11:22:58Z</time>
      </trkpt>
      <trkpt lat="43.83777" lon="6.49473">
        <ele>715</ele>
        <time>2018-05-28T11:23:02Z</time>
      </trkpt>
      <trkpt lat="43.8377" lon="6.49519">
        <ele>716</ele>
        <time>2018-05-28T11:23:16Z</time>
      </trkpt>
      <trkpt lat="43.83778" lon="6.49561">
        <ele>718</ele>
        <time>2018-05-28T11:23:29Z</time>
      </trkpt>
      <trkpt lat="43.83779" lon="6.49572">
        <ele>718</ele>
        <time>2018-05-28T11:23:33Z</time>
      </trkpt>
      <trkpt lat="43.83779" lon="6.49574">
        <ele>719</ele>
        <time>2018-05-28T11:23:34Z</time>
      </trkpt>
      <trkpt lat="43.83778" lon="6.49576">
        <ele>719</ele>
        <time>2018-05-28T11:23:35Z</time>
      </trkpt>
      <trkpt lat="43.83777" lon="6.49577">
        <ele>719</ele>
        <time>2018-05-28T11:23:36Z</time>
      </trkpt>
      <trkpt lat="43.83775" lon="6.49579">
        <ele>719</ele>
        <time>2018-05-28T11:23:37Z</time>
      </trkpt>
      <trkpt lat="43.83774" lon="6.49579">
        <ele>719</ele>
        <time>2018-05-28T11:23:38Z</time>
      </trkpt>
      <trkpt lat="43.83772" lon="6.4958">
        <ele>719</ele>
        <time>2018-05-28T11:23:39Z</time>
      </trkpt>
      <trkpt lat="43.83771" lon="6.49582">
        <ele>719</ele>
        <time>2018-05-28T11:23:40Z</time>
      </trkpt>
      <trkpt lat="43.8377" lon="6.49582">
        <ele>719</ele>
        <time>2018-05-28T11:23:41Z</time>
      </trkpt>
      <trkpt lat="43.83766" lon="6.49585">
        <ele>719</ele>
        <time>2018-05-28T11:23:52Z</time>
      </trkpt>
    </trkseg>
  </trk>
</gpx>